<?xml version="1.0" encoding="UTF-8" standalone="no" ?><gpx xmlns="http://www.topografix.com/GPX/1/1" xmlns:gpxx="http://www.garmin.com/xmlschemas/GpxExtensions/v3" xmlns:gpxtrkx="http://www.garmin.com/xmlschemas/TrackStatsExtension/v1" xmlns:wptx1="http://www.garmin.com/xmlschemas/WaypointExtension/v1" xmlns:gpxtpx="http://www.garmin.com/xmlschemas/TrackPointExtension/v1" creator="GPSMAP 65s" version="1.1" xmlns:xsi="http://www.w3.org/2001/XMLSchema-instance" xsi:schemaLocation="http://www.topografix.com/GPX/1/1 http://www.topografix.com/GPX/1/1/gpx.xsd http://www.garmin.com/xmlschemas/GpxExtensions/v3 http://www8.garmin.com/xmlschemas/GpxExtensionsv3.xsd http://www.garmin.com/xmlschemas/TrackStatsExtension/v1 http://www8.garmin.com/xmlschemas/TrackStatsExtension.xsd http://www.garmin.com/xmlschemas/WaypointExtension/v1 http://www8.garmin.com/xmlschemas/WaypointExtensionv1.xsd http://www.garmin.com/xmlschemas/TrackPointExtension/v1 http://www.garmin.com/xmlschemas/TrackPointExtensionv1.xsd"><metadata><link href="http://www.garmin.com"><text>Garmin International</text></link><time>2026-08-18T20:37:59Z</time></metadata><trk><name>20260818-АВТОНОМ3</name><extensions><gpxx:TrackExtension><gpxx:DisplayColor>Yellow</gpxx:DisplayColor></gpxx:TrackExtension><gpxtrkx:TrackStatsExtension><gpxtrkx:Distance>13963.000</gpxtrkx:Distance><gpxtrkx:TotalElapsedTime>35851</gpxtrkx:TotalElapsedTime><gpxtrkx:MovingTime>11073</gpxtrkx:MovingTime><gpxtrkx:StoppedTime>24496</gpxtrkx:StoppedTime><gpxtrkx:MovingSpeed>1.261</gpxtrkx:MovingSpeed><gpxtrkx:MaxSpeed>2.875</gpxtrkx:MaxSpeed><gpxtrkx:MaxElevation>184.400</gpxtrkx:MaxElevation><gpxtrkx:MinElevation>152.162</gpxtrkx:MinElevation><gpxtrkx:Ascent>123.000</gpxtrkx:Ascent><gpxtrkx:Descent>98.957</gpxtrkx:Descent><gpxtrkx:AvgAscentRate>0.008</gpxtrkx:AvgAscentRate><gpxtrkx:MaxAscentRate>0.978</gpxtrkx:MaxAscentRate><gpxtrkx:AvgDescentRate>0.007</gpxtrkx:AvgDescentRate><gpxtrkx:MaxDescentRate>-0.080</gpxtrkx:MaxDescentRate></gpxtrkx:TrackStatsExtension></extensions><trkseg><trkpt lat="59.3335539848" lon="34.7026335541"><ele>154.24</ele><time>2026-08-18T10:40:28Z</time></trkpt><trkpt lat="59.3335540686" lon="34.7026337218"><ele>154.24</ele><time>2026-08-18T10:40:29Z</time></trkpt><trkpt lat="59.3335555773" lon="34.7026343923"><ele>155.89</ele><time>2026-08-18T10:40:34Z</time></trkpt><trkpt lat="59.3335585948" lon="34.7026320454"><ele>157.18</ele><time>2026-08-18T10:40:58Z</time></trkpt><trkpt lat="59.3335480336" lon="34.7026653215"><ele>154.89</ele><time>2026-08-18T10:41:25Z</time></trkpt><trkpt lat="59.3335464410" lon="34.7026626393"><ele>156.27</ele><time>2026-08-18T10:41:29Z</time></trkpt><trkpt lat="59.3335453514" lon="34.7026584484"><ele>154.87</ele><time>2026-08-18T10:41:31Z</time></trkpt><trkpt lat="59.3335405737" lon="34.7026289441"><ele>154.99</ele><time>2026-08-18T10:42:11Z</time></trkpt><trkpt lat="59.3335451838" lon="34.7026392538"><ele>155.06</ele><time>2026-08-18T10:42:41Z</time></trkpt><trkpt lat="59.3335448485" lon="34.7026356496"><ele>154.98</ele><time>2026-08-18T10:43:28Z</time></trkpt><trkpt lat="59.3335503805" lon="34.7026296984"><ele>155.02</ele><time>2026-08-18T10:43:59Z</time></trkpt><trkpt lat="59.3335322756" lon="34.7027060576"><ele>155.54</ele><time>2026-08-18T10:44:23Z</time></trkpt><trkpt lat="59.3335002568" lon="34.7027385794"><ele>154.83</ele><time>2026-08-18T10:44:39Z</time></trkpt><trkpt lat="59.3334562518" lon="34.7027537506"><ele>154.34</ele><time>2026-08-18T10:44:59Z</time></trkpt><trkpt lat="59.3334398232" lon="34.7027015314"><ele>154.51</ele><time>2026-08-18T10:45:22Z</time></trkpt><trkpt lat="59.3334273342" lon="34.7026114259"><ele>154.46</ele><time>2026-08-18T10:45:29Z</time></trkpt><trkpt lat="59.3334058765" lon="34.7025049757"><ele>154.41</ele><time>2026-08-18T10:45:36Z</time></trkpt><trkpt lat="59.3333879393" lon="34.7024442907"><ele>154.38</ele><time>2026-08-18T10:45:40Z</time></trkpt><trkpt lat="59.3333207164" lon="34.7022060771"><ele>153.88</ele><time>2026-08-18T10:45:55Z</time></trkpt><trkpt lat="59.3332035374" lon="34.7020491678"><ele>153.22</ele><time>2026-08-18T10:46:08Z</time></trkpt><trkpt lat="59.3330679182" lon="34.7018048353"><ele>153.26</ele><time>2026-08-18T10:46:26Z</time></trkpt><trkpt lat="59.3329599593" lon="34.7015335970"><ele>153.31</ele><time>2026-08-18T10:46:41Z</time></trkpt><trkpt lat="59.3329498172" lon="34.7015045956"><ele>153.32</ele><time>2026-08-18T10:46:43Z</time></trkpt><trkpt lat="59.3328784872" lon="34.7013566550"><ele>153.45</ele><time>2026-08-18T10:46:52Z</time></trkpt><trkpt lat="59.3328252621" lon="34.7012232989"><ele>153.99</ele><time>2026-08-18T10:47:00Z</time></trkpt><trkpt lat="59.3327946682" lon="34.7011403181"><ele>154.15</ele><time>2026-08-18T10:47:04Z</time></trkpt><trkpt lat="59.3327018805" lon="34.7009303514"><ele>154.08</ele><time>2026-08-18T10:47:18Z</time></trkpt><trkpt lat="59.3326186482" lon="34.7007582709"><ele>154.51</ele><time>2026-08-18T10:47:28Z</time></trkpt><trkpt lat="59.3325534370" lon="34.7005399223"><ele>154.56</ele><time>2026-08-18T10:47:39Z</time></trkpt><trkpt lat="59.3324794248" lon="34.7003637347"><ele>154.61</ele><time>2026-08-18T10:47:50Z</time></trkpt><trkpt lat="59.3324084301" lon="34.7001023870"><ele>154.71</ele><time>2026-08-18T10:48:04Z</time></trkpt><trkpt lat="59.3323762435" lon="34.7000279557"><ele>155.08</ele><time>2026-08-18T10:48:09Z</time></trkpt><trkpt lat="59.3323257845" lon="34.6998237725"><ele>155.96</ele><time>2026-08-18T10:48:21Z</time></trkpt><trkpt lat="59.3322943524" lon="34.6997522749"><ele>155.02</ele><time>2026-08-18T10:48:25Z</time></trkpt><trkpt lat="59.3321877345" lon="34.6994932741"><ele>154.74</ele><time>2026-08-18T10:48:39Z</time></trkpt><trkpt lat="59.3321757484" lon="34.6994483471"><ele>154.71</ele><time>2026-08-18T10:48:42Z</time></trkpt><trkpt lat="59.3321299832" lon="34.6992347762"><ele>155.15</ele><time>2026-08-18T10:48:53Z</time></trkpt><trkpt lat="59.3320588209" lon="34.6989110671"><ele>155.03</ele><time>2026-08-18T10:49:08Z</time></trkpt><trkpt lat="59.3320152350" lon="34.6987870988"><ele>154.90</ele><time>2026-08-18T10:49:17Z</time></trkpt><trkpt lat="59.3319711462" lon="34.6987147629"><ele>155.49</ele><time>2026-08-18T10:49:25Z</time></trkpt><trkpt lat="59.3318698928" lon="34.6984973364"><ele>155.54</ele><time>2026-08-18T10:49:39Z</time></trkpt><trkpt lat="59.3318363652" lon="34.6984329633"><ele>155.60</ele><time>2026-08-18T10:49:42Z</time></trkpt><trkpt lat="59.3317669630" lon="34.6982159559"><ele>155.45</ele><time>2026-08-18T10:49:54Z</time></trkpt><trkpt lat="59.3317516241" lon="34.6981875412"><ele>155.97</ele><time>2026-08-18T10:49:56Z</time></trkpt><trkpt lat="59.3316619378" lon="34.6978737228"><ele>155.64</ele><time>2026-08-18T10:50:11Z</time></trkpt><trkpt lat="59.3316051923" lon="34.6975577250"><ele>155.43</ele><time>2026-08-18T10:50:25Z</time></trkpt><trkpt lat="59.3315371312" lon="34.6973196790"><ele>155.23</ele><time>2026-08-18T10:50:39Z</time></trkpt><trkpt lat="59.3315330241" lon="34.6973013226"><ele>155.32</ele><time>2026-08-18T10:50:40Z</time></trkpt><trkpt lat="59.3314577546" lon="34.6970533859"><ele>155.55</ele><time>2026-08-18T10:50:55Z</time></trkpt><trkpt lat="59.3313192856" lon="34.6968225483"><ele>155.56</ele><time>2026-08-18T10:51:09Z</time></trkpt><trkpt lat="59.3311151862" lon="34.6965818200"><ele>155.27</ele><time>2026-08-18T10:51:27Z</time></trkpt><trkpt lat="59.3310008571" lon="34.6964520682"><ele>155.24</ele><time>2026-08-18T10:51:37Z</time></trkpt><trkpt lat="59.3308530841" lon="34.6961391717"><ele>155.29</ele><time>2026-08-18T10:51:50Z</time></trkpt><trkpt lat="59.3306966778" lon="34.6959008742"><ele>155.59</ele><time>2026-08-18T10:52:06Z</time></trkpt><trkpt lat="59.3305342365" lon="34.6956493333"><ele>155.57</ele><time>2026-08-18T10:52:20Z</time></trkpt><trkpt lat="59.3304029759" lon="34.6953732334"><ele>155.55</ele><time>2026-08-18T10:52:34Z</time></trkpt><trkpt lat="59.3303726334" lon="34.6952887438"><ele>155.86</ele><time>2026-08-18T10:52:38Z</time></trkpt><trkpt lat="59.3302100245" lon="34.6950195171"><ele>155.48</ele><time>2026-08-18T10:52:52Z</time></trkpt><trkpt lat="59.3301420473" lon="34.6948977280"><ele>155.79</ele><time>2026-08-18T10:52:59Z</time></trkpt><trkpt lat="59.3300142232" lon="34.6945755277"><ele>155.88</ele><time>2026-08-18T10:53:14Z</time></trkpt><trkpt lat="59.3300090265" lon="34.6945497952"><ele>155.85</ele><time>2026-08-18T10:53:15Z</time></trkpt><trkpt lat="59.3298913445" lon="34.6941393334"><ele>156.43</ele><time>2026-08-18T10:53:32Z</time></trkpt><trkpt lat="59.3297677953" lon="34.6939482260"><ele>156.20</ele><time>2026-08-18T10:53:47Z</time></trkpt><trkpt lat="59.3296247162" lon="34.6937435400"><ele>156.38</ele><time>2026-08-18T10:54:02Z</time></trkpt><trkpt lat="59.3294842355" lon="34.6935576294"><ele>156.89</ele><time>2026-08-18T10:54:16Z</time></trkpt><trkpt lat="59.3293364625" lon="34.6932495944"><ele>157.28</ele><time>2026-08-18T10:54:31Z</time></trkpt><trkpt lat="59.3293050304" lon="34.6932057571"><ele>157.06</ele><time>2026-08-18T10:54:33Z</time></trkpt><trkpt lat="59.3291061278" lon="34.6928468440"><ele>157.20</ele><time>2026-08-18T10:54:50Z</time></trkpt><trkpt lat="59.3289869372" lon="34.6924995817"><ele>156.52</ele><time>2026-08-18T10:55:04Z</time></trkpt><trkpt lat="59.3289674912" lon="34.6924497932"><ele>156.68</ele><time>2026-08-18T10:55:06Z</time></trkpt><trkpt lat="59.3288627174" lon="34.6920898743"><ele>156.51</ele><time>2026-08-18T10:55:22Z</time></trkpt><trkpt lat="59.3287374917" lon="34.6917128563"><ele>156.62</ele><time>2026-08-18T10:55:38Z</time></trkpt><trkpt lat="59.3286538403" lon="34.6913591400"><ele>157.83</ele><time>2026-08-18T10:55:52Z</time></trkpt><trkpt lat="59.3285485636" lon="34.6909914259"><ele>156.57</ele><time>2026-08-18T10:56:07Z</time></trkpt><trkpt lat="59.3284750544" lon="34.6906976402"><ele>156.51</ele><time>2026-08-18T10:56:20Z</time></trkpt><trkpt lat="59.3283088412" lon="34.6904372983"><ele>156.54</ele><time>2026-08-18T10:56:35Z</time></trkpt><trkpt lat="59.3281911593" lon="34.6901049558"><ele>157.07</ele><time>2026-08-18T10:56:50Z</time></trkpt><trkpt lat="59.3280752376" lon="34.6897755470"><ele>157.26</ele><time>2026-08-18T10:57:04Z</time></trkpt><trkpt lat="59.3279873952" lon="34.6894472279"><ele>157.27</ele><time>2026-08-18T10:57:19Z</time></trkpt><trkpt lat="59.3278861418" lon="34.6891224291"><ele>157.07</ele><time>2026-08-18T10:57:33Z</time></trkpt><trkpt lat="59.3277404644" lon="34.6888465807"><ele>157.45</ele><time>2026-08-18T10:57:51Z</time></trkpt><trkpt lat="59.3275873270" lon="34.6885192674"><ele>157.55</ele><time>2026-08-18T10:58:07Z</time></trkpt><trkpt lat="59.3274018355" lon="34.6882521361"><ele>157.41</ele><time>2026-08-18T10:58:25Z</time></trkpt><trkpt lat="59.3273804616" lon="34.6882311814"><ele>157.47</ele><time>2026-08-18T10:58:28Z</time></trkpt><trkpt lat="59.3271933775" lon="34.6879709233"><ele>157.54</ele><time>2026-08-18T10:58:43Z</time></trkpt><trkpt lat="59.3271685671" lon="34.6879060473"><ele>157.54</ele><time>2026-08-18T10:58:48Z</time></trkpt><trkpt lat="59.3271274958" lon="34.6878262516"><ele>157.19</ele><time>2026-08-18T10:58:51Z</time></trkpt><trkpt lat="59.3270887714" lon="34.6877649799"><ele>157.27</ele><time>2026-08-18T10:58:54Z</time></trkpt><trkpt lat="59.3269803934" lon="34.6874391753"><ele>157.15</ele><time>2026-08-18T10:59:08Z</time></trkpt><trkpt lat="59.3268740270" lon="34.6871125326"><ele>156.42</ele><time>2026-08-18T10:59:23Z</time></trkpt><trkpt lat="59.3268161919" lon="34.6868005581"><ele>156.33</ele><time>2026-08-18T10:59:36Z</time></trkpt><trkpt lat="59.3267586920" lon="34.6865012404"><ele>156.29</ele><time>2026-08-18T10:59:51Z</time></trkpt><trkpt lat="59.3266831711" lon="34.6860881802"><ele>156.32</ele><time>2026-08-18T11:00:07Z</time></trkpt><trkpt lat="59.3266674969" lon="34.6860068757"><ele>156.42</ele><time>2026-08-18T11:00:11Z</time></trkpt><trkpt lat="59.3265792355" lon="34.6857151855"><ele>156.56</ele><time>2026-08-18T11:00:24Z</time></trkpt><trkpt lat="59.3264815863" lon="34.6854343079"><ele>156.93</ele><time>2026-08-18T11:00:38Z</time></trkpt><trkpt lat="59.3264233321" lon="34.6852808353"><ele>156.89</ele><time>2026-08-18T11:00:46Z</time></trkpt><trkpt lat="59.3263942469" lon="34.6852193959"><ele>156.86</ele><time>2026-08-18T11:00:49Z</time></trkpt><trkpt lat="59.3262781575" lon="34.6847871412"><ele>156.82</ele><time>2026-08-18T11:01:07Z</time></trkpt><trkpt lat="59.3261531834" lon="34.6844175830"><ele>157.08</ele><time>2026-08-18T11:01:24Z</time></trkpt><trkpt lat="59.3260644190" lon="34.6840177663"><ele>156.76</ele><time>2026-08-18T11:01:39Z</time></trkpt><trkpt lat="59.3260600604" lon="34.6839342825"><ele>156.83</ele><time>2026-08-18T11:01:43Z</time></trkpt><trkpt lat="59.3260330707" lon="34.6836833283"><ele>156.34</ele><time>2026-08-18T11:01:52Z</time></trkpt><trkpt lat="59.3260004651" lon="34.6835692506"><ele>156.08</ele><time>2026-08-18T11:01:57Z</time></trkpt><trkpt lat="59.3259899877" lon="34.6834985912"><ele>156.05</ele><time>2026-08-18T11:02:00Z</time></trkpt><trkpt lat="59.3259881437" lon="34.6834039595"><ele>156.00</ele><time>2026-08-18T11:02:03Z</time></trkpt><trkpt lat="59.3259796780" lon="34.6832980122"><ele>155.86</ele><time>2026-08-18T11:02:07Z</time></trkpt><trkpt lat="59.3259742297" lon="34.6831841860"><ele>155.72</ele><time>2026-08-18T11:02:12Z</time></trkpt><trkpt lat="59.3260113616" lon="34.6830218285"><ele>155.88</ele><time>2026-08-18T11:02:20Z</time></trkpt><trkpt lat="59.3260034826" lon="34.6829436254"><ele>156.18</ele><time>2026-08-18T11:02:23Z</time></trkpt><trkpt lat="59.3259680271" lon="34.6827226784"><ele>156.34</ele><time>2026-08-18T11:02:32Z</time></trkpt><trkpt lat="59.3259357568" lon="34.6825711336"><ele>156.42</ele><time>2026-08-18T11:02:38Z</time></trkpt><trkpt lat="59.3258498423" lon="34.6822020784"><ele>156.88</ele><time>2026-08-18T11:02:55Z</time></trkpt><trkpt lat="59.3258174881" lon="34.6820711531"><ele>156.76</ele><time>2026-08-18T11:03:01Z</time></trkpt><trkpt lat="59.3257879838" lon="34.6818964742"><ele>156.91</ele><time>2026-08-18T11:03:08Z</time></trkpt><trkpt lat="59.3257847987" lon="34.6818015911"><ele>156.62</ele><time>2026-08-18T11:03:12Z</time></trkpt><trkpt lat="59.3257646821" lon="34.6816518903"><ele>156.62</ele><time>2026-08-18T11:03:18Z</time></trkpt><trkpt lat="59.3256701343" lon="34.6813728567"><ele>156.49</ele><time>2026-08-18T11:03:32Z</time></trkpt><trkpt lat="59.3256274704" lon="34.6810032986"><ele>156.12</ele><time>2026-08-18T11:03:47Z</time></trkpt><trkpt lat="59.3254957907" lon="34.6806680225"><ele>157.09</ele><time>2026-08-18T11:04:02Z</time></trkpt><trkpt lat="59.3254009914" lon="34.6802663617"><ele>157.44</ele><time>2026-08-18T11:04:19Z</time></trkpt><trkpt lat="59.3253473472" lon="34.6799167525"><ele>157.69</ele><time>2026-08-18T11:04:33Z</time></trkpt><trkpt lat="59.3253386300" lon="34.6797988191"><ele>157.54</ele><time>2026-08-18T11:04:38Z</time></trkpt><trkpt lat="59.3253152445" lon="34.6794111561"><ele>158.06</ele><time>2026-08-18T11:04:53Z</time></trkpt><trkpt lat="59.3253146578" lon="34.6793840826"><ele>158.07</ele><time>2026-08-18T11:04:54Z</time></trkpt><trkpt lat="59.3253026716" lon="34.6789875347"><ele>158.65</ele><time>2026-08-18T11:05:10Z</time></trkpt><trkpt lat="59.3253010791" lon="34.6788936574"><ele>158.67</ele><time>2026-08-18T11:05:14Z</time></trkpt><trkpt lat="59.3252245523" lon="34.6785964351"><ele>159.59</ele><time>2026-08-18T11:05:28Z</time></trkpt><trkpt lat="59.3252301682" lon="34.6784118656"><ele>159.42</ele><time>2026-08-18T11:05:34Z</time></trkpt><trkpt lat="59.3252316769" lon="34.6783597302"><ele>160.48</ele><time>2026-08-18T11:05:36Z</time></trkpt><trkpt lat="59.3252252229" lon="34.6781838778"><ele>160.45</ele><time>2026-08-18T11:05:44Z</time></trkpt><trkpt lat="59.3252125662" lon="34.6778775193"><ele>160.95</ele><time>2026-08-18T11:05:57Z</time></trkpt><trkpt lat="59.3252060283" lon="34.6778009925"><ele>161.04</ele><time>2026-08-18T11:06:00Z</time></trkpt><trkpt lat="59.3251489475" lon="34.6774918679"><ele>161.47</ele><time>2026-08-18T11:06:14Z</time></trkpt><trkpt lat="59.3250703253" lon="34.6772899479"><ele>161.54</ele><time>2026-08-18T11:06:30Z</time></trkpt><trkpt lat="59.3250671402" lon="34.6771497186"><ele>161.89</ele><time>2026-08-18T11:06:39Z</time></trkpt><trkpt lat="59.3250719178" lon="34.6771111619"><ele>162.13</ele><time>2026-08-18T11:06:41Z</time></trkpt><trkpt lat="59.3250036892" lon="34.6767324675"><ele>162.29</ele><time>2026-08-18T11:06:56Z</time></trkpt><trkpt lat="59.3249722570" lon="34.6765837725"><ele>162.45</ele><time>2026-08-18T11:07:02Z</time></trkpt><trkpt lat="59.3249587622" lon="34.6765062399"><ele>162.35</ele><time>2026-08-18T11:07:05Z</time></trkpt><trkpt lat="59.3248816486" lon="34.6761885658"><ele>162.35</ele><time>2026-08-18T11:07:19Z</time></trkpt><trkpt lat="59.3247713428" lon="34.6758826263"><ele>162.20</ele><time>2026-08-18T11:07:35Z</time></trkpt><trkpt lat="59.3246461172" lon="34.6755886730"><ele>161.92</ele><time>2026-08-18T11:07:50Z</time></trkpt><trkpt lat="59.3245157786" lon="34.6754107252"><ele>161.91</ele><time>2026-08-18T11:08:03Z</time></trkpt><trkpt lat="59.3243317958" lon="34.6752286702"><ele>161.41</ele><time>2026-08-18T11:08:19Z</time></trkpt><trkpt lat="59.3241468910" lon="34.6750536561"><ele>161.42</ele><time>2026-08-18T11:08:33Z</time></trkpt><trkpt lat="59.3240307178" lon="34.6748905443"><ele>161.72</ele><time>2026-08-18T11:08:46Z</time></trkpt><trkpt lat="59.3239299674" lon="34.6747521590"><ele>161.60</ele><time>2026-08-18T11:08:54Z</time></trkpt><trkpt lat="59.3238233496" lon="34.6746123489"><ele>161.51</ele><time>2026-08-18T11:09:03Z</time></trkpt><trkpt lat="59.3236160651" lon="34.6744685154"><ele>160.69</ele><time>2026-08-18T11:09:21Z</time></trkpt><trkpt lat="59.3234561384" lon="34.6744488180"><ele>160.34</ele><time>2026-08-18T11:09:34Z</time></trkpt><trkpt lat="59.3232840579" lon="34.6743829362"><ele>159.70</ele><time>2026-08-18T11:09:47Z</time></trkpt><trkpt lat="59.3231655378" lon="34.6743325610"><ele>159.14</ele><time>2026-08-18T11:09:55Z</time></trkpt><trkpt lat="59.3230580818" lon="34.6743046492"><ele>158.63</ele><time>2026-08-18T11:10:02Z</time></trkpt><trkpt lat="59.3230193574" lon="34.6742899809"><ele>158.39</ele><time>2026-08-18T11:10:05Z</time></trkpt><trkpt lat="59.3227310199" lon="34.6742005460"><ele>156.86</ele><time>2026-08-18T11:10:25Z</time></trkpt><trkpt lat="59.3225196283" lon="34.6740649268"><ele>156.95</ele><time>2026-08-18T11:10:42Z</time></trkpt><trkpt lat="59.3222329672" lon="34.6739102807"><ele>157.38</ele><time>2026-08-18T11:11:07Z</time></trkpt><trkpt lat="59.3220696878" lon="34.6737635974"><ele>157.91</ele><time>2026-08-18T11:11:26Z</time></trkpt><trkpt lat="59.3220461346" lon="34.6737421397"><ele>157.51</ele><time>2026-08-18T11:11:29Z</time></trkpt><trkpt lat="59.3218400236" lon="34.6734567359"><ele>158.23</ele><time>2026-08-18T11:11:49Z</time></trkpt><trkpt lat="59.3216548674" lon="34.6731097251"><ele>157.89</ele><time>2026-08-18T11:12:09Z</time></trkpt><trkpt lat="59.3215236906" lon="34.6728028636"><ele>158.05</ele><time>2026-08-18T11:12:25Z</time></trkpt><trkpt lat="59.3213692959" lon="34.6724519972"><ele>158.26</ele><time>2026-08-18T11:12:43Z</time></trkpt><trkpt lat="59.3212260492" lon="34.6721476503"><ele>158.31</ele><time>2026-08-18T11:12:59Z</time></trkpt><trkpt lat="59.3210923579" lon="34.6719235182"><ele>158.26</ele><time>2026-08-18T11:13:11Z</time></trkpt><trkpt lat="59.3210589979" lon="34.6718588937"><ele>158.68</ele><time>2026-08-18T11:13:15Z</time></trkpt><trkpt lat="59.3209152482" lon="34.6716125496"><ele>159.10</ele><time>2026-08-18T11:13:29Z</time></trkpt><trkpt lat="59.3207434192" lon="34.6712466795"><ele>159.93</ele><time>2026-08-18T11:13:48Z</time></trkpt><trkpt lat="59.3207375519" lon="34.6712150797"><ele>160.09</ele><time>2026-08-18T11:13:50Z</time></trkpt><trkpt lat="59.3206992466" lon="34.6710430831"><ele>160.17</ele><time>2026-08-18T11:13:58Z</time></trkpt><trkpt lat="59.3206632882" lon="34.6709166840"><ele>160.18</ele><time>2026-08-18T11:14:04Z</time></trkpt><trkpt lat="59.3205663934" lon="34.6705586929"><ele>159.54</ele><time>2026-08-18T11:14:19Z</time></trkpt><trkpt lat="59.3204831611" lon="34.6702347323"><ele>158.91</ele><time>2026-08-18T11:14:34Z</time></trkpt><trkpt lat="59.3204602785" lon="34.6701336466"><ele>158.84</ele><time>2026-08-18T11:14:38Z</time></trkpt><trkpt lat="59.3204105739" lon="34.6699265298"><ele>158.57</ele><time>2026-08-18T11:14:46Z</time></trkpt><trkpt lat="59.3202735297" lon="34.6694697998"><ele>159.14</ele><time>2026-08-18T11:15:05Z</time></trkpt><trkpt lat="59.3201933987" lon="34.6691896766"><ele>159.19</ele><time>2026-08-18T11:15:17Z</time></trkpt><trkpt lat="59.3201034609" lon="34.6688377205"><ele>158.87</ele><time>2026-08-18T11:15:32Z</time></trkpt><trkpt lat="59.3200741243" lon="34.6686809789"><ele>159.18</ele><time>2026-08-18T11:15:39Z</time></trkpt><trkpt lat="59.3199752178" lon="34.6682350617"><ele>158.97</ele><time>2026-08-18T11:15:58Z</time></trkpt><trkpt lat="59.3198687676" lon="34.6678104345"><ele>158.66</ele><time>2026-08-18T11:16:15Z</time></trkpt><trkpt lat="59.3197850324" lon="34.6675415430"><ele>158.28</ele><time>2026-08-18T11:16:27Z</time></trkpt><trkpt lat="59.3197724596" lon="34.6674703807"><ele>158.25</ele><time>2026-08-18T11:16:30Z</time></trkpt><trkpt lat="59.3196945917" lon="34.6671102941"><ele>157.88</ele><time>2026-08-18T11:16:44Z</time></trkpt><trkpt lat="59.3196412828" lon="34.6668806300"><ele>158.22</ele><time>2026-08-18T11:16:54Z</time></trkpt><trkpt lat="59.3195485789" lon="34.6664709225"><ele>158.90</ele><time>2026-08-18T11:17:11Z</time></trkpt><trkpt lat="59.3194608204" lon="34.6660969220"><ele>160.35</ele><time>2026-08-18T11:17:28Z</time></trkpt><trkpt lat="59.3194016442" lon="34.6657893900"><ele>160.00</ele><time>2026-08-18T11:17:41Z</time></trkpt><trkpt lat="59.3193371873" lon="34.6653893217"><ele>158.75</ele><time>2026-08-18T11:17:56Z</time></trkpt><trkpt lat="59.3192921765" lon="34.6650841366"><ele>158.25</ele><time>2026-08-18T11:18:07Z</time></trkpt><trkpt lat="59.3192480877" lon="34.6647108905"><ele>157.71</ele><time>2026-08-18T11:18:21Z</time></trkpt><trkpt lat="59.3192216847" lon="34.6643222217"><ele>158.28</ele><time>2026-08-18T11:18:38Z</time></trkpt><trkpt lat="59.3191951979" lon="34.6641005203"><ele>157.55</ele><time>2026-08-18T11:18:47Z</time></trkpt><trkpt lat="59.3191862293" lon="34.6640288550"><ele>158.23</ele><time>2026-08-18T11:18:50Z</time></trkpt><trkpt lat="59.3190585729" lon="34.6636343189"><ele>158.25</ele><time>2026-08-18T11:19:08Z</time></trkpt><trkpt lat="59.3189324252" lon="34.6633256972"><ele>158.34</ele><time>2026-08-18T11:19:24Z</time></trkpt><trkpt lat="59.3188064452" lon="34.6630275529"><ele>158.18</ele><time>2026-08-18T11:19:37Z</time></trkpt><trkpt lat="59.3186825607" lon="34.6627362818"><ele>158.04</ele><time>2026-08-18T11:19:51Z</time></trkpt><trkpt lat="59.3186544813" lon="34.6626788657"><ele>158.00</ele><time>2026-08-18T11:19:54Z</time></trkpt><trkpt lat="59.3184979912" lon="34.6622907836"><ele>157.60</ele><time>2026-08-18T11:20:12Z</time></trkpt><trkpt lat="59.3184132501" lon="34.6619618777"><ele>157.76</ele><time>2026-08-18T11:20:25Z</time></trkpt><trkpt lat="59.3183822371" lon="34.6615723707"><ele>157.70</ele><time>2026-08-18T11:20:40Z</time></trkpt><trkpt lat="59.3183517270" lon="34.6612203307"><ele>157.52</ele><time>2026-08-18T11:20:54Z</time></trkpt><trkpt lat="59.3183356337" lon="34.6609558817"><ele>157.53</ele><time>2026-08-18T11:21:04Z</time></trkpt><trkpt lat="59.3183192890" lon="34.6605211962"><ele>158.05</ele><time>2026-08-18T11:21:21Z</time></trkpt><trkpt lat="59.3183145951" lon="34.6601597685"><ele>158.25</ele><time>2026-08-18T11:21:35Z</time></trkpt><trkpt lat="59.3182935566" lon="34.6599999256"><ele>158.61</ele><time>2026-08-18T11:21:42Z</time></trkpt><trkpt lat="59.3182787206" lon="34.6598411724"><ele>158.89</ele><time>2026-08-18T11:21:49Z</time></trkpt><trkpt lat="59.3182300217" lon="34.6594368294"><ele>158.78</ele><time>2026-08-18T11:22:05Z</time></trkpt><trkpt lat="59.3182261661" lon="34.6591482405"><ele>159.23</ele><time>2026-08-18T11:22:22Z</time></trkpt><trkpt lat="59.3182356376" lon="34.6592361666"><ele>159.39</ele><time>2026-08-18T11:22:48Z</time></trkpt><trkpt lat="59.3182317819" lon="34.6592584625"><ele>159.22</ele><time>2026-08-18T11:23:05Z</time></trkpt><trkpt lat="59.3182379846" lon="34.6592500806"><ele>158.27</ele><time>2026-08-18T11:23:40Z</time></trkpt><trkpt lat="59.3182360567" lon="34.6592439618"><ele>159.52</ele><time>2026-08-18T11:24:10Z</time></trkpt><trkpt lat="59.3182401638" lon="34.6592430398"><ele>159.64</ele><time>2026-08-18T11:24:32Z</time></trkpt><trkpt lat="59.3182396609" lon="34.6592499968"><ele>158.61</ele><time>2026-08-18T11:24:37Z</time></trkpt><trkpt lat="59.3182464503" lon="34.6592606418"><ele>159.29</ele><time>2026-08-18T11:25:10Z</time></trkpt><trkpt lat="59.3182449415" lon="34.6592611447"><ele>159.65</ele><time>2026-08-18T11:26:25Z</time></trkpt><trkpt lat="59.3182423431" lon="34.6592597198"><ele>159.36</ele><time>2026-08-18T11:26:56Z</time></trkpt><trkpt lat="59.3182473723" lon="34.6592451353"><ele>159.36</ele><time>2026-08-18T11:27:20Z</time></trkpt><trkpt lat="59.3182636332" lon="34.6592245996"><ele>159.38</ele><time>2026-08-18T11:27:42Z</time></trkpt><trkpt lat="59.3184759468" lon="34.6588778403"><ele>158.71</ele><time>2026-08-18T11:28:08Z</time></trkpt><trkpt lat="59.3186092190" lon="34.6587485913"><ele>160.43</ele><time>2026-08-18T11:28:21Z</time></trkpt><trkpt lat="59.3186400644" lon="34.6587224398"><ele>160.17</ele><time>2026-08-18T11:28:24Z</time></trkpt><trkpt lat="59.3186813872" lon="34.6586929355"><ele>160.17</ele><time>2026-08-18T11:28:28Z</time></trkpt><trkpt lat="59.3189224508" lon="34.6585197654"><ele>160.04</ele><time>2026-08-18T11:28:52Z</time></trkpt><trkpt lat="59.3189757597" lon="34.6584683843"><ele>160.05</ele><time>2026-08-18T11:29:00Z</time></trkpt><trkpt lat="59.3189920206" lon="34.6584591642"><ele>160.05</ele><time>2026-08-18T11:29:02Z</time></trkpt><trkpt lat="59.3190758396" lon="34.6584117226"><ele>162.65</ele><time>2026-08-18T11:29:09Z</time></trkpt><trkpt lat="59.3192626722" lon="34.6583277360"><ele>162.27</ele><time>2026-08-18T11:29:24Z</time></trkpt><trkpt lat="59.3194646761" lon="34.6582224593"><ele>161.01</ele><time>2026-08-18T11:29:41Z</time></trkpt><trkpt lat="59.3196831923" lon="34.6581097227"><ele>163.15</ele><time>2026-08-18T11:29:59Z</time></trkpt><trkpt lat="59.3196961004" lon="34.6581020113"><ele>163.02</ele><time>2026-08-18T11:30:00Z</time></trkpt><trkpt lat="59.3198259361" lon="34.6579580940"><ele>164.89</ele><time>2026-08-18T11:30:12Z</time></trkpt><trkpt lat="59.3198825978" lon="34.6578626242"><ele>162.95</ele><time>2026-08-18T11:30:19Z</time></trkpt><trkpt lat="59.3200712744" lon="34.6574685909"><ele>163.59</ele><time>2026-08-18T11:30:40Z</time></trkpt><trkpt lat="59.3201121781" lon="34.6573401801"><ele>162.58</ele><time>2026-08-18T11:30:46Z</time></trkpt><trkpt lat="59.3202564307" lon="34.6568947658"><ele>162.22</ele><time>2026-08-18T11:31:07Z</time></trkpt><trkpt lat="59.3202657346" lon="34.6568784211"><ele>162.22</ele><time>2026-08-18T11:31:08Z</time></trkpt><trkpt lat="59.3203034531" lon="34.6568083484"><ele>160.93</ele><time>2026-08-18T11:31:12Z</time></trkpt><trkpt lat="59.3204160221" lon="34.6565606631"><ele>160.92</ele><time>2026-08-18T11:31:29Z</time></trkpt><trkpt lat="59.3205404934" lon="34.6563025843"><ele>160.41</ele><time>2026-08-18T11:31:44Z</time></trkpt><trkpt lat="59.3205833249" lon="34.6559961420"><ele>160.73</ele><time>2026-08-18T11:31:59Z</time></trkpt><trkpt lat="59.3206420820" lon="34.6557178628"><ele>160.76</ele><time>2026-08-18T11:32:14Z</time></trkpt><trkpt lat="59.3207058683" lon="34.6554881986"><ele>160.59</ele><time>2026-08-18T11:32:29Z</time></trkpt><trkpt lat="59.3207254820" lon="34.6553554293"><ele>160.85</ele><time>2026-08-18T11:32:36Z</time></trkpt><trkpt lat="59.3207817245" lon="34.6551142819"><ele>160.90</ele><time>2026-08-18T11:32:50Z</time></trkpt><trkpt lat="59.3207922857" lon="34.6548679378"><ele>161.53</ele><time>2026-08-18T11:33:03Z</time></trkpt><trkpt lat="59.3208391406" lon="34.6546258684"><ele>161.46</ele><time>2026-08-18T11:33:19Z</time></trkpt><trkpt lat="59.3208427448" lon="34.6545903292"><ele>161.90</ele><time>2026-08-18T11:33:21Z</time></trkpt><trkpt lat="59.3208478577" lon="34.6545508504"><ele>161.75</ele><time>2026-08-18T11:33:23Z</time></trkpt><trkpt lat="59.3208775297" lon="34.6544836275"><ele>162.25</ele><time>2026-08-18T11:33:27Z</time></trkpt><trkpt lat="59.3209834769" lon="34.6542067733"><ele>162.01</ele><time>2026-08-18T11:33:41Z</time></trkpt><trkpt lat="59.3210357800" lon="34.6540510375"><ele>162.49</ele><time>2026-08-18T11:33:49Z</time></trkpt><trkpt lat="59.3210808747" lon="34.6539039351"><ele>162.05</ele><time>2026-08-18T11:33:56Z</time></trkpt><trkpt lat="59.3210894242" lon="34.6538015921"><ele>161.85</ele><time>2026-08-18T11:34:01Z</time></trkpt><trkpt lat="59.3210972194" lon="34.6535907872"><ele>162.21</ele><time>2026-08-18T11:34:15Z</time></trkpt><trkpt lat="59.3211034220" lon="34.6535850875"><ele>161.92</ele><time>2026-08-18T11:34:16Z</time></trkpt><trkpt lat="59.3212050945" lon="34.6533662360"><ele>161.35</ele><time>2026-08-18T11:34:28Z</time></trkpt><trkpt lat="59.3212526198" lon="34.6532378253"><ele>161.75</ele><time>2026-08-18T11:34:35Z</time></trkpt><trkpt lat="59.3213593215" lon="34.6529571991"><ele>160.97</ele><time>2026-08-18T11:34:50Z</time></trkpt><trkpt lat="59.3214765843" lon="34.6528187301"><ele>160.57</ele><time>2026-08-18T11:35:02Z</time></trkpt><trkpt lat="59.3215744011" lon="34.6526568756"><ele>160.72</ele><time>2026-08-18T11:35:18Z</time></trkpt><trkpt lat="59.3217414524" lon="34.6524518542"><ele>160.66</ele><time>2026-08-18T11:35:34Z</time></trkpt><trkpt lat="59.3218807597" lon="34.6523775905"><ele>160.53</ele><time>2026-08-18T11:35:51Z</time></trkpt><trkpt lat="59.3218891416" lon="34.6523732319"><ele>160.71</ele><time>2026-08-18T11:35:52Z</time></trkpt><trkpt lat="59.3220086675" lon="34.6521939430"><ele>161.06</ele><time>2026-08-18T11:36:06Z</time></trkpt><trkpt lat="59.3221165426" lon="34.6521686297"><ele>161.22</ele><time>2026-08-18T11:36:21Z</time></trkpt><trkpt lat="59.3221659958" lon="34.6522085276"><ele>161.54</ele><time>2026-08-18T11:36:30Z</time></trkpt><trkpt lat="59.3223864399" lon="34.6521548834"><ele>163.81</ele><time>2026-08-18T11:36:46Z</time></trkpt><trkpt lat="59.3225337937" lon="34.6520274784"><ele>164.90</ele><time>2026-08-18T11:37:01Z</time></trkpt><trkpt lat="59.3225520663" lon="34.6520134807"><ele>164.97</ele><time>2026-08-18T11:37:03Z</time></trkpt><trkpt lat="59.3226662278" lon="34.6518540569"><ele>164.39</ele><time>2026-08-18T11:37:14Z</time></trkpt><trkpt lat="59.3227280863" lon="34.6517309267"><ele>163.74</ele><time>2026-08-18T11:37:31Z</time></trkpt><trkpt lat="59.3228014279" lon="34.6516950522"><ele>164.13</ele><time>2026-08-18T11:37:41Z</time></trkpt><trkpt lat="59.3228976522" lon="34.6516425814"><ele>164.43</ele><time>2026-08-18T11:37:48Z</time></trkpt><trkpt lat="59.3229760230" lon="34.6516072936"><ele>164.66</ele><time>2026-08-18T11:37:54Z</time></trkpt><trkpt lat="59.3230564892" lon="34.6514826547"><ele>164.51</ele><time>2026-08-18T11:38:09Z</time></trkpt><trkpt lat="59.3231913541" lon="34.6513076406"><ele>165.02</ele><time>2026-08-18T11:38:26Z</time></trkpt><trkpt lat="59.3233537953" lon="34.6511086542"><ele>163.80</ele><time>2026-08-18T11:38:46Z</time></trkpt><trkpt lat="59.3235084414" lon="34.6509526670"><ele>163.01</ele><time>2026-08-18T11:38:59Z</time></trkpt><trkpt lat="59.3236208428" lon="34.6508324705"><ele>162.68</ele><time>2026-08-18T11:39:11Z</time></trkpt><trkpt lat="59.3237330765" lon="34.6506652515"><ele>162.46</ele><time>2026-08-18T11:39:29Z</time></trkpt><trkpt lat="59.3237451464" lon="34.6506567858"><ele>162.29</ele><time>2026-08-18T11:40:09Z</time></trkpt><trkpt lat="59.3237838708" lon="34.6506243479"><ele>161.68</ele><time>2026-08-18T11:40:42Z</time></trkpt><trkpt lat="59.3238897342" lon="34.6505373437"><ele>161.63</ele><time>2026-08-18T11:40:58Z</time></trkpt><trkpt lat="59.3239997886" lon="34.6504539438"><ele>161.06</ele><time>2026-08-18T11:41:14Z</time></trkpt><trkpt lat="59.3240596354" lon="34.6504368447"><ele>162.00</ele><time>2026-08-18T11:41:34Z</time></trkpt><trkpt lat="59.3242256809" lon="34.6503445599"><ele>162.18</ele><time>2026-08-18T11:41:50Z</time></trkpt><trkpt lat="59.3243695982" lon="34.6501103695"><ele>161.58</ele><time>2026-08-18T11:42:06Z</time></trkpt><trkpt lat="59.3244271819" lon="34.6500071883"><ele>161.47</ele><time>2026-08-18T11:42:18Z</time></trkpt><trkpt lat="59.3244602904" lon="34.6499617584"><ele>161.23</ele><time>2026-08-18T11:42:22Z</time></trkpt><trkpt lat="59.3244894594" lon="34.6499314997"><ele>161.26</ele><time>2026-08-18T11:42:36Z</time></trkpt><trkpt lat="59.3245129287" lon="34.6499521192"><ele>161.12</ele><time>2026-08-18T11:42:52Z</time></trkpt><trkpt lat="59.3245840911" lon="34.6498488542"><ele>161.41</ele><time>2026-08-18T11:43:00Z</time></trkpt><trkpt lat="59.3246209715" lon="34.6497592516"><ele>161.24</ele><time>2026-08-18T11:43:05Z</time></trkpt><trkpt lat="59.3246331252" lon="34.6497200243"><ele>161.13</ele><time>2026-08-18T11:43:07Z</time></trkpt><trkpt lat="59.3246622942" lon="34.6495969780"><ele>160.90</ele><time>2026-08-18T11:43:13Z</time></trkpt><trkpt lat="59.3247352168" lon="34.6493410785"><ele>160.95</ele><time>2026-08-18T11:43:29Z</time></trkpt><trkpt lat="59.3248035293" lon="34.6491823252"><ele>160.83</ele><time>2026-08-18T11:43:42Z</time></trkpt><trkpt lat="59.3249070458" lon="34.6490155254"><ele>161.11</ele><time>2026-08-18T11:43:50Z</time></trkpt><trkpt lat="59.3250254821" lon="34.6488353144"><ele>160.90</ele><time>2026-08-18T11:44:04Z</time></trkpt><trkpt lat="59.3251952995" lon="34.6485680994"><ele>161.50</ele><time>2026-08-18T11:44:22Z</time></trkpt><trkpt lat="59.3252099678" lon="34.6485559456"><ele>161.22</ele><time>2026-08-18T11:44:23Z</time></trkpt><trkpt lat="59.3253043480" lon="34.6484589670"><ele>161.53</ele><time>2026-08-18T11:44:31Z</time></trkpt><trkpt lat="59.3253400549" lon="34.6484340727"><ele>161.90</ele><time>2026-08-18T11:44:34Z</time></trkpt><trkpt lat="59.3254102953" lon="34.6482969448"><ele>161.99</ele><time>2026-08-18T11:44:42Z</time></trkpt><trkpt lat="59.3254582398" lon="34.6481678635"><ele>162.39</ele><time>2026-08-18T11:44:49Z</time></trkpt><trkpt lat="59.3255300727" lon="34.6479277220"><ele>162.76</ele><time>2026-08-18T11:45:04Z</time></trkpt><trkpt lat="59.3256253749" lon="34.6477133967"><ele>164.51</ele><time>2026-08-18T11:45:20Z</time></trkpt><trkpt lat="59.3256766722" lon="34.6474913601"><ele>163.35</ele><time>2026-08-18T11:45:31Z</time></trkpt><trkpt lat="59.3257739861" lon="34.6472632885"><ele>163.67</ele><time>2026-08-18T11:45:48Z</time></trkpt><trkpt lat="59.3258112017" lon="34.6470538247"><ele>163.99</ele><time>2026-08-18T11:46:05Z</time></trkpt><trkpt lat="59.3258173205" lon="34.6469599474"><ele>162.64</ele><time>2026-08-18T11:46:13Z</time></trkpt><trkpt lat="59.3258367665" lon="34.6468876954"><ele>165.15</ele><time>2026-08-18T11:46:17Z</time></trkpt><trkpt lat="59.3258589786" lon="34.6468354762"><ele>164.23</ele><time>2026-08-18T11:46:22Z</time></trkpt><trkpt lat="59.3259200826" lon="34.6466143616"><ele>164.39</ele><time>2026-08-18T11:46:37Z</time></trkpt><trkpt lat="59.3259629980" lon="34.6465119347"><ele>164.48</ele><time>2026-08-18T11:46:42Z</time></trkpt><trkpt lat="59.3260434642" lon="34.6462186519"><ele>164.68</ele><time>2026-08-18T11:46:57Z</time></trkpt><trkpt lat="59.3261474837" lon="34.6458720602"><ele>164.20</ele><time>2026-08-18T11:47:12Z</time></trkpt><trkpt lat="59.3261675164" lon="34.6457870677"><ele>164.08</ele><time>2026-08-18T11:47:16Z</time></trkpt><trkpt lat="59.3262205739" lon="34.6456482634"><ele>163.56</ele><time>2026-08-18T11:47:23Z</time></trkpt><trkpt lat="59.3262332305" lon="34.6456037555"><ele>163.59</ele><time>2026-08-18T11:47:25Z</time></trkpt><trkpt lat="59.3263444584" lon="34.6452806331"><ele>162.55</ele><time>2026-08-18T11:47:41Z</time></trkpt><trkpt lat="59.3263611384" lon="34.6452398971"><ele>163.79</ele><time>2026-08-18T11:47:43Z</time></trkpt><trkpt lat="59.3263944983" lon="34.6451457683"><ele>163.41</ele><time>2026-08-18T11:47:47Z</time></trkpt><trkpt lat="59.3264123518" lon="34.6451050323"><ele>163.42</ele><time>2026-08-18T11:47:49Z</time></trkpt><trkpt lat="59.3264789879" lon="34.6447838377"><ele>163.45</ele><time>2026-08-18T11:48:06Z</time></trkpt><trkpt lat="59.3265740387" lon="34.6444772277"><ele>163.38</ele><time>2026-08-18T11:48:22Z</time></trkpt><trkpt lat="59.3266768847" lon="34.6441927459"><ele>164.23</ele><time>2026-08-18T11:48:39Z</time></trkpt><trkpt lat="59.3266842607" lon="34.6441282891"><ele>163.97</ele><time>2026-08-18T11:49:12Z</time></trkpt><trkpt lat="59.3267055508" lon="34.6438711323"><ele>163.25</ele><time>2026-08-18T11:49:29Z</time></trkpt><trkpt lat="59.3267133459" lon="34.6437964495"><ele>162.68</ele><time>2026-08-18T11:49:33Z</time></trkpt><trkpt lat="59.3267411739" lon="34.6434178390"><ele>163.01</ele><time>2026-08-18T11:49:51Z</time></trkpt><trkpt lat="59.3267616257" lon="34.6430635359"><ele>163.78</ele><time>2026-08-18T11:50:08Z</time></trkpt><trkpt lat="59.3267891183" lon="34.6426684968"><ele>163.78</ele><time>2026-08-18T11:50:26Z</time></trkpt><trkpt lat="59.3268499710" lon="34.6424875315"><ele>162.17</ele><time>2026-08-18T11:50:39Z</time></trkpt><trkpt lat="59.3269863445" lon="34.6421746351"><ele>164.04</ele><time>2026-08-18T11:50:59Z</time></trkpt><trkpt lat="59.3270660564" lon="34.6419990342"><ele>164.47</ele><time>2026-08-18T11:51:10Z</time></trkpt><trkpt lat="59.3272301741" lon="34.6416704636"><ele>159.73</ele><time>2026-08-18T11:51:28Z</time></trkpt><trkpt lat="59.3272396456" lon="34.6416468266"><ele>166.82</ele><time>2026-08-18T11:51:29Z</time></trkpt><trkpt lat="59.3272492848" lon="34.6416261233"><ele>166.24</ele><time>2026-08-18T11:51:30Z</time></trkpt><trkpt lat="59.3272600137" lon="34.6415984631"><ele>164.92</ele><time>2026-08-18T11:51:32Z</time></trkpt><trkpt lat="59.3273480237" lon="34.6414128877"><ele>164.77</ele><time>2026-08-18T11:51:56Z</time></trkpt><trkpt lat="59.3274086248" lon="34.6413861495"><ele>164.11</ele><time>2026-08-18T11:52:03Z</time></trkpt><trkpt lat="59.3275645282" lon="34.6412716527"><ele>164.06</ele><time>2026-08-18T11:52:17Z</time></trkpt><trkpt lat="59.3276681285" lon="34.6410991531"><ele>164.16</ele><time>2026-08-18T11:52:30Z</time></trkpt><trkpt lat="59.3277196772" lon="34.6410661284"><ele>164.14</ele><time>2026-08-18T11:52:54Z</time></trkpt><trkpt lat="59.3277387880" lon="34.6410776954"><ele>164.18</ele><time>2026-08-18T11:53:15Z</time></trkpt><trkpt lat="59.3277173303" lon="34.6410860773"><ele>164.25</ele><time>2026-08-18T11:53:36Z</time></trkpt><trkpt lat="59.3277330883" lon="34.6411118936"><ele>163.13</ele><time>2026-08-18T11:54:10Z</time></trkpt><trkpt lat="59.3277353514" lon="34.6411070321"><ele>164.27</ele><time>2026-08-18T11:55:05Z</time></trkpt><trkpt lat="59.3277188390" lon="34.6410694811"><ele>164.25</ele><time>2026-08-18T11:55:32Z</time></trkpt><trkpt lat="59.3277549651" lon="34.6409752686"><ele>164.11</ele><time>2026-08-18T11:55:44Z</time></trkpt><trkpt lat="59.3278826214" lon="34.6405990887"><ele>163.81</ele><time>2026-08-18T11:56:02Z</time></trkpt><trkpt lat="59.3279250339" lon="34.6404595301"><ele>163.67</ele><time>2026-08-18T11:56:10Z</time></trkpt><trkpt lat="59.3279463239" lon="34.6403997671"><ele>163.71</ele><time>2026-08-18T11:56:13Z</time></trkpt><trkpt lat="59.3280378543" lon="34.6400947496"><ele>163.51</ele><time>2026-08-18T11:56:27Z</time></trkpt><trkpt lat="59.3280940969" lon="34.6398578770"><ele>163.73</ele><time>2026-08-18T11:56:39Z</time></trkpt><trkpt lat="59.3281001318" lon="34.6397724655"><ele>163.54</ele><time>2026-08-18T11:56:42Z</time></trkpt><trkpt lat="59.3281284627" lon="34.6395963617"><ele>163.30</ele><time>2026-08-18T11:56:50Z</time></trkpt><trkpt lat="59.3281670194" lon="34.6393955313"><ele>163.42</ele><time>2026-08-18T11:57:01Z</time></trkpt><trkpt lat="59.3281720486" lon="34.6393264644"><ele>163.25</ele><time>2026-08-18T11:57:09Z</time></trkpt><trkpt lat="59.3282087613" lon="34.6392666176"><ele>163.25</ele><time>2026-08-18T11:57:14Z</time></trkpt><trkpt lat="59.3282681890" lon="34.6389994863"><ele>163.65</ele><time>2026-08-18T11:57:26Z</time></trkpt><trkpt lat="59.3283172231" lon="34.6385889407"><ele>163.59</ele><time>2026-08-18T11:57:43Z</time></trkpt><trkpt lat="59.3283275329" lon="34.6382108331"><ele>161.80</ele><time>2026-08-18T11:57:58Z</time></trkpt><trkpt lat="59.3283316400" lon="34.6379828453"><ele>165.88</ele><time>2026-08-18T11:58:08Z</time></trkpt><trkpt lat="59.3283313885" lon="34.6379605494"><ele>164.96</ele><time>2026-08-18T11:58:09Z</time></trkpt><trkpt lat="59.3283225875" lon="34.6376734693"><ele>163.67</ele><time>2026-08-18T11:58:23Z</time></trkpt><trkpt lat="59.3283351604" lon="34.6374310646"><ele>164.19</ele><time>2026-08-18T11:58:31Z</time></trkpt><trkpt lat="59.3283912353" lon="34.6369834710"><ele>164.79</ele><time>2026-08-18T11:58:48Z</time></trkpt><trkpt lat="59.3284391798" lon="34.6366174333"><ele>164.04</ele><time>2026-08-18T11:59:03Z</time></trkpt><trkpt lat="59.3284833524" lon="34.6362669859"><ele>164.05</ele><time>2026-08-18T11:59:20Z</time></trkpt><trkpt lat="59.3285114318" lon="34.6359765530"><ele>164.14</ele><time>2026-08-18T11:59:34Z</time></trkpt><trkpt lat="59.3285241723" lon="34.6356403548"><ele>164.38</ele><time>2026-08-18T11:59:50Z</time></trkpt><trkpt lat="59.3285573646" lon="34.6353589743"><ele>164.80</ele><time>2026-08-18T12:00:08Z</time></trkpt><trkpt lat="59.3286129367" lon="34.6349659469"><ele>165.48</ele><time>2026-08-18T12:00:25Z</time></trkpt><trkpt lat="59.3286464643" lon="34.6346919425"><ele>165.98</ele><time>2026-08-18T12:00:37Z</time></trkpt><trkpt lat="59.3286564387" lon="34.6345840674"><ele>165.93</ele><time>2026-08-18T12:00:42Z</time></trkpt><trkpt lat="59.3287016172" lon="34.6342358831"><ele>165.24</ele><time>2026-08-18T12:00:58Z</time></trkpt><trkpt lat="59.3287568539" lon="34.6338057239"><ele>165.66</ele><time>2026-08-18T12:01:18Z</time></trkpt><trkpt lat="59.3287906330" lon="34.6335435379"><ele>166.39</ele><time>2026-08-18T12:01:31Z</time></trkpt><trkpt lat="59.3288307823" lon="34.6333177295"><ele>163.01</ele><time>2026-08-18T12:01:41Z</time></trkpt><trkpt lat="59.3288361467" lon="34.6332890633"><ele>163.02</ele><time>2026-08-18T12:01:42Z</time></trkpt><trkpt lat="59.3288802356" lon="34.6329866443"><ele>168.58</ele><time>2026-08-18T12:01:55Z</time></trkpt><trkpt lat="59.3288834207" lon="34.6329738200"><ele>167.10</ele><time>2026-08-18T12:01:56Z</time></trkpt><trkpt lat="59.3288939819" lon="34.6325819660"><ele>165.50</ele><time>2026-08-18T12:02:14Z</time></trkpt><trkpt lat="59.3288832530" lon="34.6321965661"><ele>165.51</ele><time>2026-08-18T12:02:32Z</time></trkpt><trkpt lat="59.3289064709" lon="34.6318361443"><ele>165.89</ele><time>2026-08-18T12:02:49Z</time></trkpt><trkpt lat="59.3289371487" lon="34.6316832583"><ele>165.92</ele><time>2026-08-18T12:02:57Z</time></trkpt><trkpt lat="59.3289587740" lon="34.6314560249"><ele>166.41</ele><time>2026-08-18T12:03:11Z</time></trkpt><trkpt lat="59.3290072214" lon="34.6312094294"><ele>167.23</ele><time>2026-08-18T12:03:28Z</time></trkpt><trkpt lat="59.3290303554" lon="34.6311000455"><ele>167.20</ele><time>2026-08-18T12:03:49Z</time></trkpt><trkpt lat="59.3290349655" lon="34.6310442220"><ele>167.00</ele><time>2026-08-18T12:04:02Z</time></trkpt><trkpt lat="59.3290368933" lon="34.6308291424"><ele>166.71</ele><time>2026-08-18T12:04:14Z</time></trkpt><trkpt lat="59.3290292658" lon="34.6306483448"><ele>166.54</ele><time>2026-08-18T12:04:22Z</time></trkpt><trkpt lat="59.3289686646" lon="34.6303275693"><ele>166.42</ele><time>2026-08-18T12:04:38Z</time></trkpt><trkpt lat="59.3289640546" lon="34.6303158347"><ele>166.70</ele><time>2026-08-18T12:04:39Z</time></trkpt><trkpt lat="59.3289268389" lon="34.6300447639"><ele>167.26</ele><time>2026-08-18T12:04:54Z</time></trkpt><trkpt lat="59.3289201334" lon="34.6298847534"><ele>167.79</ele><time>2026-08-18T12:05:02Z</time></trkpt><trkpt lat="59.3289496377" lon="34.6295486391"><ele>167.90</ele><time>2026-08-18T12:05:17Z</time></trkpt><trkpt lat="59.3289751187" lon="34.6291968506"><ele>167.58</ele><time>2026-08-18T12:05:33Z</time></trkpt><trkpt lat="59.3290127534" lon="34.6288721357"><ele>167.52</ele><time>2026-08-18T12:05:50Z</time></trkpt><trkpt lat="59.3290154357" lon="34.6288476605"><ele>167.46</ele><time>2026-08-18T12:05:51Z</time></trkpt><trkpt lat="59.3290237337" lon="34.6285362728"><ele>167.27</ele><time>2026-08-18T12:06:06Z</time></trkpt><trkpt lat="59.3290308584" lon="34.6282764338"><ele>167.37</ele><time>2026-08-18T12:06:19Z</time></trkpt><trkpt lat="59.3290607817" lon="34.6280070394"><ele>167.37</ele><time>2026-08-18T12:06:31Z</time></trkpt><trkpt lat="59.3291069660" lon="34.6276231483"><ele>166.57</ele><time>2026-08-18T12:06:47Z</time></trkpt><trkpt lat="59.3291340396" lon="34.6274778899"><ele>166.35</ele><time>2026-08-18T12:06:53Z</time></trkpt><trkpt lat="59.3291457742" lon="34.6273876168"><ele>166.40</ele><time>2026-08-18T12:06:57Z</time></trkpt><trkpt lat="59.3291693274" lon="34.6272022929"><ele>166.99</ele><time>2026-08-18T12:07:07Z</time></trkpt><trkpt lat="59.3292299286" lon="34.6268582996"><ele>167.41</ele><time>2026-08-18T12:07:23Z</time></trkpt><trkpt lat="59.3292659707" lon="34.6264160704"><ele>167.34</ele><time>2026-08-18T12:07:42Z</time></trkpt><trkpt lat="59.3293109816" lon="34.6261244640"><ele>167.84</ele><time>2026-08-18T12:07:57Z</time></trkpt><trkpt lat="59.3293106463" lon="34.6261052694"><ele>168.12</ele><time>2026-08-18T12:08:10Z</time></trkpt><trkpt lat="59.3293144181" lon="34.6260807943"><ele>167.94</ele><time>2026-08-18T12:08:13Z</time></trkpt><trkpt lat="59.3293429166" lon="34.6259974781"><ele>166.98</ele><time>2026-08-18T12:08:24Z</time></trkpt><trkpt lat="59.3293628655" lon="34.6260967199"><ele>164.09</ele><time>2026-08-18T12:08:29Z</time></trkpt><trkpt lat="59.3293635361" lon="34.6261017490"><ele>164.85</ele><time>2026-08-18T12:08:30Z</time></trkpt><trkpt lat="59.3293644581" lon="34.6261031739"><ele>168.23</ele><time>2026-08-18T12:08:31Z</time></trkpt><trkpt lat="59.3293658830" lon="34.6261047665"><ele>169.80</ele><time>2026-08-18T12:08:33Z</time></trkpt><trkpt lat="59.3293533940" lon="34.6261033416"><ele>170.83</ele><time>2026-08-18T12:08:45Z</time></trkpt><trkpt lat="59.3293520529" lon="34.6260988992"><ele>168.74</ele><time>2026-08-18T12:08:47Z</time></trkpt><trkpt lat="59.3293402344" lon="34.6260586660"><ele>168.22</ele><time>2026-08-18T12:08:52Z</time></trkpt><trkpt lat="59.3294085469" lon="34.6256799717"><ele>168.54</ele><time>2026-08-18T12:09:07Z</time></trkpt><trkpt lat="59.3294109777" lon="34.6256582625"><ele>168.76</ele><time>2026-08-18T12:09:08Z</time></trkpt><trkpt lat="59.3294144981" lon="34.6255497169"><ele>168.77</ele><time>2026-08-18T12:09:12Z</time></trkpt><trkpt lat="59.3294325192" lon="34.6254566777"><ele>168.71</ele><time>2026-08-18T12:09:16Z</time></trkpt><trkpt lat="59.3294504564" lon="34.6252626367"><ele>169.25</ele><time>2026-08-18T12:09:33Z</time></trkpt><trkpt lat="59.3294715788" lon="34.6252033766"><ele>170.38</ele><time>2026-08-18T12:09:55Z</time></trkpt><trkpt lat="59.3294896837" lon="34.6251362376"><ele>169.13</ele><time>2026-08-18T12:10:00Z</time></trkpt><trkpt lat="59.3295196909" lon="34.6249239240"><ele>169.71</ele><time>2026-08-18T12:10:12Z</time></trkpt><trkpt lat="59.3295416515" lon="34.6247473173"><ele>169.81</ele><time>2026-08-18T12:10:25Z</time></trkpt><trkpt lat="59.3295537215" lon="34.6246914938"><ele>169.82</ele><time>2026-08-18T12:10:42Z</time></trkpt><trkpt lat="59.3295563199" lon="34.6245962754"><ele>169.62</ele><time>2026-08-18T12:10:59Z</time></trkpt><trkpt lat="59.3295836449" lon="34.6244357619"><ele>169.90</ele><time>2026-08-18T12:11:13Z</time></trkpt><trkpt lat="59.3296533823" lon="34.6240764298"><ele>169.56</ele><time>2026-08-18T12:11:29Z</time></trkpt><trkpt lat="59.3296691403" lon="34.6239816304"><ele>170.03</ele><time>2026-08-18T12:11:33Z</time></trkpt><trkpt lat="59.3297254667" lon="34.6238649543"><ele>169.97</ele><time>2026-08-18T12:11:40Z</time></trkpt><trkpt lat="59.3298646901" lon="34.6235916205"><ele>170.60</ele><time>2026-08-18T12:11:57Z</time></trkpt><trkpt lat="59.3299615849" lon="34.6234942228"><ele>170.87</ele><time>2026-08-18T12:12:08Z</time></trkpt><trkpt lat="59.3301107828" lon="34.6233275905"><ele>172.08</ele><time>2026-08-18T12:12:23Z</time></trkpt><trkpt lat="59.3302711286" lon="34.6232108306"><ele>172.46</ele><time>2026-08-18T12:12:36Z</time></trkpt><trkpt lat="59.3304286245" lon="34.6230085753"><ele>171.88</ele><time>2026-08-18T12:12:52Z</time></trkpt><trkpt lat="59.3304881360" lon="34.6228163783"><ele>172.44</ele><time>2026-08-18T12:13:01Z</time></trkpt><trkpt lat="59.3306076620" lon="34.6224076767"><ele>172.71</ele><time>2026-08-18T12:13:20Z</time></trkpt><trkpt lat="59.3306865357" lon="34.6221344266"><ele>173.03</ele><time>2026-08-18T12:13:35Z</time></trkpt><trkpt lat="59.3306970969" lon="34.6220927685"><ele>173.22</ele><time>2026-08-18T12:13:37Z</time></trkpt><trkpt lat="59.3307131901" lon="34.6220160741"><ele>173.22</ele><time>2026-08-18T12:13:41Z</time></trkpt><trkpt lat="59.3307949975" lon="34.6218392998"><ele>172.94</ele><time>2026-08-18T12:14:00Z</time></trkpt><trkpt lat="59.3308473844" lon="34.6217664611"><ele>173.23</ele><time>2026-08-18T12:14:21Z</time></trkpt><trkpt lat="59.3308631424" lon="34.6217071172"><ele>173.31</ele><time>2026-08-18T12:14:42Z</time></trkpt><trkpt lat="59.3309024535" lon="34.6215562429"><ele>173.42</ele><time>2026-08-18T12:14:51Z</time></trkpt><trkpt lat="59.3310219795" lon="34.6212106571"><ele>174.17</ele><time>2026-08-18T12:15:07Z</time></trkpt><trkpt lat="59.3310231529" lon="34.6211938933"><ele>174.17</ele><time>2026-08-18T12:15:08Z</time></trkpt><trkpt lat="59.3310423475" lon="34.6211179532"><ele>174.49</ele><time>2026-08-18T12:15:13Z</time></trkpt><trkpt lat="59.3311477918" lon="34.6208444517"><ele>174.07</ele><time>2026-08-18T12:15:27Z</time></trkpt><trkpt lat="59.3311951496" lon="34.6206544340"><ele>173.90</ele><time>2026-08-18T12:15:37Z</time></trkpt><trkpt lat="59.3312334549" lon="34.6205088403"><ele>173.67</ele><time>2026-08-18T12:15:44Z</time></trkpt><trkpt lat="59.3313024379" lon="34.6201988775"><ele>174.40</ele><time>2026-08-18T12:15:59Z</time></trkpt><trkpt lat="59.3314040266" lon="34.6198589914"><ele>174.07</ele><time>2026-08-18T12:16:16Z</time></trkpt><trkpt lat="59.3315302581" lon="34.6196669620"><ele>174.13</ele><time>2026-08-18T12:16:31Z</time></trkpt><trkpt lat="59.3315728381" lon="34.6196035948"><ele>173.69</ele><time>2026-08-18T12:16:35Z</time></trkpt><trkpt lat="59.3317325972" lon="34.6194145828"><ele>173.38</ele><time>2026-08-18T12:16:52Z</time></trkpt><trkpt lat="59.3318825494" lon="34.6192104835"><ele>173.05</ele><time>2026-08-18T12:17:07Z</time></trkpt><trkpt lat="59.3319517840" lon="34.6191470325"><ele>172.51</ele><time>2026-08-18T12:17:13Z</time></trkpt><trkpt lat="59.3320625927" lon="34.6189437713"><ele>172.87</ele><time>2026-08-18T12:17:26Z</time></trkpt><trkpt lat="59.3321724795" lon="34.6187271830"><ele>172.23</ele><time>2026-08-18T12:17:40Z</time></trkpt><trkpt lat="59.3322319910" lon="34.6185899712"><ele>172.61</ele><time>2026-08-18T12:17:48Z</time></trkpt><trkpt lat="59.3323094398" lon="34.6183517575"><ele>172.72</ele><time>2026-08-18T12:18:03Z</time></trkpt><trkpt lat="59.3323795963" lon="34.6181903221"><ele>172.45</ele><time>2026-08-18T12:18:12Z</time></trkpt><trkpt lat="59.3324810173" lon="34.6179319918"><ele>172.29</ele><time>2026-08-18T12:18:26Z</time></trkpt><trkpt lat="59.3325422890" lon="34.6178082749"><ele>172.09</ele><time>2026-08-18T12:18:34Z</time></trkpt><trkpt lat="59.3325876351" lon="34.6176996455"><ele>171.82</ele><time>2026-08-18T12:18:41Z</time></trkpt><trkpt lat="59.3327155430" lon="34.6174622700"><ele>172.20</ele><time>2026-08-18T12:18:57Z</time></trkpt><trkpt lat="59.3327943329" lon="34.6172378864"><ele>171.91</ele><time>2026-08-18T12:19:11Z</time></trkpt><trkpt lat="59.3328444567" lon="34.6171588451"><ele>172.40</ele><time>2026-08-18T12:19:16Z</time></trkpt><trkpt lat="59.3328923173" lon="34.6170387324"><ele>173.48</ele><time>2026-08-18T12:19:31Z</time></trkpt><trkpt lat="59.3329374958" lon="34.6168229822"><ele>172.79</ele><time>2026-08-18T12:19:42Z</time></trkpt><trkpt lat="59.3329771422" lon="34.6164704394"><ele>173.12</ele><time>2026-08-18T12:19:59Z</time></trkpt><trkpt lat="59.3330302835" lon="34.6162240952"><ele>172.53</ele><time>2026-08-18T12:20:09Z</time></trkpt><trkpt lat="59.3330861907" lon="34.6159078460"><ele>172.07</ele><time>2026-08-18T12:20:24Z</time></trkpt><trkpt lat="59.3331752904" lon="34.6158001386"><ele>172.03</ele><time>2026-08-18T12:20:38Z</time></trkpt><trkpt lat="59.3332056329" lon="34.6158687863"><ele>172.15</ele><time>2026-08-18T12:21:01Z</time></trkpt><trkpt lat="59.3331956584" lon="34.6158789285"><ele>172.17</ele><time>2026-08-18T12:22:16Z</time></trkpt><trkpt lat="59.3331530783" lon="34.6158137172"><ele>171.75</ele><time>2026-08-18T12:23:20Z</time></trkpt><trkpt lat="59.3331458699" lon="34.6158015635"><ele>171.75</ele><time>2026-08-18T12:23:21Z</time></trkpt><trkpt lat="59.3331399187" lon="34.6156672854"><ele>171.90</ele><time>2026-08-18T12:23:27Z</time></trkpt><trkpt lat="59.3331414275" lon="34.6155621763"><ele>170.90</ele><time>2026-08-18T12:23:44Z</time></trkpt><trkpt lat="59.3331436906" lon="34.6155560575"><ele>170.80</ele><time>2026-08-18T12:23:56Z</time></trkpt><trkpt lat="59.3331724405" lon="34.6154882479"><ele>169.96</ele><time>2026-08-18T12:28:25Z</time></trkpt><trkpt lat="59.3331293575" lon="34.6155984700"><ele>169.35</ele><time>2026-08-18T12:28:42Z</time></trkpt><trkpt lat="59.3330470473" lon="34.6156729851"><ele>169.39</ele><time>2026-08-18T12:29:00Z</time></trkpt><trkpt lat="59.3330838438" lon="34.6156013198"><ele>169.53</ele><time>2026-08-18T12:29:18Z</time></trkpt><trkpt lat="59.3331475463" lon="34.6155105438"><ele>171.41</ele><time>2026-08-18T12:29:34Z</time></trkpt><trkpt lat="59.3332084827" lon="34.6153194364"><ele>170.45</ele><time>2026-08-18T12:29:45Z</time></trkpt><trkpt lat="59.3332152721" lon="34.6153045166"><ele>170.18</ele><time>2026-08-18T12:29:46Z</time></trkpt><trkpt lat="59.3332199659" lon="34.6151277423"><ele>170.27</ele><time>2026-08-18T12:29:57Z</time></trkpt><trkpt lat="59.3331783917" lon="34.6149160992"><ele>169.73</ele><time>2026-08-18T12:30:10Z</time></trkpt><trkpt lat="59.3332150206" lon="34.6147678234"><ele>169.73</ele><time>2026-08-18T12:30:20Z</time></trkpt><trkpt lat="59.3332116678" lon="34.6145265922"><ele>169.79</ele><time>2026-08-18T12:30:32Z</time></trkpt><trkpt lat="59.3332545832" lon="34.6142898872"><ele>170.21</ele><time>2026-08-18T12:30:47Z</time></trkpt><trkpt lat="59.3332800642" lon="34.6140334848"><ele>170.54</ele><time>2026-08-18T12:30:59Z</time></trkpt><trkpt lat="59.3332876917" lon="34.6137915831"><ele>170.86</ele><time>2026-08-18T12:31:11Z</time></trkpt><trkpt lat="59.3332775496" lon="34.6135985479"><ele>171.28</ele><time>2026-08-18T12:31:22Z</time></trkpt><trkpt lat="59.3332738616" lon="34.6133316681"><ele>171.27</ele><time>2026-08-18T12:31:33Z</time></trkpt><trkpt lat="59.3332612887" lon="34.6130710747"><ele>171.34</ele><time>2026-08-18T12:31:46Z</time></trkpt><trkpt lat="59.3332501408" lon="34.6130271535"><ele>171.33</ele><time>2026-08-18T12:31:48Z</time></trkpt><trkpt lat="59.3332377356" lon="34.6128146723"><ele>171.64</ele><time>2026-08-18T12:31:59Z</time></trkpt><trkpt lat="59.3332440220" lon="34.6127109881"><ele>171.69</ele><time>2026-08-18T12:32:13Z</time></trkpt><trkpt lat="59.3332662340" lon="34.6126657259"><ele>171.61</ele><time>2026-08-18T12:32:18Z</time></trkpt><trkpt lat="59.3332905415" lon="34.6123835910"><ele>171.72</ele><time>2026-08-18T12:32:30Z</time></trkpt><trkpt lat="59.3332983367" lon="34.6122396737"><ele>173.83</ele><time>2026-08-18T12:32:37Z</time></trkpt><trkpt lat="59.3333064672" lon="34.6121709421"><ele>173.84</ele><time>2026-08-18T12:32:40Z</time></trkpt><trkpt lat="59.3333254941" lon="34.6119716205"><ele>173.87</ele><time>2026-08-18T12:32:50Z</time></trkpt><trkpt lat="59.3333339598" lon="34.6119090915"><ele>171.84</ele><time>2026-08-18T12:32:53Z</time></trkpt><trkpt lat="59.3333481252" lon="34.6118502505"><ele>171.35</ele><time>2026-08-18T12:32:56Z</time></trkpt><trkpt lat="59.3333987519" lon="34.6117827762"><ele>171.50</ele><time>2026-08-18T12:33:01Z</time></trkpt><trkpt lat="59.3334219698" lon="34.6117430460"><ele>171.10</ele><time>2026-08-18T12:33:04Z</time></trkpt><trkpt lat="59.3335047830" lon="34.6116412897"><ele>170.87</ele><time>2026-08-18T12:33:16Z</time></trkpt><trkpt lat="59.3335120752" lon="34.6116721351"><ele>170.95</ele><time>2026-08-18T12:33:39Z</time></trkpt><trkpt lat="59.3335165177" lon="34.6116493363"><ele>170.84</ele><time>2026-08-18T12:33:42Z</time></trkpt><trkpt lat="59.3335939664" lon="34.6114681195"><ele>170.93</ele><time>2026-08-18T12:33:55Z</time></trkpt><trkpt lat="59.3336353730" lon="34.6112508606"><ele>171.07</ele><time>2026-08-18T12:34:07Z</time></trkpt><trkpt lat="59.3336941302" lon="34.6110977232"><ele>171.30</ele><time>2026-08-18T12:34:18Z</time></trkpt><trkpt lat="59.3337575812" lon="34.6109083761"><ele>172.64</ele><time>2026-08-18T12:34:29Z</time></trkpt><trkpt lat="59.3338453397" lon="34.6106633730"><ele>173.84</ele><time>2026-08-18T12:34:44Z</time></trkpt><trkpt lat="59.3338592537" lon="34.6106312703"><ele>173.81</ele><time>2026-08-18T12:34:59Z</time></trkpt><trkpt lat="59.3338948768" lon="34.6106168535"><ele>173.73</ele><time>2026-08-18T12:35:02Z</time></trkpt><trkpt lat="59.3339584954" lon="34.6105211321"><ele>173.61</ele><time>2026-08-18T12:35:09Z</time></trkpt><trkpt lat="59.3340434879" lon="34.6103076451"><ele>173.12</ele><time>2026-08-18T12:35:24Z</time></trkpt><trkpt lat="59.3340522889" lon="34.6102963295"><ele>173.15</ele><time>2026-08-18T12:35:25Z</time></trkpt><trkpt lat="59.3340785243" lon="34.6102419309"><ele>173.16</ele><time>2026-08-18T12:35:28Z</time></trkpt><trkpt lat="59.3342130538" lon="34.6100155357"><ele>174.70</ele><time>2026-08-18T12:35:44Z</time></trkpt><trkpt lat="59.3342508562" lon="34.6099661663"><ele>173.62</ele><time>2026-08-18T12:35:48Z</time></trkpt><trkpt lat="59.3343428895" lon="34.6097589657"><ele>173.61</ele><time>2026-08-18T12:36:01Z</time></trkpt><trkpt lat="59.3344252836" lon="34.6094460692"><ele>174.43</ele><time>2026-08-18T12:36:17Z</time></trkpt><trkpt lat="59.3344507646" lon="34.6092898306"><ele>174.24</ele><time>2026-08-18T12:36:24Z</time></trkpt><trkpt lat="59.3344740663" lon="34.6090554725"><ele>174.02</ele><time>2026-08-18T12:36:36Z</time></trkpt><trkpt lat="59.3345222622" lon="34.6087379660"><ele>174.96</ele><time>2026-08-18T12:36:51Z</time></trkpt><trkpt lat="59.3345463183" lon="34.6084599383"><ele>174.68</ele><time>2026-08-18T12:37:06Z</time></trkpt><trkpt lat="59.3345523532" lon="34.6082052961"><ele>174.97</ele><time>2026-08-18T12:37:19Z</time></trkpt><trkpt lat="59.3345738947" lon="34.6079437807"><ele>175.93</ele><time>2026-08-18T12:37:34Z</time></trkpt><trkpt lat="59.3345718831" lon="34.6077565290"><ele>175.81</ele><time>2026-08-18T12:37:49Z</time></trkpt><trkpt lat="59.3345825281" lon="34.6076936647"><ele>175.82</ele><time>2026-08-18T12:38:07Z</time></trkpt><trkpt lat="59.3345897365" lon="34.6076314710"><ele>175.97</ele><time>2026-08-18T12:38:10Z</time></trkpt><trkpt lat="59.3346748967" lon="34.6073774993"><ele>176.21</ele><time>2026-08-18T12:38:25Z</time></trkpt><trkpt lat="59.3347595539" lon="34.6072580572"><ele>177.07</ele><time>2026-08-18T12:38:33Z</time></trkpt><trkpt lat="59.3348030560" lon="34.6072243620"><ele>176.16</ele><time>2026-08-18T12:38:37Z</time></trkpt><trkpt lat="59.3348338176" lon="34.6071934327"><ele>177.57</ele><time>2026-08-18T12:38:40Z</time></trkpt><trkpt lat="59.3349471409" lon="34.6070595738"><ele>177.37</ele><time>2026-08-18T12:38:52Z</time></trkpt><trkpt lat="59.3350396771" lon="34.6069800295"><ele>177.60</ele><time>2026-08-18T12:39:00Z</time></trkpt><trkpt lat="59.3351260945" lon="34.6068378724"><ele>177.20</ele><time>2026-08-18T12:39:11Z</time></trkpt><trkpt lat="59.3351415172" lon="34.6068018302"><ele>177.66</ele><time>2026-08-18T12:39:13Z</time></trkpt><trkpt lat="59.3352055550" lon="34.6066159196"><ele>177.54</ele><time>2026-08-18T12:39:23Z</time></trkpt><trkpt lat="59.3352607917" lon="34.6064794622"><ele>177.34</ele><time>2026-08-18T12:39:31Z</time></trkpt><trkpt lat="59.3353576865" lon="34.6062541567"><ele>176.42</ele><time>2026-08-18T12:39:45Z</time></trkpt><trkpt lat="59.3354046252" lon="34.6061268356"><ele>175.58</ele><time>2026-08-18T12:39:52Z</time></trkpt><trkpt lat="59.3354794756" lon="34.6059081517"><ele>174.66</ele><time>2026-08-18T12:40:04Z</time></trkpt><trkpt lat="59.3355722632" lon="34.6056391764"><ele>173.87</ele><time>2026-08-18T12:40:17Z</time></trkpt><trkpt lat="59.3356774561" lon="34.6053466480"><ele>173.50</ele><time>2026-08-18T12:40:34Z</time></trkpt><trkpt lat="59.3357968982" lon="34.6050834563"><ele>173.27</ele><time>2026-08-18T12:40:49Z</time></trkpt><trkpt lat="59.3359193578" lon="34.6048142295"><ele>173.14</ele><time>2026-08-18T12:41:06Z</time></trkpt><trkpt lat="59.3359982315" lon="34.6046029218"><ele>172.99</ele><time>2026-08-18T12:41:18Z</time></trkpt><trkpt lat="59.3360422365" lon="34.6043886803"><ele>173.20</ele><time>2026-08-18T12:41:29Z</time></trkpt><trkpt lat="59.3360999878" lon="34.6042801347"><ele>173.55</ele><time>2026-08-18T12:41:37Z</time></trkpt><trkpt lat="59.3361206912" lon="34.6041879337"><ele>173.86</ele><time>2026-08-18T12:41:42Z</time></trkpt><trkpt lat="59.3361525424" lon="34.6039846726"><ele>174.61</ele><time>2026-08-18T12:41:53Z</time></trkpt><trkpt lat="59.3361882493" lon="34.6038700920"><ele>175.06</ele><time>2026-08-18T12:41:59Z</time></trkpt><trkpt lat="59.3362670392" lon="34.6035302896"><ele>175.06</ele><time>2026-08-18T12:42:16Z</time></trkpt><trkpt lat="59.3362740800" lon="34.6034843568"><ele>175.05</ele><time>2026-08-18T12:42:18Z</time></trkpt><trkpt lat="59.3363018241" lon="34.6034217440"><ele>174.96</ele><time>2026-08-18T12:42:23Z</time></trkpt><trkpt lat="59.3363662809" lon="34.6032439638"><ele>174.97</ele><time>2026-08-18T12:42:36Z</time></trkpt><trkpt lat="59.3363818713" lon="34.6032146271"><ele>174.72</ele><time>2026-08-18T12:42:38Z</time></trkpt><trkpt lat="59.3364627566" lon="34.6030938439"><ele>174.80</ele><time>2026-08-18T12:42:47Z</time></trkpt><trkpt lat="59.3365659378" lon="34.6029255353"><ele>174.44</ele><time>2026-08-18T12:43:01Z</time></trkpt><trkpt lat="59.3366735615" lon="34.6027417202"><ele>174.91</ele><time>2026-08-18T12:43:16Z</time></trkpt><trkpt lat="59.3367812689" lon="34.6027345955"><ele>175.02</ele><time>2026-08-18T12:43:29Z</time></trkpt><trkpt lat="59.3369041476" lon="34.6026757546"><ele>175.80</ele><time>2026-08-18T12:43:42Z</time></trkpt><trkpt lat="59.3370813411" lon="34.6026797779"><ele>175.51</ele><time>2026-08-18T12:43:58Z</time></trkpt><trkpt lat="59.3373181298" lon="34.6025925223"><ele>175.25</ele><time>2026-08-18T12:44:16Z</time></trkpt><trkpt lat="59.3374552578" lon="34.6026069392"><ele>174.36</ele><time>2026-08-18T12:44:33Z</time></trkpt><trkpt lat="59.3376120832" lon="34.6025432367"><ele>174.13</ele><time>2026-08-18T12:44:47Z</time></trkpt><trkpt lat="59.3377644662" lon="34.6024714038"><ele>173.59</ele><time>2026-08-18T12:45:01Z</time></trkpt><trkpt lat="59.3379060365" lon="34.6023479383"><ele>174.53</ele><time>2026-08-18T12:45:14Z</time></trkpt><trkpt lat="59.3380750995" lon="34.6021774504"><ele>174.68</ele><time>2026-08-18T12:45:29Z</time></trkpt><trkpt lat="59.3381797895" lon="34.6020090580"><ele>174.53</ele><time>2026-08-18T12:45:44Z</time></trkpt><trkpt lat="59.3383372854" lon="34.6018453594"><ele>174.26</ele><time>2026-08-18T12:45:59Z</time></trkpt><trkpt lat="59.3385014869" lon="34.6016800683"><ele>174.33</ele><time>2026-08-18T12:46:15Z</time></trkpt><trkpt lat="59.3386727292" lon="34.6015272662"><ele>174.86</ele><time>2026-08-18T12:46:31Z</time></trkpt><trkpt lat="59.3388128746" lon="34.6012984402"><ele>176.25</ele><time>2026-08-18T12:46:48Z</time></trkpt><trkpt lat="59.3389045727" lon="34.6011214983"><ele>176.48</ele><time>2026-08-18T12:47:00Z</time></trkpt><trkpt lat="59.3389364239" lon="34.6010965202"><ele>176.38</ele><time>2026-08-18T12:47:03Z</time></trkpt><trkpt lat="59.3390158843" lon="34.6010388527"><ele>176.09</ele><time>2026-08-18T12:47:10Z</time></trkpt><trkpt lat="59.3391295429" lon="34.6009231824"><ele>175.74</ele><time>2026-08-18T12:47:21Z</time></trkpt><trkpt lat="59.3392714486" lon="34.6007100306"><ele>174.99</ele><time>2026-08-18T12:47:37Z</time></trkpt><trkpt lat="59.3392872903" lon="34.6006878186"><ele>175.20</ele><time>2026-08-18T12:47:39Z</time></trkpt><trkpt lat="59.3393289484" lon="34.6006458253"><ele>175.10</ele><time>2026-08-18T12:47:43Z</time></trkpt><trkpt lat="59.3393571954" lon="34.6006183326"><ele>175.12</ele><time>2026-08-18T12:47:46Z</time></trkpt><trkpt lat="59.3394644838" lon="34.6004151553"><ele>174.63</ele><time>2026-08-18T12:48:00Z</time></trkpt><trkpt lat="59.3396587763" lon="34.6001901850"><ele>173.99</ele><time>2026-08-18T12:48:19Z</time></trkpt><trkpt lat="59.3396652304" lon="34.6001850720"><ele>174.02</ele><time>2026-08-18T12:48:20Z</time></trkpt><trkpt lat="59.3398236483" lon="34.6000419930"><ele>174.00</ele><time>2026-08-18T12:48:34Z</time></trkpt><trkpt lat="59.3399403244" lon="34.5998975728"><ele>173.48</ele><time>2026-08-18T12:48:47Z</time></trkpt><trkpt lat="59.3400012609" lon="34.5998190343"><ele>173.60</ele><time>2026-08-18T12:48:53Z</time></trkpt><trkpt lat="59.3401262350" lon="34.5997006819"><ele>173.52</ele><time>2026-08-18T12:49:05Z</time></trkpt><trkpt lat="59.3402630277" lon="34.5995897893"><ele>173.42</ele><time>2026-08-18T12:49:19Z</time></trkpt><trkpt lat="59.3404039275" lon="34.5994791482"><ele>173.61</ele><time>2026-08-18T12:49:34Z</time></trkpt><trkpt lat="59.3405724876" lon="34.5993601251"><ele>173.73</ele><time>2026-08-18T12:49:49Z</time></trkpt><trkpt lat="59.3407191709" lon="34.5992714446"><ele>173.40</ele><time>2026-08-18T12:50:02Z</time></trkpt><trkpt lat="59.3408687878" lon="34.5991618931"><ele>173.67</ele><time>2026-08-18T12:50:16Z</time></trkpt><trkpt lat="59.3409940973" lon="34.5990128629"><ele>173.58</ele><time>2026-08-18T12:50:32Z</time></trkpt><trkpt lat="59.3411777448" lon="34.5989259426"><ele>173.40</ele><time>2026-08-18T12:50:49Z</time></trkpt><trkpt lat="59.3413842749" lon="34.5989108551"><ele>172.97</ele><time>2026-08-18T12:51:07Z</time></trkpt><trkpt lat="59.3415517453" lon="34.5988543611"><ele>173.04</ele><time>2026-08-18T12:51:23Z</time></trkpt><trkpt lat="59.3417621311" lon="34.5987512637"><ele>172.36</ele><time>2026-08-18T12:51:41Z</time></trkpt><trkpt lat="59.3418143503" lon="34.5987079293"><ele>172.36</ele><time>2026-08-18T12:51:45Z</time></trkpt><trkpt lat="59.3418539967" lon="34.5986720547"><ele>173.31</ele><time>2026-08-18T12:51:49Z</time></trkpt><trkpt lat="59.3418885302" lon="34.5986198355"><ele>173.06</ele><time>2026-08-18T12:52:07Z</time></trkpt><trkpt lat="59.3419014383" lon="34.5986240264"><ele>173.08</ele><time>2026-08-18T12:52:37Z</time></trkpt><trkpt lat="59.3419744447" lon="34.5984463301"><ele>172.93</ele><time>2026-08-18T12:52:52Z</time></trkpt><trkpt lat="59.3420672324" lon="34.5983036701"><ele>172.45</ele><time>2026-08-18T12:53:06Z</time></trkpt><trkpt lat="59.3421027716" lon="34.5983669534"><ele>173.23</ele><time>2026-08-18T12:53:17Z</time></trkpt><trkpt lat="59.3421207927" lon="34.5983523689"><ele>173.10</ele><time>2026-08-18T12:54:02Z</time></trkpt><trkpt lat="59.3421256542" lon="34.5983693842"><ele>172.70</ele><time>2026-08-18T12:55:19Z</time></trkpt><trkpt lat="59.3421418313" lon="34.5982826315"><ele>172.64</ele><time>2026-08-18T12:55:26Z</time></trkpt><trkpt lat="59.3422372174" lon="34.5980877522"><ele>172.39</ele><time>2026-08-18T12:55:38Z</time></trkpt><trkpt lat="59.3423152529" lon="34.5979463495"><ele>172.05</ele><time>2026-08-18T12:55:48Z</time></trkpt><trkpt lat="59.3423757702" lon="34.5978533942"><ele>172.42</ele><time>2026-08-18T12:55:54Z</time></trkpt><trkpt lat="59.3424608465" lon="34.5976080559"><ele>173.70</ele><time>2026-08-18T12:56:09Z</time></trkpt><trkpt lat="59.3425118923" lon="34.5975122508"><ele>173.75</ele><time>2026-08-18T12:56:15Z</time></trkpt><trkpt lat="59.3425639439" lon="34.5974396635"><ele>174.20</ele><time>2026-08-18T12:56:21Z</time></trkpt><trkpt lat="59.3426953722" lon="34.5972476341"><ele>172.63</ele><time>2026-08-18T12:56:35Z</time></trkpt><trkpt lat="59.3427326716" lon="34.5972106699"><ele>172.65</ele><time>2026-08-18T12:56:39Z</time></trkpt><trkpt lat="59.3427515309" lon="34.5971810818"><ele>174.22</ele><time>2026-08-18T12:56:41Z</time></trkpt><trkpt lat="59.3427732401" lon="34.5971465483"><ele>174.21</ele><time>2026-08-18T12:56:43Z</time></trkpt><trkpt lat="59.3428919278" lon="34.5969042275"><ele>173.13</ele><time>2026-08-18T12:57:00Z</time></trkpt><trkpt lat="59.3429784290" lon="34.5966418739"><ele>172.32</ele><time>2026-08-18T12:57:15Z</time></trkpt><trkpt lat="59.3430196680" lon="34.5963697974"><ele>173.23</ele><time>2026-08-18T12:57:28Z</time></trkpt><trkpt lat="59.3430428859" lon="34.5961361099"><ele>173.83</ele><time>2026-08-18T12:57:44Z</time></trkpt><trkpt lat="59.3430690374" lon="34.5957982354"><ele>174.23</ele><time>2026-08-18T12:57:59Z</time></trkpt><trkpt lat="59.3431297224" lon="34.5955284219"><ele>174.59</ele><time>2026-08-18T12:58:14Z</time></trkpt><trkpt lat="59.3431716319" lon="34.5951889548"><ele>174.72</ele><time>2026-08-18T12:58:29Z</time></trkpt><trkpt lat="59.3431745656" lon="34.5951769687"><ele>174.47</ele><time>2026-08-18T12:58:30Z</time></trkpt><trkpt lat="59.3431960233" lon="34.5950626396"><ele>175.83</ele><time>2026-08-18T12:58:36Z</time></trkpt><trkpt lat="59.3432305567" lon="34.5948811714"><ele>174.73</ele><time>2026-08-18T12:58:46Z</time></trkpt><trkpt lat="59.3432556186" lon="34.5944980346"><ele>174.60</ele><time>2026-08-18T12:59:03Z</time></trkpt><trkpt lat="59.3433148786" lon="34.5941600762"><ele>174.31</ele><time>2026-08-18T12:59:19Z</time></trkpt><trkpt lat="59.3433442991" lon="34.5938415639"><ele>173.38</ele><time>2026-08-18T12:59:35Z</time></trkpt><trkpt lat="59.3434058223" lon="34.5934159309"><ele>173.35</ele><time>2026-08-18T12:59:50Z</time></trkpt><trkpt lat="59.3434158806" lon="34.5933600236"><ele>172.94</ele><time>2026-08-18T12:59:53Z</time></trkpt><trkpt lat="59.3434416968" lon="34.5931645576"><ele>172.24</ele><time>2026-08-18T13:00:02Z</time></trkpt><trkpt lat="59.3434430379" lon="34.5930777211"><ele>172.35</ele><time>2026-08-18T13:00:06Z</time></trkpt><trkpt lat="59.3434294593" lon="34.5928709395"><ele>172.59</ele><time>2026-08-18T13:00:21Z</time></trkpt><trkpt lat="59.3434149586" lon="34.5928826742"><ele>171.48</ele><time>2026-08-18T13:00:50Z</time></trkpt><trkpt lat="59.3434264418" lon="34.5928700175"><ele>171.36</ele><time>2026-08-18T13:02:04Z</time></trkpt><trkpt lat="59.3434263580" lon="34.5928719454"><ele>171.14</ele><time>2026-08-18T13:03:37Z</time></trkpt><trkpt lat="59.3434280343" lon="34.5928739570"><ele>170.93</ele><time>2026-08-18T13:04:49Z</time></trkpt><trkpt lat="59.3434281182" lon="34.5928877871"><ele>170.69</ele><time>2026-08-18T13:06:14Z</time></trkpt><trkpt lat="59.3434292916" lon="34.5928964205"><ele>170.55</ele><time>2026-08-18T13:07:43Z</time></trkpt><trkpt lat="59.3434355780" lon="34.5928786509"><ele>171.15</ele><time>2026-08-18T13:09:11Z</time></trkpt><trkpt lat="59.3434262741" lon="34.5928721968"><ele>170.29</ele><time>2026-08-18T13:09:35Z</time></trkpt><trkpt lat="59.3434261903" lon="34.5928730350"><ele>170.29</ele><time>2026-08-18T13:09:36Z</time></trkpt><trkpt lat="59.3434238434" lon="34.5928782318"><ele>173.31</ele><time>2026-08-18T13:09:47Z</time></trkpt><trkpt lat="59.3434193172" lon="34.5928547624"><ele>172.07</ele><time>2026-08-18T13:09:49Z</time></trkpt><trkpt lat="59.3434006255" lon="34.5926817600"><ele>172.66</ele><time>2026-08-18T13:10:01Z</time></trkpt><trkpt lat="59.3434190657" lon="34.5927130245"><ele>172.57</ele><time>2026-08-18T13:10:03Z</time></trkpt><trkpt lat="59.3434346560" lon="34.5927596278"><ele>168.47</ele><time>2026-08-18T13:10:05Z</time></trkpt><trkpt lat="59.3434409425" lon="34.5927832648"><ele>168.45</ele><time>2026-08-18T13:10:06Z</time></trkpt><trkpt lat="59.3434568681" lon="34.5928065665"><ele>172.31</ele><time>2026-08-18T13:10:31Z</time></trkpt><trkpt lat="59.3434571195" lon="34.5928052254"><ele>172.09</ele><time>2026-08-18T13:10:32Z</time></trkpt><trkpt lat="59.3434473965" lon="34.5928038843"><ele>172.03</ele><time>2026-08-18T13:11:10Z</time></trkpt><trkpt lat="59.3434508331" lon="34.5928523317"><ele>171.62</ele><time>2026-08-18T13:11:30Z</time></trkpt><trkpt lat="59.3434435409" lon="34.5928538404"><ele>171.40</ele><time>2026-08-18T13:12:00Z</time></trkpt><trkpt lat="59.3434445467" lon="34.5928455424"><ele>171.42</ele><time>2026-08-18T13:12:35Z</time></trkpt><trkpt lat="59.3435197324" lon="34.5928169601"><ele>171.15</ele><time>2026-08-18T13:13:19Z</time></trkpt><trkpt lat="59.3435694370" lon="34.5927380864"><ele>170.73</ele><time>2026-08-18T13:13:35Z</time></trkpt><trkpt lat="59.3436349835" lon="34.5926351566"><ele>170.91</ele><time>2026-08-18T13:13:49Z</time></trkpt><trkpt lat="59.3436486460" lon="34.5926124416"><ele>167.69</ele><time>2026-08-18T13:13:51Z</time></trkpt><trkpt lat="59.3436784856" lon="34.5925485715"><ele>171.37</ele><time>2026-08-18T13:13:55Z</time></trkpt><trkpt lat="59.3436843529" lon="34.5925373398"><ele>171.20</ele><time>2026-08-18T13:13:56Z</time></trkpt><trkpt lat="59.3436902203" lon="34.5925295446"><ele>171.18</ele><time>2026-08-18T13:13:57Z</time></trkpt><trkpt lat="59.3437564373" lon="34.5924654230"><ele>171.45</ele><time>2026-08-18T13:14:04Z</time></trkpt><trkpt lat="59.3438117579" lon="34.5924431272"><ele>171.59</ele><time>2026-08-18T13:14:10Z</time></trkpt><trkpt lat="59.3439055514" lon="34.5923997927"><ele>171.78</ele><time>2026-08-18T13:14:29Z</time></trkpt><trkpt lat="59.3439149391" lon="34.5924082585"><ele>171.80</ele><time>2026-08-18T13:15:01Z</time></trkpt><trkpt lat="59.3439159449" lon="34.5924087614"><ele>170.18</ele><time>2026-08-18T13:15:09Z</time></trkpt><trkpt lat="59.3439263385" lon="34.5924135391"><ele>172.21</ele><time>2026-08-18T13:15:30Z</time></trkpt><trkpt lat="59.3439240754" lon="34.5924137905"><ele>171.76</ele><time>2026-08-18T13:16:07Z</time></trkpt><trkpt lat="59.3439247459" lon="34.5924077556"><ele>171.63</ele><time>2026-08-18T13:16:32Z</time></trkpt><trkpt lat="59.3440617900" lon="34.5925635751"><ele>171.91</ele><time>2026-08-18T13:16:47Z</time></trkpt><trkpt lat="59.3441998400" lon="34.5926940814"><ele>171.63</ele><time>2026-08-18T13:17:05Z</time></trkpt><trkpt lat="59.3442245666" lon="34.5927133597"><ele>170.94</ele><time>2026-08-18T13:17:07Z</time></trkpt><trkpt lat="59.3443754409" lon="34.5928275213"><ele>171.55</ele><time>2026-08-18T13:17:23Z</time></trkpt><trkpt lat="59.3444353715" lon="34.5928871166"><ele>171.70</ele><time>2026-08-18T13:17:43Z</time></trkpt><trkpt lat="59.3444353715" lon="34.5928948279"><ele>170.83</ele><time>2026-08-18T13:18:17Z</time></trkpt><trkpt lat="59.3444286659" lon="34.5928850211"><ele>172.04</ele><time>2026-08-18T13:18:39Z</time></trkpt><trkpt lat="59.3444290850" lon="34.5928853564"><ele>171.52</ele><time>2026-08-18T13:19:12Z</time></trkpt><trkpt lat="59.3445089646" lon="34.5929633919"><ele>172.05</ele><time>2026-08-18T13:19:48Z</time></trkpt><trkpt lat="59.3445260637" lon="34.5929771382"><ele>171.32</ele><time>2026-08-18T13:19:50Z</time></trkpt><trkpt lat="59.3445933703" lon="34.5931157749"><ele>173.44</ele><time>2026-08-18T13:20:04Z</time></trkpt><trkpt lat="59.3446601741" lon="34.5932230633"><ele>175.52</ele><time>2026-08-18T13:20:21Z</time></trkpt><trkpt lat="59.3447514530" lon="34.5932787191"><ele>173.84</ele><time>2026-08-18T13:20:36Z</time></trkpt><trkpt lat="59.3447640259" lon="34.5932969917"><ele>174.03</ele><time>2026-08-18T13:20:58Z</time></trkpt><trkpt lat="59.3447796162" lon="34.5932756178"><ele>173.96</ele><time>2026-08-18T13:21:43Z</time></trkpt><trkpt lat="59.3447781913" lon="34.5933038648"><ele>173.86</ele><time>2026-08-18T13:22:16Z</time></trkpt><trkpt lat="59.3447810411" lon="34.5933069661"><ele>174.01</ele><time>2026-08-18T13:22:52Z</time></trkpt><trkpt lat="59.3447776884" lon="34.5933173597"><ele>173.95</ele><time>2026-08-18T13:23:25Z</time></trkpt><trkpt lat="59.3447761796" lon="34.5933051221"><ele>173.59</ele><time>2026-08-18T13:24:01Z</time></trkpt><trkpt lat="59.3447464239" lon="34.5932675712"><ele>173.57</ele><time>2026-08-18T13:24:04Z</time></trkpt><trkpt lat="59.3446763512" lon="34.5931659825"><ele>173.17</ele><time>2026-08-18T13:24:18Z</time></trkpt><trkpt lat="59.3446526304" lon="34.5931006875"><ele>172.71</ele><time>2026-08-18T13:24:38Z</time></trkpt><trkpt lat="59.3446883373" lon="34.5929946564"><ele>173.39</ele><time>2026-08-18T13:24:55Z</time></trkpt><trkpt lat="59.3447546382" lon="34.5928162057"><ele>173.71</ele><time>2026-08-18T13:25:13Z</time></trkpt><trkpt lat="59.3447728269" lon="34.5926775690"><ele>173.90</ele><time>2026-08-18T13:25:26Z</time></trkpt><trkpt lat="59.3448064383" lon="34.5926243439"><ele>174.36</ele><time>2026-08-18T13:25:45Z</time></trkpt><trkpt lat="59.3448164966" lon="34.5926059876"><ele>174.27</ele><time>2026-08-18T13:25:50Z</time></trkpt><trkpt lat="59.3448425643" lon="34.5925372560"><ele>174.79</ele><time>2026-08-18T13:25:55Z</time></trkpt><trkpt lat="59.3448760919" lon="34.5924164727"><ele>175.16</ele><time>2026-08-18T13:26:03Z</time></trkpt><trkpt lat="59.3448927719" lon="34.5923781674"><ele>175.65</ele><time>2026-08-18T13:26:15Z</time></trkpt><trkpt lat="59.3448869884" lon="34.5923768263"><ele>175.10</ele><time>2026-08-18T13:26:54Z</time></trkpt><trkpt lat="59.3448871560" lon="34.5923776645"><ele>174.61</ele><time>2026-08-18T13:27:49Z</time></trkpt><trkpt lat="59.3448963761" lon="34.5923684444"><ele>174.68</ele><time>2026-08-18T13:28:32Z</time></trkpt><trkpt lat="59.3449599948" lon="34.5922190789"><ele>174.37</ele><time>2026-08-18T13:28:45Z</time></trkpt><trkpt lat="59.3449900858" lon="34.5920720603"><ele>173.94</ele><time>2026-08-18T13:28:57Z</time></trkpt><trkpt lat="59.3450392876" lon="34.5919763390"><ele>173.46</ele><time>2026-08-18T13:29:13Z</time></trkpt><trkpt lat="59.3450339232" lon="34.5919075236"><ele>174.80</ele><time>2026-08-18T13:29:19Z</time></trkpt><trkpt lat="59.3451207597" lon="34.5918278955"><ele>173.57</ele><time>2026-08-18T13:29:32Z</time></trkpt><trkpt lat="59.3451283872" lon="34.5917755924"><ele>173.40</ele><time>2026-08-18T13:29:47Z</time></trkpt><trkpt lat="59.3451278843" lon="34.5917789452"><ele>173.45</ele><time>2026-08-18T13:30:11Z</time></trkpt><trkpt lat="59.3451262917" lon="34.5917615946"><ele>173.17</ele><time>2026-08-18T13:30:49Z</time></trkpt><trkpt lat="59.3451216817" lon="34.5917759277"><ele>173.30</ele><time>2026-08-18T13:31:15Z</time></trkpt><trkpt lat="59.3451246992" lon="34.5917754248"><ele>173.13</ele><time>2026-08-18T13:32:04Z</time></trkpt><trkpt lat="59.3451463245" lon="34.5917425677"><ele>172.72</ele><time>2026-08-18T13:32:50Z</time></trkpt><trkpt lat="59.3452004716" lon="34.5916573238"><ele>172.14</ele><time>2026-08-18T13:33:02Z</time></trkpt><trkpt lat="59.3452173192" lon="34.5915029291"><ele>171.99</ele><time>2026-08-18T13:33:19Z</time></trkpt><trkpt lat="59.3452796806" lon="34.5913640410"><ele>171.83</ele><time>2026-08-18T13:33:49Z</time></trkpt><trkpt lat="59.3453619070" lon="34.5913514681"><ele>171.33</ele><time>2026-08-18T13:34:01Z</time></trkpt><trkpt lat="59.3453792576" lon="34.5913079660"><ele>169.64</ele><time>2026-08-18T13:34:09Z</time></trkpt><trkpt lat="59.3453787547" lon="34.5913018472"><ele>171.61</ele><time>2026-08-18T13:34:13Z</time></trkpt><trkpt lat="59.3454479892" lon="34.5913614426"><ele>171.27</ele><time>2026-08-18T13:34:27Z</time></trkpt><trkpt lat="59.3454901502" lon="34.5913256519"><ele>171.06</ele><time>2026-08-18T13:34:48Z</time></trkpt><trkpt lat="59.3455026392" lon="34.5912943874"><ele>170.94</ele><time>2026-08-18T13:35:39Z</time></trkpt><trkpt lat="59.3455063272" lon="34.5912912861"><ele>170.97</ele><time>2026-08-18T13:36:23Z</time></trkpt><trkpt lat="59.3454924971" lon="34.5913193654"><ele>171.09</ele><time>2026-08-18T13:36:51Z</time></trkpt><trkpt lat="59.3454819359" lon="34.5911751967"><ele>170.53</ele><time>2026-08-18T13:37:12Z</time></trkpt><trkpt lat="59.3455210794" lon="34.5910798945"><ele>170.62</ele><time>2026-08-18T13:37:43Z</time></trkpt><trkpt lat="59.3455292936" lon="34.5910752844"><ele>169.21</ele><time>2026-08-18T13:37:47Z</time></trkpt><trkpt lat="59.3455503322" lon="34.5910517313"><ele>171.15</ele><time>2026-08-18T13:37:52Z</time></trkpt><trkpt lat="59.3456261884" lon="34.5909616258"><ele>171.50</ele><time>2026-08-18T13:38:07Z</time></trkpt><trkpt lat="59.3457340635" lon="34.5908199716"><ele>170.76</ele><time>2026-08-18T13:38:22Z</time></trkpt><trkpt lat="59.3457610533" lon="34.5907809958"><ele>172.36</ele><time>2026-08-18T13:38:28Z</time></trkpt><trkpt lat="59.3458754662" lon="34.5907357335"><ele>170.23</ele><time>2026-08-18T13:38:41Z</time></trkpt><trkpt lat="59.3458827585" lon="34.5907350630"><ele>171.84</ele><time>2026-08-18T13:38:47Z</time></trkpt><trkpt lat="59.3458875362" lon="34.5907457918"><ele>170.99</ele><time>2026-08-18T13:39:17Z</time></trkpt><trkpt lat="59.3458834291" lon="34.5907331351"><ele>172.27</ele><time>2026-08-18T13:39:32Z</time></trkpt><trkpt lat="59.3458815850" lon="34.5907254238"><ele>173.70</ele><time>2026-08-18T13:39:38Z</time></trkpt><trkpt lat="59.3458804954" lon="34.5907233283"><ele>170.49</ele><time>2026-08-18T13:39:44Z</time></trkpt><trkpt lat="59.3458779808" lon="34.5907291956"><ele>171.66</ele><time>2026-08-18T13:39:58Z</time></trkpt><trkpt lat="59.3458800763" lon="34.5907230768"><ele>171.09</ele><time>2026-08-18T13:40:29Z</time></trkpt><trkpt lat="59.3458961695" lon="34.5906920638"><ele>171.16</ele><time>2026-08-18T13:41:18Z</time></trkpt><trkpt lat="59.3459308706" lon="34.5906918962"><ele>171.45</ele><time>2026-08-18T13:41:29Z</time></trkpt><trkpt lat="59.3460081518" lon="34.5906283613"><ele>170.58</ele><time>2026-08-18T13:41:45Z</time></trkpt><trkpt lat="59.3460689206" lon="34.5905445423"><ele>170.63</ele><time>2026-08-18T13:41:54Z</time></trkpt><trkpt lat="59.3461276777" lon="34.5905013755"><ele>171.10</ele><time>2026-08-18T13:42:08Z</time></trkpt><trkpt lat="59.3462004326" lon="34.5903887227"><ele>169.83</ele><time>2026-08-18T13:42:25Z</time></trkpt><trkpt lat="59.3462884426" lon="34.5902395248"><ele>171.21</ele><time>2026-08-18T13:42:37Z</time></trkpt><trkpt lat="59.3462999258" lon="34.5902318973"><ele>170.73</ele><time>2026-08-18T13:43:00Z</time></trkpt><trkpt lat="59.3463057932" lon="34.5902397763"><ele>170.72</ele><time>2026-08-18T13:44:02Z</time></trkpt><trkpt lat="59.3463065475" lon="34.5902371779"><ele>170.80</ele><time>2026-08-18T13:44:30Z</time></trkpt><trkpt lat="59.3463172764" lon="34.5902152173"><ele>170.51</ele><time>2026-08-18T13:44:57Z</time></trkpt><trkpt lat="59.3464085553" lon="34.5901521854"><ele>170.50</ele><time>2026-08-18T13:45:10Z</time></trkpt><trkpt lat="59.3464971520" lon="34.5901012234"><ele>169.88</ele><time>2026-08-18T13:45:26Z</time></trkpt><trkpt lat="59.3465442583" lon="34.5901008882"><ele>170.08</ele><time>2026-08-18T13:45:39Z</time></trkpt><trkpt lat="59.3465700746" lon="34.5900667738"><ele>170.23</ele><time>2026-08-18T13:45:51Z</time></trkpt><trkpt lat="59.3466472719" lon="34.5900093578"><ele>169.69</ele><time>2026-08-18T13:46:06Z</time></trkpt><trkpt lat="59.3467021734" lon="34.5899873972"><ele>169.42</ele><time>2026-08-18T13:46:14Z</time></trkpt><trkpt lat="59.3467597570" lon="34.5899824519"><ele>170.21</ele><time>2026-08-18T13:46:33Z</time></trkpt><trkpt lat="59.3467489444" lon="34.5899691246"><ele>169.30</ele><time>2026-08-18T13:47:06Z</time></trkpt><trkpt lat="59.3467483576" lon="34.5899712201"><ele>170.58</ele><time>2026-08-18T13:47:18Z</time></trkpt><trkpt lat="59.3467603438" lon="34.5899597369"><ele>170.12</ele><time>2026-08-18T13:48:00Z</time></trkpt><trkpt lat="59.3467805441" lon="34.5899572223"><ele>169.75</ele><time>2026-08-18T13:48:41Z</time></trkpt><trkpt lat="59.3468725774" lon="34.5899139717"><ele>170.93</ele><time>2026-08-18T13:48:59Z</time></trkpt><trkpt lat="59.3468708172" lon="34.5899471641"><ele>169.80</ele><time>2026-08-18T13:49:31Z</time></trkpt><trkpt lat="59.3468923587" lon="34.5899298973"><ele>170.26</ele><time>2026-08-18T13:50:33Z</time></trkpt><trkpt lat="59.3468913529" lon="34.5899257902"><ele>170.21</ele><time>2026-08-18T13:50:34Z</time></trkpt><trkpt lat="59.3468922749" lon="34.5898879878"><ele>170.76</ele><time>2026-08-18T13:50:47Z</time></trkpt><trkpt lat="59.3469633535" lon="34.5898724813"><ele>171.05</ele><time>2026-08-18T13:51:01Z</time></trkpt><trkpt lat="59.3470559735" lon="34.5898225252"><ele>170.79</ele><time>2026-08-18T13:51:15Z</time></trkpt><trkpt lat="59.3471353501" lon="34.5897685457"><ele>170.78</ele><time>2026-08-18T13:51:29Z</time></trkpt><trkpt lat="59.3471594900" lon="34.5897461660"><ele>169.53</ele><time>2026-08-18T13:51:37Z</time></trkpt><trkpt lat="59.3472029921" lon="34.5897476748"><ele>172.96</ele><time>2026-08-18T13:51:42Z</time></trkpt><trkpt lat="59.3472062610" lon="34.5897485130"><ele>171.92</ele><time>2026-08-18T13:51:43Z</time></trkpt><trkpt lat="59.3472280540" lon="34.5897602476"><ele>171.38</ele><time>2026-08-18T13:52:02Z</time></trkpt><trkpt lat="59.3472360168" lon="34.5897681266"><ele>171.22</ele><time>2026-08-18T13:52:44Z</time></trkpt><trkpt lat="59.3472589832" lon="34.5897607505"><ele>170.81</ele><time>2026-08-18T13:53:55Z</time></trkpt><trkpt lat="59.3473291397" lon="34.5897315815"><ele>169.17</ele><time>2026-08-18T13:54:08Z</time></trkpt><trkpt lat="59.3473455682" lon="34.5897884946"><ele>169.72</ele><time>2026-08-18T13:54:21Z</time></trkpt><trkpt lat="59.3474073429" lon="34.5896849781"><ele>169.14</ele><time>2026-08-18T13:54:35Z</time></trkpt><trkpt lat="59.3474380206" lon="34.5896641910"><ele>171.01</ele><time>2026-08-18T13:54:41Z</time></trkpt><trkpt lat="59.3475149665" lon="34.5895546395"><ele>172.05</ele><time>2026-08-18T13:54:54Z</time></trkpt><trkpt lat="59.3476268649" lon="34.5895110536"><ele>172.87</ele><time>2026-08-18T13:55:11Z</time></trkpt><trkpt lat="59.3476645835" lon="34.5894439984"><ele>173.36</ele><time>2026-08-18T13:55:23Z</time></trkpt><trkpt lat="59.3476872984" lon="34.5894415677"><ele>171.20</ele><time>2026-08-18T13:55:33Z</time></trkpt><trkpt lat="59.3477286212" lon="34.5894562360"><ele>173.38</ele><time>2026-08-18T13:56:05Z</time></trkpt><trkpt lat="59.3476862926" lon="34.5894637797"><ele>172.79</ele><time>2026-08-18T13:56:36Z</time></trkpt><trkpt lat="59.3477464747" lon="34.5894757658"><ele>172.49</ele><time>2026-08-18T13:57:18Z</time></trkpt><trkpt lat="59.3477907311" lon="34.5891899429"><ele>172.08</ele><time>2026-08-18T13:57:30Z</time></trkpt><trkpt lat="59.3478633184" lon="34.5889790542"><ele>170.59</ele><time>2026-08-18T13:57:46Z</time></trkpt><trkpt lat="59.3479024619" lon="34.5889136754"><ele>171.27</ele><time>2026-08-18T13:58:06Z</time></trkpt><trkpt lat="59.3479569443" lon="34.5890629571"><ele>170.95</ele><time>2026-08-18T13:58:40Z</time></trkpt><trkpt lat="59.3480613828" lon="34.5892389771"><ele>171.07</ele><time>2026-08-18T13:58:55Z</time></trkpt><trkpt lat="59.3481299467" lon="34.5893234666"><ele>171.92</ele><time>2026-08-18T13:59:33Z</time></trkpt><trkpt lat="59.3481354788" lon="34.5892759413"><ele>171.34</ele><time>2026-08-18T14:00:05Z</time></trkpt><trkpt lat="59.3481422681" lon="34.5892694872"><ele>171.25</ele><time>2026-08-18T14:00:57Z</time></trkpt><trkpt lat="59.3481583614" lon="34.5892127417"><ele>170.73</ele><time>2026-08-18T14:01:46Z</time></trkpt><trkpt lat="59.3481509853" lon="34.5890524797"><ele>171.07</ele><time>2026-08-18T14:02:00Z</time></trkpt><trkpt lat="59.3481607921" lon="34.5889825746"><ele>171.60</ele><time>2026-08-18T14:02:07Z</time></trkpt><trkpt lat="59.3482018635" lon="34.5887411758"><ele>170.30</ele><time>2026-08-18T14:02:20Z</time></trkpt><trkpt lat="59.3482160289" lon="34.5886423532"><ele>171.03</ele><time>2026-08-18T14:02:37Z</time></trkpt><trkpt lat="59.3482681643" lon="34.5885178819"><ele>171.77</ele><time>2026-08-18T14:02:59Z</time></trkpt><trkpt lat="59.3482647277" lon="34.5885014534"><ele>172.56</ele><time>2026-08-18T14:03:30Z</time></trkpt><trkpt lat="59.3482632190" lon="34.5885042194"><ele>171.87</ele><time>2026-08-18T14:03:32Z</time></trkpt><trkpt lat="59.3482802343" lon="34.5884981845"><ele>171.79</ele><time>2026-08-18T14:04:14Z</time></trkpt><trkpt lat="59.3483336270" lon="34.5885253418"><ele>171.88</ele><time>2026-08-18T14:05:04Z</time></trkpt><trkpt lat="59.3484261632" lon="34.5885619707"><ele>171.52</ele><time>2026-08-18T14:05:22Z</time></trkpt><trkpt lat="59.3485274166" lon="34.5886291936"><ele>169.79</ele><time>2026-08-18T14:05:33Z</time></trkpt><trkpt lat="59.3485700805" lon="34.5886576921"><ele>171.94</ele><time>2026-08-18T14:05:38Z</time></trkpt><trkpt lat="59.3486485351" lon="34.5887000207"><ele>170.29</ele><time>2026-08-18T14:05:52Z</time></trkpt><trkpt lat="59.3487115670" lon="34.5887203887"><ele>171.42</ele><time>2026-08-18T14:06:08Z</time></trkpt><trkpt lat="59.3487146683" lon="34.5887016971"><ele>170.43</ele><time>2026-08-18T14:06:31Z</time></trkpt><trkpt lat="59.3487153389" lon="34.5886931475"><ele>171.86</ele><time>2026-08-18T14:06:41Z</time></trkpt><trkpt lat="59.3487219606" lon="34.5886984281"><ele>171.37</ele><time>2026-08-18T14:07:31Z</time></trkpt><trkpt lat="59.3487604335" lon="34.5886244997"><ele>171.90</ele><time>2026-08-18T14:08:17Z</time></trkpt><trkpt lat="59.3488293327" lon="34.5886961650"><ele>173.03</ele><time>2026-08-18T14:08:34Z</time></trkpt><trkpt lat="59.3488853239" lon="34.5886788983"><ele>174.11</ele><time>2026-08-18T14:08:51Z</time></trkpt><trkpt lat="59.3490254693" lon="34.5887078997"><ele>174.49</ele><time>2026-08-18T14:09:08Z</time></trkpt><trkpt lat="59.3490914349" lon="34.5887030382"><ele>174.39</ele><time>2026-08-18T14:09:25Z</time></trkpt><trkpt lat="59.3491343502" lon="34.5886904653"><ele>172.51</ele><time>2026-08-18T14:09:39Z</time></trkpt><trkpt lat="59.3492024951" lon="34.5887240767"><ele>174.85</ele><time>2026-08-18T14:09:45Z</time></trkpt><trkpt lat="59.3492417224" lon="34.5887093246"><ele>167.88</ele><time>2026-08-18T14:10:07Z</time></trkpt><trkpt lat="59.3492417224" lon="34.5887080673"><ele>174.81</ele><time>2026-08-18T14:10:08Z</time></trkpt><trkpt lat="59.3492407165" lon="34.5887061395"><ele>177.07</ele><time>2026-08-18T14:10:10Z</time></trkpt><trkpt lat="59.3492540438" lon="34.5887524914"><ele>174.42</ele><time>2026-08-18T14:10:40Z</time></trkpt><trkpt lat="59.3492569774" lon="34.5886861905"><ele>174.23</ele><time>2026-08-18T14:11:24Z</time></trkpt><trkpt lat="59.3492658623" lon="34.5886972547"><ele>173.94</ele><time>2026-08-18T14:12:04Z</time></trkpt><trkpt lat="59.3492909241" lon="34.5886577759"><ele>173.89</ele><time>2026-08-18T14:12:18Z</time></trkpt><trkpt lat="59.3494259566" lon="34.5886624698"><ele>174.37</ele><time>2026-08-18T14:12:36Z</time></trkpt><trkpt lat="59.3494902458" lon="34.5886311214"><ele>173.59</ele><time>2026-08-18T14:12:56Z</time></trkpt><trkpt lat="59.3495272938" lon="34.5886512380"><ele>174.44</ele><time>2026-08-18T14:13:04Z</time></trkpt><trkpt lat="59.3496365100" lon="34.5886443648"><ele>174.12</ele><time>2026-08-18T14:13:22Z</time></trkpt><trkpt lat="59.3497807626" lon="34.5886531658"><ele>174.28</ele><time>2026-08-18T14:13:48Z</time></trkpt><trkpt lat="59.3497923296" lon="34.5886417665"><ele>175.13</ele><time>2026-08-18T14:13:54Z</time></trkpt><trkpt lat="59.3497672677" lon="34.5886254217"><ele>174.16</ele><time>2026-08-18T14:14:23Z</time></trkpt><trkpt lat="59.3497881386" lon="34.5886489749"><ele>174.27</ele><time>2026-08-18T14:14:52Z</time></trkpt><trkpt lat="59.3497964367" lon="34.5886418503"><ele>174.05</ele><time>2026-08-18T14:15:45Z</time></trkpt><trkpt lat="59.3498400226" lon="34.5884939935"><ele>174.65</ele><time>2026-08-18T14:15:58Z</time></trkpt><trkpt lat="59.3499390967" lon="34.5881843660"><ele>174.14</ele><time>2026-08-18T14:16:20Z</time></trkpt><trkpt lat="59.3500057328" lon="34.5880536921"><ele>173.34</ele><time>2026-08-18T14:16:34Z</time></trkpt><trkpt lat="59.3500819243" lon="34.5878957771"><ele>172.70</ele><time>2026-08-18T14:16:50Z</time></trkpt><trkpt lat="59.3501508236" lon="34.5878413785"><ele>172.83</ele><time>2026-08-18T14:17:11Z</time></trkpt><trkpt lat="59.3501464650" lon="34.5878306497"><ele>172.97</ele><time>2026-08-18T14:17:56Z</time></trkpt><trkpt lat="59.3501496501" lon="34.5878376905"><ele>172.93</ele><time>2026-08-18T14:18:29Z</time></trkpt><trkpt lat="59.3501678389" lon="34.5878033247"><ele>172.71</ele><time>2026-08-18T14:19:20Z</time></trkpt><trkpt lat="59.3502646498" lon="34.5876559708"><ele>173.38</ele><time>2026-08-18T14:19:34Z</time></trkpt><trkpt lat="59.3503321242" lon="34.5875272248"><ele>172.37</ele><time>2026-08-18T14:19:48Z</time></trkpt><trkpt lat="59.3503629696" lon="34.5875028335"><ele>172.93</ele><time>2026-08-18T14:20:09Z</time></trkpt><trkpt lat="59.3503538333" lon="34.5874989778"><ele>172.73</ele><time>2026-08-18T14:20:35Z</time></trkpt><trkpt lat="59.3503534980" lon="34.5874989778"><ele>166.38</ele><time>2026-08-18T14:20:36Z</time></trkpt><trkpt lat="59.3503532466" lon="34.5874985587"><ele>171.57</ele><time>2026-08-18T14:20:37Z</time></trkpt><trkpt lat="59.3503457867" lon="34.5874993969"><ele>174.05</ele><time>2026-08-18T14:20:58Z</time></trkpt><trkpt lat="59.3503398355" lon="34.5874970499"><ele>173.01</ele><time>2026-08-18T14:21:41Z</time></trkpt><trkpt lat="59.3503419310" lon="34.5874823816"><ele>173.06</ele><time>2026-08-18T14:22:44Z</time></trkpt><trkpt lat="59.3503314536" lon="34.5873377938"><ele>172.91</ele><time>2026-08-18T14:23:03Z</time></trkpt><trkpt lat="59.3503314536" lon="34.5871774480"><ele>173.01</ele><time>2026-08-18T14:23:13Z</time></trkpt><trkpt lat="59.3503090739" lon="34.5869752765"><ele>172.27</ele><time>2026-08-18T14:23:25Z</time></trkpt><trkpt lat="59.3503091577" lon="34.5869569201"><ele>173.59</ele><time>2026-08-18T14:23:28Z</time></trkpt><trkpt lat="59.3503102474" lon="34.5867819898"><ele>173.16</ele><time>2026-08-18T14:23:41Z</time></trkpt><trkpt lat="59.3502808269" lon="34.5866088197"><ele>173.61</ele><time>2026-08-18T14:23:56Z</time></trkpt><trkpt lat="59.3502675835" lon="34.5865252521"><ele>173.30</ele><time>2026-08-18T14:24:12Z</time></trkpt><trkpt lat="59.3502642307" lon="34.5865126792"><ele>173.27</ele><time>2026-08-18T14:24:50Z</time></trkpt><trkpt lat="59.3502692599" lon="34.5865130983"><ele>173.63</ele><time>2026-08-18T14:25:30Z</time></trkpt><trkpt lat="59.3502697628" lon="34.5865104999"><ele>173.59</ele><time>2026-08-18T14:26:19Z</time></trkpt><trkpt lat="59.3502731994" lon="34.5864780620"><ele>173.62</ele><time>2026-08-18T14:26:21Z</time></trkpt><trkpt lat="59.3502676673" lon="34.5862191450"><ele>172.41</ele><time>2026-08-18T14:26:33Z</time></trkpt><trkpt lat="59.3502682541" lon="34.5860976912"><ele>173.94</ele><time>2026-08-18T14:26:38Z</time></trkpt><trkpt lat="59.3502797373" lon="34.5859907381"><ele>173.95</ele><time>2026-08-18T14:26:49Z</time></trkpt><trkpt lat="59.3502698466" lon="34.5857872255"><ele>173.31</ele><time>2026-08-18T14:27:00Z</time></trkpt><trkpt lat="59.3502633926" lon="34.5856189169"><ele>173.39</ele><time>2026-08-18T14:27:14Z</time></trkpt><trkpt lat="59.3502719421" lon="34.5855773427"><ele>173.87</ele><time>2026-08-18T14:27:34Z</time></trkpt><trkpt lat="59.3502690922" lon="34.5855893288"><ele>173.66</ele><time>2026-08-18T14:28:21Z</time></trkpt><trkpt lat="59.3502596207" lon="34.5855771750"><ele>173.73</ele><time>2026-08-18T14:28:56Z</time></trkpt><trkpt lat="59.3502576929" lon="34.5855280571"><ele>173.98</ele><time>2026-08-18T14:29:39Z</time></trkpt><trkpt lat="59.3502485566" lon="34.5854283962"><ele>173.43</ele><time>2026-08-18T14:29:44Z</time></trkpt><trkpt lat="59.3502413481" lon="34.5851268154"><ele>174.01</ele><time>2026-08-18T14:29:59Z</time></trkpt><trkpt lat="59.3502315413" lon="34.5849556569"><ele>173.73</ele><time>2026-08-18T14:30:14Z</time></trkpt><trkpt lat="59.3502093293" lon="34.5847818162"><ele>173.35</ele><time>2026-08-18T14:30:27Z</time></trkpt><trkpt lat="59.3501878716" lon="34.5846277568"><ele>174.22</ele><time>2026-08-18T14:30:39Z</time></trkpt><trkpt lat="59.3501857761" lon="34.5846311934"><ele>172.36</ele><time>2026-08-18T14:31:04Z</time></trkpt><trkpt lat="59.3501884583" lon="34.5846360549"><ele>174.24</ele><time>2026-08-18T14:31:20Z</time></trkpt><trkpt lat="59.3501925655" lon="34.5846377313"><ele>173.58</ele><time>2026-08-18T14:32:03Z</time></trkpt><trkpt lat="59.3501934875" lon="34.5845458657"><ele>173.10</ele><time>2026-08-18T14:32:50Z</time></trkpt><trkpt lat="59.3502335530" lon="34.5843766350"><ele>173.90</ele><time>2026-08-18T14:33:07Z</time></trkpt><trkpt lat="59.3502352294" lon="34.5843760483"><ele>173.50</ele><time>2026-08-18T14:33:45Z</time></trkpt><trkpt lat="59.3501522485" lon="34.5843755454"><ele>173.52</ele><time>2026-08-18T14:33:53Z</time></trkpt><trkpt lat="59.3500383385" lon="34.5843969192"><ele>173.37</ele><time>2026-08-18T14:34:10Z</time></trkpt><trkpt lat="59.3500352371" lon="34.5843955781"><ele>173.15</ele><time>2026-08-18T14:34:11Z</time></trkpt><trkpt lat="59.3500093371" lon="34.5843841787"><ele>173.12</ele><time>2026-08-18T14:34:14Z</time></trkpt><trkpt lat="59.3499293737" lon="34.5844054688"><ele>172.83</ele><time>2026-08-18T14:34:31Z</time></trkpt><trkpt lat="59.3498194870" lon="34.5844483841"><ele>173.25</ele><time>2026-08-18T14:34:47Z</time></trkpt><trkpt lat="59.3498135358" lon="34.5844513178"><ele>172.20</ele><time>2026-08-18T14:35:11Z</time></trkpt><trkpt lat="59.3498132844" lon="34.5844593644"><ele>174.03</ele><time>2026-08-18T14:35:32Z</time></trkpt><trkpt lat="59.3498134520" lon="34.5844590291"><ele>173.19</ele><time>2026-08-18T14:35:34Z</time></trkpt><trkpt lat="59.3498137873" lon="34.5844530780"><ele>172.76</ele><time>2026-08-18T14:36:19Z</time></trkpt><trkpt lat="59.3498115242" lon="34.5844513178"><ele>172.64</ele><time>2026-08-18T14:37:26Z</time></trkpt><trkpt lat="59.3497945927" lon="34.5844363980"><ele>172.73</ele><time>2026-08-18T14:37:44Z</time></trkpt><trkpt lat="59.3497898988" lon="34.5844411757"><ele>172.94</ele><time>2026-08-18T14:38:11Z</time></trkpt><trkpt lat="59.3497926649" lon="34.5844392478"><ele>173.63</ele><time>2026-08-18T14:38:40Z</time></trkpt><trkpt lat="59.3497967720" lon="34.5844588615"><ele>171.62</ele><time>2026-08-18T14:39:21Z</time></trkpt><trkpt lat="59.3497926649" lon="34.5844388288"><ele>171.99</ele><time>2026-08-18T14:41:15Z</time></trkpt><trkpt lat="59.3497886416" lon="34.5844314527"><ele>173.02</ele><time>2026-08-18T14:41:38Z</time></trkpt><trkpt lat="59.3497885577" lon="34.5844465401"><ele>172.55</ele><time>2026-08-18T14:42:05Z</time></trkpt><trkpt lat="59.3497832771" lon="34.5844466239"><ele>172.67</ele><time>2026-08-18T14:42:06Z</time></trkpt><trkpt lat="59.3497522641" lon="34.5844609570"><ele>172.64</ele><time>2026-08-18T14:42:09Z</time></trkpt><trkpt lat="59.3496788386" lon="34.5844677463"><ele>172.96</ele><time>2026-08-18T14:42:24Z</time></trkpt><trkpt lat="59.3496272899" lon="34.5844504796"><ele>172.35</ele><time>2026-08-18T14:42:36Z</time></trkpt><trkpt lat="59.3495342508" lon="34.5843923930"><ele>172.40</ele><time>2026-08-18T14:42:51Z</time></trkpt><trkpt lat="59.3494924251" lon="34.5844174549"><ele>172.72</ele><time>2026-08-18T14:43:03Z</time></trkpt><trkpt lat="59.3494241964" lon="34.5844111685"><ele>173.17</ele><time>2026-08-18T14:43:17Z</time></trkpt><trkpt lat="59.3493408803" lon="34.5843634754"><ele>173.25</ele><time>2026-08-18T14:43:32Z</time></trkpt><trkpt lat="59.3493521959" lon="34.5843517408"><ele>173.13</ele><time>2026-08-18T14:43:59Z</time></trkpt><trkpt lat="59.3493527826" lon="34.5843609609"><ele>173.60</ele><time>2026-08-18T14:44:59Z</time></trkpt><trkpt lat="59.3492847215" lon="34.5843431912"><ele>174.12</ele><time>2026-08-18T14:45:53Z</time></trkpt><trkpt lat="59.3492086977" lon="34.5843631402"><ele>174.15</ele><time>2026-08-18T14:46:02Z</time></trkpt><trkpt lat="59.3491166644" lon="34.5842928998"><ele>174.08</ele><time>2026-08-18T14:46:14Z</time></trkpt><trkpt lat="59.3490360305" lon="34.5843472984"><ele>172.66</ele><time>2026-08-18T14:46:27Z</time></trkpt><trkpt lat="59.3489355315" lon="34.5844298601"><ele>174.02</ele><time>2026-08-18T14:46:41Z</time></trkpt><trkpt lat="59.3489239644" lon="34.5844183769"><ele>173.45</ele><time>2026-08-18T14:47:07Z</time></trkpt><trkpt lat="59.3489235453" lon="34.5844187960"><ele>173.95</ele><time>2026-08-18T14:48:01Z</time></trkpt><trkpt lat="59.3489357829" lon="34.5844179578"><ele>174.03</ele><time>2026-08-18T14:48:27Z</time></trkpt><trkpt lat="59.3489345256" lon="34.5844136830"><ele>173.88</ele><time>2026-08-18T14:48:58Z</time></trkpt><trkpt lat="59.3488433305" lon="34.5843933988"><ele>172.62</ele><time>2026-08-18T14:49:12Z</time></trkpt><trkpt lat="59.3487632833" lon="34.5843608771"><ele>172.04</ele><time>2026-08-18T14:49:28Z</time></trkpt><trkpt lat="59.3486752734" lon="34.5843302831"><ele>171.64</ele><time>2026-08-18T14:49:42Z</time></trkpt><trkpt lat="59.3486409914" lon="34.5843347255"><ele>171.45</ele><time>2026-08-18T14:49:51Z</time></trkpt><trkpt lat="59.3485648837" lon="34.5843597874"><ele>172.04</ele><time>2026-08-18T14:50:03Z</time></trkpt><trkpt lat="59.3484814838" lon="34.5843577757"><ele>172.45</ele><time>2026-08-18T14:50:16Z</time></trkpt><trkpt lat="59.3484695815" lon="34.5843438618"><ele>172.22</ele><time>2026-08-18T14:50:18Z</time></trkpt><trkpt lat="59.3484153505" lon="34.5843419340"><ele>172.16</ele><time>2026-08-18T14:50:36Z</time></trkpt><trkpt lat="59.3484161887" lon="34.5843390841"><ele>170.37</ele><time>2026-08-18T14:50:45Z</time></trkpt><trkpt lat="59.3484178651" lon="34.5843449514"><ele>172.35</ele><time>2026-08-18T14:51:05Z</time></trkpt><trkpt lat="59.3484202959" lon="34.5843382459"><ele>172.14</ele><time>2026-08-18T14:51:52Z</time></trkpt><trkpt lat="59.3483680766" lon="34.5843453705"><ele>172.06</ele><time>2026-08-18T14:52:48Z</time></trkpt><trkpt lat="59.3483536597" lon="34.5843473822"><ele>172.16</ele><time>2026-08-18T14:52:50Z</time></trkpt><trkpt lat="59.3482906278" lon="34.5843438618"><ele>172.67</ele><time>2026-08-18T14:53:04Z</time></trkpt><trkpt lat="59.3481553439" lon="34.5842896309"><ele>173.33</ele><time>2026-08-18T14:53:20Z</time></trkpt><trkpt lat="59.3480940722" lon="34.5843404252"><ele>173.68</ele><time>2026-08-18T14:53:38Z</time></trkpt><trkpt lat="59.3480528332" lon="34.5843794849"><ele>173.62</ele><time>2026-08-18T14:53:48Z</time></trkpt><trkpt lat="59.3479425274" lon="34.5843955781"><ele>173.68</ele><time>2026-08-18T14:54:03Z</time></trkpt><trkpt lat="59.3479273561" lon="34.5844029542"><ele>174.27</ele><time>2026-08-18T14:54:25Z</time></trkpt><trkpt lat="59.3479318824" lon="34.5843997691"><ele>174.30</ele><time>2026-08-18T14:55:27Z</time></trkpt><trkpt lat="59.3479341455" lon="34.5844013616"><ele>174.35</ele><time>2026-08-18T14:56:14Z</time></trkpt><trkpt lat="59.3478940800" lon="34.5843893755"><ele>174.32</ele><time>2026-08-18T14:56:25Z</time></trkpt><trkpt lat="59.3478745501" lon="34.5843830891"><ele>173.71</ele><time>2026-08-18T14:56:27Z</time></trkpt><trkpt lat="59.3478058185" lon="34.5844066422"><ele>173.26</ele><time>2026-08-18T14:56:39Z</time></trkpt><trkpt lat="59.3477010448" lon="34.5844274294"><ele>172.85</ele><time>2026-08-18T14:56:55Z</time></trkpt><trkpt lat="59.3476923276" lon="34.5844317880"><ele>172.95</ele><time>2026-08-18T14:57:12Z</time></trkpt><trkpt lat="59.3476363365" lon="34.5844107494"><ele>172.94</ele><time>2026-08-18T14:57:19Z</time></trkpt><trkpt lat="59.3475855421" lon="34.5843908843"><ele>172.83</ele><time>2026-08-18T14:57:26Z</time></trkpt><trkpt lat="59.3475283775" lon="34.5843445323"><ele>172.29</ele><time>2026-08-18T14:57:39Z</time></trkpt><trkpt lat="59.3475047406" lon="34.5843307860"><ele>170.97</ele><time>2026-08-18T14:57:42Z</time></trkpt><trkpt lat="59.3474655971" lon="34.5843236614"><ele>172.62</ele><time>2026-08-18T14:57:47Z</time></trkpt><trkpt lat="59.3474479951" lon="34.5842927322"><ele>172.71</ele><time>2026-08-18T14:58:02Z</time></trkpt><trkpt lat="59.3474563770" lon="34.5842957497"><ele>171.99</ele><time>2026-08-18T14:58:36Z</time></trkpt><trkpt lat="59.3474568799" lon="34.5842984319"><ele>173.36</ele><time>2026-08-18T14:58:56Z</time></trkpt><trkpt lat="59.3474476598" lon="34.5843135193"><ele>172.89</ele><time>2026-08-18T14:59:54Z</time></trkpt><trkpt lat="59.3473954406" lon="34.5843052212"><ele>172.77</ele><time>2026-08-18T15:00:06Z</time></trkpt><trkpt lat="59.3473022338" lon="34.5843185484"><ele>173.18</ele><time>2026-08-18T15:00:19Z</time></trkpt><trkpt lat="59.3472780939" lon="34.5842998568"><ele>173.01</ele><time>2026-08-18T15:00:30Z</time></trkpt><trkpt lat="59.3472117092" lon="34.5843224879"><ele>172.02</ele><time>2026-08-18T15:00:44Z</time></trkpt><trkpt lat="59.3472044170" lon="34.5843273494"><ele>173.44</ele><time>2026-08-18T15:00:46Z</time></trkpt><trkpt lat="59.3471513595" lon="34.5843454544"><ele>173.26</ele><time>2026-08-18T15:01:02Z</time></trkpt><trkpt lat="59.3470983859" lon="34.5843766350"><ele>174.29</ele><time>2026-08-18T15:01:18Z</time></trkpt><trkpt lat="59.3470392935" lon="34.5843672473"><ele>175.57</ele><time>2026-08-18T15:01:32Z</time></trkpt><trkpt lat="59.3470037542" lon="34.5843321271"><ele>175.48</ele><time>2026-08-18T15:01:53Z</time></trkpt><trkpt lat="59.3470010720" lon="34.5842317957"><ele>175.30</ele><time>2026-08-18T15:02:12Z</time></trkpt><trkpt lat="59.3469922710" lon="34.5841838513"><ele>175.41</ele><time>2026-08-18T15:02:50Z</time></trkpt><trkpt lat="59.3469846435" lon="34.5841749664"><ele>175.41</ele><time>2026-08-18T15:03:32Z</time></trkpt><trkpt lat="59.3469818775" lon="34.5841695182"><ele>175.37</ele><time>2026-08-18T15:04:08Z</time></trkpt><trkpt lat="59.3469318375" lon="34.5842142776"><ele>176.01</ele><time>2026-08-18T15:04:53Z</time></trkpt><trkpt lat="59.3468743376" lon="34.5842512418"><ele>177.21</ele><time>2026-08-18T15:05:07Z</time></trkpt><trkpt lat="59.3467945419" lon="34.5842444524"><ele>177.08</ele><time>2026-08-18T15:05:20Z</time></trkpt><trkpt lat="59.3467217870" lon="34.5842617191"><ele>177.23</ele><time>2026-08-18T15:05:34Z</time></trkpt><trkpt lat="59.3466885109" lon="34.5843138546"><ele>176.99</ele><time>2026-08-18T15:05:46Z</time></trkpt><trkpt lat="59.3466067873" lon="34.5843363181"><ele>175.17</ele><time>2026-08-18T15:05:57Z</time></trkpt><trkpt lat="59.3465215433" lon="34.5843390841"><ele>175.75</ele><time>2026-08-18T15:06:11Z</time></trkpt><trkpt lat="59.3465092219" lon="34.5843148604"><ele>175.87</ele><time>2026-08-18T15:06:33Z</time></trkpt><trkpt lat="59.3465070426" lon="34.5843163691"><ele>175.18</ele><time>2026-08-18T15:07:39Z</time></trkpt><trkpt lat="59.3465059530" lon="34.5843179617"><ele>175.27</ele><time>2026-08-18T15:08:22Z</time></trkpt><trkpt lat="59.3464427534" lon="34.5843145251"><ele>175.40</ele><time>2026-08-18T15:08:44Z</time></trkpt><trkpt lat="59.3463719264" lon="34.5842877869"><ele>176.19</ele><time>2026-08-18T15:08:57Z</time></trkpt><trkpt lat="59.3462950643" lon="34.5842754655"><ele>175.95</ele><time>2026-08-18T15:09:08Z</time></trkpt><trkpt lat="59.3461984210" lon="34.5842176303"><ele>175.68</ele><time>2026-08-18T15:09:22Z</time></trkpt><trkpt lat="59.3461913802" lon="34.5842218213"><ele>175.45</ele><time>2026-08-18T15:09:23Z</time></trkpt><trkpt lat="59.3461327907" lon="34.5842477214"><ele>174.61</ele><time>2026-08-18T15:09:38Z</time></trkpt><trkpt lat="59.3461014424" lon="34.5842172951"><ele>173.95</ele><time>2026-08-18T15:09:41Z</time></trkpt><trkpt lat="59.3460448645" lon="34.5842087455"><ele>173.71</ele><time>2026-08-18T15:09:55Z</time></trkpt><trkpt lat="59.3460481334" lon="34.5842179656"><ele>173.76</ele><time>2026-08-18T15:10:39Z</time></trkpt><trkpt lat="59.3460443616" lon="34.5842181332"><ele>174.02</ele><time>2026-08-18T15:11:35Z</time></trkpt><trkpt lat="59.3460285198" lon="34.5842214860"><ele>173.78</ele><time>2026-08-18T15:11:37Z</time></trkpt><trkpt lat="59.3459838443" lon="34.5842145290"><ele>174.09</ele><time>2026-08-18T15:11:42Z</time></trkpt><trkpt lat="59.3459230755" lon="34.5842258446"><ele>174.96</ele><time>2026-08-18T15:11:53Z</time></trkpt><trkpt lat="59.3459190521" lon="34.5842269342"><ele>174.86</ele><time>2026-08-18T15:11:54Z</time></trkpt><trkpt lat="59.3458177987" lon="34.5842583664"><ele>175.10</ele><time>2026-08-18T15:12:09Z</time></trkpt><trkpt lat="59.3457883783" lon="34.5842651557"><ele>174.76</ele><time>2026-08-18T15:12:12Z</time></trkpt><trkpt lat="59.3457471393" lon="34.5842676703"><ele>173.24</ele><time>2026-08-18T15:12:18Z</time></trkpt><trkpt lat="59.3457487319" lon="34.5842644852"><ele>174.93</ele><time>2026-08-18T15:12:23Z</time></trkpt><trkpt lat="59.3456679303" lon="34.5842327178"><ele>174.13</ele><time>2026-08-18T15:12:43Z</time></trkpt><trkpt lat="59.3456214946" lon="34.5841651596"><ele>174.21</ele><time>2026-08-18T15:12:56Z</time></trkpt><trkpt lat="59.3455891404" lon="34.5841435343"><ele>173.91</ele><time>2026-08-18T15:13:22Z</time></trkpt><trkpt lat="59.3455354962" lon="34.5841820911"><ele>173.17</ele><time>2026-08-18T15:13:32Z</time></trkpt><trkpt lat="59.3455412798" lon="34.5841987710"><ele>173.34</ele><time>2026-08-18T15:13:54Z</time></trkpt><trkpt lat="59.3455430400" lon="34.5841982681"><ele>173.85</ele><time>2026-08-18T15:14:40Z</time></trkpt><trkpt lat="59.3455418665" lon="34.5841985196"><ele>173.55</ele><time>2026-08-18T15:15:12Z</time></trkpt><trkpt lat="59.3455208279" lon="34.5841866173"><ele>174.09</ele><time>2026-08-18T15:15:44Z</time></trkpt><trkpt lat="59.3454801757" lon="34.5842178818"><ele>174.05</ele><time>2026-08-18T15:15:55Z</time></trkpt><trkpt lat="59.3454393558" lon="34.5842170436"><ele>174.21</ele><time>2026-08-18T15:16:00Z</time></trkpt><trkpt lat="59.3453899864" lon="34.5842098352"><ele>174.90</ele><time>2026-08-18T15:16:16Z</time></trkpt><trkpt lat="59.3453345820" lon="34.5841827616"><ele>174.25</ele><time>2026-08-18T15:16:33Z</time></trkpt><trkpt lat="59.3452633359" lon="34.5841330569"><ele>172.48</ele><time>2026-08-18T15:16:50Z</time></trkpt><trkpt lat="59.3452517688" lon="34.5841355715"><ele>172.46</ele><time>2026-08-18T15:16:57Z</time></trkpt><trkpt lat="59.3451884855" lon="34.5841279440"><ele>172.58</ele><time>2026-08-18T15:17:09Z</time></trkpt><trkpt lat="59.3451357633" lon="34.5841329731"><ele>172.60</ele><time>2026-08-18T15:17:24Z</time></trkpt><trkpt lat="59.3451361824" lon="34.5841318835"><ele>171.61</ele><time>2026-08-18T15:17:49Z</time></trkpt><trkpt lat="59.3451346736" lon="34.5841370802"><ele>173.06</ele><time>2026-08-18T15:18:16Z</time></trkpt><trkpt lat="59.3451366853" lon="34.5841289498"><ele>172.44</ele><time>2026-08-18T15:18:53Z</time></trkpt><trkpt lat="59.3451349251" lon="34.5841268543"><ele>172.24</ele><time>2026-08-18T15:19:36Z</time></trkpt><trkpt lat="59.3451418821" lon="34.5841094200"><ele>172.46</ele><time>2026-08-18T15:20:14Z</time></trkpt><trkpt lat="59.3451408762" lon="34.5841076598"><ele>172.38</ele><time>2026-08-18T15:21:09Z</time></trkpt><trkpt lat="59.3451417983" lon="34.5840294566"><ele>172.39</ele><time>2026-08-18T15:21:39Z</time></trkpt><trkpt lat="59.3451739848" lon="34.5838751458"><ele>172.37</ele><time>2026-08-18T15:21:51Z</time></trkpt><trkpt lat="59.3451730628" lon="34.5838403609"><ele>172.54</ele><time>2026-08-18T15:22:17Z</time></trkpt><trkpt lat="59.3451840430" lon="34.5837021433"><ele>172.87</ele><time>2026-08-18T15:22:32Z</time></trkpt><trkpt lat="59.3451813608" lon="34.5835943520"><ele>172.49</ele><time>2026-08-18T15:22:51Z</time></trkpt><trkpt lat="59.3451854680" lon="34.5835101977"><ele>172.82</ele><time>2026-08-18T15:23:05Z</time></trkpt><trkpt lat="59.3451814447" lon="34.5834147278"><ele>172.99</ele><time>2026-08-18T15:23:24Z</time></trkpt><trkpt lat="59.3452004716" lon="34.5833344292"><ele>172.70</ele><time>2026-08-18T15:23:51Z</time></trkpt><trkpt lat="59.3452090211" lon="34.5832516998"><ele>173.04</ele><time>2026-08-18T15:24:04Z</time></trkpt><trkpt lat="59.3452093564" lon="34.5832565613"><ele>173.24</ele><time>2026-08-18T15:24:48Z</time></trkpt><trkpt lat="59.3452082667" lon="34.5832661167"><ele>172.71</ele><time>2026-08-18T15:25:30Z</time></trkpt><trkpt lat="59.3452103622" lon="34.5832596626"><ele>172.79</ele><time>2026-08-18T15:26:20Z</time></trkpt><trkpt lat="59.3452069256" lon="34.5832750853"><ele>172.87</ele><time>2026-08-18T15:27:16Z</time></trkpt><trkpt lat="59.3452325743" lon="34.5832773484"><ele>172.61</ele><time>2026-08-18T15:27:46Z</time></trkpt><trkpt lat="59.3453031499" lon="34.5832937770"><ele>172.73</ele><time>2026-08-18T15:28:00Z</time></trkpt><trkpt lat="59.3453060836" lon="34.5832886640"><ele>172.70</ele><time>2026-08-18T15:28:33Z</time></trkpt><trkpt lat="59.3453267869" lon="34.5832983870"><ele>172.51</ele><time>2026-08-18T15:28:47Z</time></trkpt><trkpt lat="59.3453662656" lon="34.5832780190"><ele>172.44</ele><time>2026-08-18T15:28:51Z</time></trkpt><trkpt lat="59.3454540242" lon="34.5832594950"><ele>172.16</ele><time>2026-08-18T15:29:02Z</time></trkpt><trkpt lat="59.3454566225" lon="34.5832719840"><ele>173.37</ele><time>2026-08-18T15:29:06Z</time></trkpt><trkpt lat="59.3455226719" lon="34.5832485985"><ele>172.55</ele><time>2026-08-18T15:29:24Z</time></trkpt><trkpt lat="59.3455679342" lon="34.5832380373"><ele>172.85</ele><time>2026-08-18T15:29:37Z</time></trkpt><trkpt lat="59.3456030544" lon="34.5832276437"><ele>172.89</ele><time>2026-08-18T15:29:57Z</time></trkpt><trkpt lat="59.3456219975" lon="34.5832385402"><ele>172.98</ele><time>2026-08-18T15:30:16Z</time></trkpt><trkpt lat="59.3456232548" lon="34.5832533762"><ele>172.63</ele><time>2026-08-18T15:30:43Z</time></trkpt><trkpt lat="59.3456504960" lon="34.5832433179"><ele>172.40</ele><time>2026-08-18T15:31:42Z</time></trkpt><trkpt lat="59.3456485681" lon="34.5832474250"><ele>172.47</ele><time>2026-08-18T15:32:18Z</time></trkpt><trkpt lat="59.3457049783" lon="34.5832429826"><ele>173.16</ele><time>2026-08-18T15:32:41Z</time></trkpt><trkpt lat="59.3457580358" lon="34.5831897575"><ele>173.94</ele><time>2026-08-18T15:32:56Z</time></trkpt><trkpt lat="59.3458014540" lon="34.5831879135"><ele>175.46</ele><time>2026-08-18T15:33:08Z</time></trkpt><trkpt lat="59.3458820879" lon="34.5832965430"><ele>175.72</ele><time>2026-08-18T15:33:23Z</time></trkpt><trkpt lat="59.3459517416" lon="34.5832727384"><ele>176.23</ele><time>2026-08-18T15:33:40Z</time></trkpt><trkpt lat="59.3459931482" lon="34.5832769293"><ele>174.95</ele><time>2026-08-18T15:33:56Z</time></trkpt><trkpt lat="59.3460947368" lon="34.5832715649"><ele>174.57</ele><time>2026-08-18T15:34:08Z</time></trkpt><trkpt lat="59.3461158592" lon="34.5832660329"><ele>173.20</ele><time>2026-08-18T15:34:32Z</time></trkpt><trkpt lat="59.3461168651" lon="34.5832467545"><ele>174.08</ele><time>2026-08-18T15:35:09Z</time></trkpt><trkpt lat="59.3461257499" lon="34.5832461677"><ele>174.23</ele><time>2026-08-18T15:35:52Z</time></trkpt><trkpt lat="59.3461136799" lon="34.5832270570"><ele>174.30</ele><time>2026-08-18T15:36:46Z</time></trkpt><trkpt lat="59.3461153563" lon="34.5832216926"><ele>173.88</ele><time>2026-08-18T15:37:23Z</time></trkpt><trkpt lat="59.3461200502" lon="34.5832400490"><ele>174.31</ele><time>2026-08-18T15:38:01Z</time></trkpt><trkpt lat="59.3461295217" lon="34.5832686312"><ele>174.18</ele><time>2026-08-18T15:38:47Z</time></trkpt><trkpt lat="59.3462159391" lon="34.5832400490"><ele>175.01</ele><time>2026-08-18T15:39:15Z</time></trkpt><trkpt lat="59.3463306874" lon="34.5832368638"><ele>174.31</ele><time>2026-08-18T15:39:27Z</time></trkpt><trkpt lat="59.3463573419" lon="34.5832195971"><ele>173.80</ele><time>2026-08-18T15:39:43Z</time></trkpt><trkpt lat="59.3464294262" lon="34.5831896737"><ele>173.26</ele><time>2026-08-18T15:39:57Z</time></trkpt><trkpt lat="59.3465375528" lon="34.5831957925"><ele>173.91</ele><time>2026-08-18T15:40:24Z</time></trkpt><trkpt lat="59.3466227967" lon="34.5832096227"><ele>174.20</ele><time>2026-08-18T15:40:41Z</time></trkpt><trkpt lat="59.3466087990" lon="34.5832294878"><ele>173.94</ele><time>2026-08-18T15:41:05Z</time></trkpt><trkpt lat="59.3466092180" lon="34.5832341816"><ele>173.31</ele><time>2026-08-18T15:41:46Z</time></trkpt><trkpt lat="59.3466019258" lon="34.5832126401"><ele>173.87</ele><time>2026-08-18T15:42:47Z</time></trkpt><trkpt lat="59.3466123194" lon="34.5832177531"><ele>173.77</ele><time>2026-08-18T15:43:15Z</time></trkpt><trkpt lat="59.3466709089" lon="34.5832408872"><ele>173.82</ele><time>2026-08-18T15:43:29Z</time></trkpt><trkpt lat="59.3467225414" lon="34.5831496920"><ele>173.87</ele><time>2026-08-18T15:43:50Z</time></trkpt><trkpt lat="59.3467598408" lon="34.5832834672"><ele>175.15</ele><time>2026-08-18T15:44:14Z</time></trkpt><trkpt lat="59.3468200229" lon="34.5832857303"><ele>175.76</ele><time>2026-08-18T15:44:33Z</time></trkpt><trkpt lat="59.3468443304" lon="34.5833120495"><ele>176.04</ele><time>2026-08-18T15:44:40Z</time></trkpt><trkpt lat="59.3468565680" lon="34.5833132230"><ele>176.03</ele><time>2026-08-18T15:45:30Z</time></trkpt><trkpt lat="59.3468560651" lon="34.5833182521"><ele>176.05</ele><time>2026-08-18T15:46:25Z</time></trkpt><trkpt lat="59.3468598370" lon="34.5833150670"><ele>175.76</ele><time>2026-08-18T15:47:19Z</time></trkpt><trkpt lat="59.3469390459" lon="34.5832561422"><ele>175.26</ele><time>2026-08-18T15:47:37Z</time></trkpt><trkpt lat="59.3469743337" lon="34.5832287334"><ele>175.92</ele><time>2026-08-18T15:47:45Z</time></trkpt><trkpt lat="59.3470391259" lon="34.5832258835"><ele>174.34</ele><time>2026-08-18T15:48:09Z</time></trkpt><trkpt lat="59.3470474239" lon="34.5832418930"><ele>174.67</ele><time>2026-08-18T15:48:41Z</time></trkpt><trkpt lat="59.3470532913" lon="34.5832468383"><ele>174.74</ele><time>2026-08-18T15:49:25Z</time></trkpt><trkpt lat="59.3470768444" lon="34.5832294878"><ele>174.56</ele><time>2026-08-18T15:50:12Z</time></trkpt><trkpt lat="59.3471154850" lon="34.5832135621"><ele>174.92</ele><time>2026-08-18T15:50:15Z</time></trkpt><trkpt lat="59.3471782655" lon="34.5832086168"><ele>174.32</ele><time>2026-08-18T15:50:29Z</time></trkpt><trkpt lat="59.3472567201" lon="34.5831792802"><ele>173.51</ele><time>2026-08-18T15:50:45Z</time></trkpt><trkpt lat="59.3473256193" lon="34.5831792802"><ele>173.04</ele><time>2026-08-18T15:51:02Z</time></trkpt><trkpt lat="59.3473380245" lon="34.5831806213"><ele>173.96</ele><time>2026-08-18T15:51:04Z</time></trkpt><trkpt lat="59.3474324886" lon="34.5831734966"><ele>173.22</ele><time>2026-08-18T15:51:20Z</time></trkpt><trkpt lat="59.3474556226" lon="34.5831770170"><ele>173.36</ele><time>2026-08-18T15:51:42Z</time></trkpt><trkpt lat="59.3474520184" lon="34.5831680484"><ele>173.26</ele><time>2026-08-18T15:52:06Z</time></trkpt><trkpt lat="59.3474564608" lon="34.5831573196"><ele>173.40</ele><time>2026-08-18T15:52:47Z</time></trkpt><trkpt lat="59.3474544492" lon="34.5831630193"><ele>173.38</ele><time>2026-08-18T15:53:16Z</time></trkpt><trkpt lat="59.3474812713" lon="34.5831281506"><ele>173.37</ele><time>2026-08-18T15:53:53Z</time></trkpt><trkpt lat="59.3475285452" lon="34.5831188466"><ele>173.51</ele><time>2026-08-18T15:54:19Z</time></trkpt><trkpt lat="59.3475919962" lon="34.5831795316"><ele>173.57</ele><time>2026-08-18T15:54:33Z</time></trkpt><trkpt lat="59.3475950975" lon="34.5832050964"><ele>171.99</ele><time>2026-08-18T15:54:35Z</time></trkpt><trkpt lat="59.3476060778" lon="34.5831971336"><ele>173.84</ele><time>2026-08-18T15:54:40Z</time></trkpt><trkpt lat="59.3476909865" lon="34.5832134783"><ele>172.00</ele><time>2026-08-18T15:54:57Z</time></trkpt><trkpt lat="59.3477126956" lon="34.5832141489"><ele>174.12</ele><time>2026-08-18T15:55:00Z</time></trkpt><trkpt lat="59.3478022981" lon="34.5832695533"><ele>174.65</ele><time>2026-08-18T15:55:21Z</time></trkpt><trkpt lat="59.3478048127" lon="34.5832740795"><ele>174.63</ele><time>2026-08-18T15:55:22Z</time></trkpt><trkpt lat="59.3478687666" lon="34.5832463354"><ele>173.82</ele><time>2026-08-18T15:55:46Z</time></trkpt><trkpt lat="59.3478903919" lon="34.5832039230"><ele>171.18</ele><time>2026-08-18T15:55:56Z</time></trkpt><trkpt lat="59.3479025457" lon="34.5832168311"><ele>173.50</ele><time>2026-08-18T15:56:01Z</time></trkpt><trkpt lat="59.3479054794" lon="34.5832083654"><ele>167.38</ele><time>2026-08-18T15:56:22Z</time></trkpt><trkpt lat="59.3479056470" lon="34.5832077786"><ele>167.38</ele><time>2026-08-18T15:56:23Z</time></trkpt><trkpt lat="59.3479103409" lon="34.5832112990"><ele>173.56</ele><time>2026-08-18T15:56:59Z</time></trkpt><trkpt lat="59.3479102571" lon="34.5832114667"><ele>173.56</ele><time>2026-08-18T15:57:00Z</time></trkpt><trkpt lat="59.3478956725" lon="34.5832064375"><ele>173.40</ele><time>2026-08-18T15:57:47Z</time></trkpt><trkpt lat="59.3479506578" lon="34.5832258835"><ele>173.65</ele><time>2026-08-18T15:58:33Z</time></trkpt><trkpt lat="59.3479887955" lon="34.5832209382"><ele>173.71</ele><time>2026-08-18T15:58:53Z</time></trkpt><trkpt lat="59.3480360694" lon="34.5832054317"><ele>174.49</ele><time>2026-08-18T15:59:16Z</time></trkpt><trkpt lat="59.3480692618" lon="34.5831805374"><ele>173.63</ele><time>2026-08-18T15:59:22Z</time></trkpt><trkpt lat="59.3480693456" lon="34.5831816271"><ele>175.13</ele><time>2026-08-18T15:59:28Z</time></trkpt><trkpt lat="59.3481495604" lon="34.5832000673"><ele>174.53</ele><time>2026-08-18T15:59:41Z</time></trkpt><trkpt lat="59.3481777236" lon="34.5831750892"><ele>175.37</ele><time>2026-08-18T15:59:59Z</time></trkpt><trkpt lat="59.3482260872" lon="34.5831781905"><ele>175.14</ele><time>2026-08-18T16:00:04Z</time></trkpt><trkpt lat="59.3482867721" lon="34.5831432380"><ele>175.02</ele><time>2026-08-18T16:00:21Z</time></trkpt><trkpt lat="59.3482912984" lon="34.5831432380"><ele>175.53</ele><time>2026-08-18T16:00:46Z</time></trkpt><trkpt lat="59.3482925557" lon="34.5831383765"><ele>175.21</ele><time>2026-08-18T16:01:16Z</time></trkpt><trkpt lat="59.3482921366" lon="34.5831464231"><ele>175.23</ele><time>2026-08-18T16:01:44Z</time></trkpt><trkpt lat="59.3482900411" lon="34.5831435733"><ele>175.17</ele><time>2026-08-18T16:02:26Z</time></trkpt><trkpt lat="59.3482798990" lon="34.5831547212"><ele>174.71</ele><time>2026-08-18T16:02:43Z</time></trkpt><trkpt lat="59.3482963275" lon="34.5831502788"><ele>175.19</ele><time>2026-08-18T16:03:10Z</time></trkpt><trkpt lat="59.3483034521" lon="34.5831524581"><ele>174.80</ele><time>2026-08-18T16:03:53Z</time></trkpt><trkpt lat="59.3482966628" lon="34.5831532963"><ele>175.32</ele><time>2026-08-18T16:04:24Z</time></trkpt><trkpt lat="59.3482949864" lon="34.5831536315"><ele>175.31</ele><time>2026-08-18T16:05:07Z</time></trkpt><trkpt lat="59.3482873589" lon="34.5831566490"><ele>175.12</ele><time>2026-08-18T16:05:39Z</time></trkpt><trkpt lat="59.3482869398" lon="34.5831476804"><ele>176.05</ele><time>2026-08-18T16:05:46Z</time></trkpt><trkpt lat="59.3482903764" lon="34.5831436571"><ele>175.25</ele><time>2026-08-18T16:05:48Z</time></trkpt><trkpt lat="59.3482948188" lon="34.5831367839"><ele>172.71</ele><time>2026-08-18T16:06:01Z</time></trkpt><trkpt lat="59.3482949864" lon="34.5831405558"><ele>175.81</ele><time>2026-08-18T16:06:04Z</time></trkpt><trkpt lat="59.3482947350" lon="34.5831415616"><ele>175.43</ele><time>2026-08-18T16:06:05Z</time></trkpt><trkpt lat="59.3482943997" lon="34.5831413940"><ele>174.46</ele><time>2026-08-18T16:06:07Z</time></trkpt><trkpt lat="59.3482965790" lon="34.5831486862"><ele>176.19</ele><time>2026-08-18T16:06:51Z</time></trkpt><trkpt lat="59.3482976686" lon="34.5831575710"><ele>175.24</ele><time>2026-08-18T16:07:45Z</time></trkpt><trkpt lat="59.3483488820" lon="34.5831716526"><ele>174.80</ele><time>2026-08-18T16:08:18Z</time></trkpt><trkpt lat="59.3483797275" lon="34.5831648633"><ele>174.52</ele><time>2026-08-18T16:08:32Z</time></trkpt><trkpt lat="59.3483817391" lon="34.5831644442"><ele>171.55</ele><time>2026-08-18T16:08:43Z</time></trkpt><trkpt lat="59.3483830802" lon="34.5831650309"><ele>175.48</ele><time>2026-08-18T16:09:00Z</time></trkpt><trkpt lat="59.3483830802" lon="34.5831646957"><ele>174.64</ele><time>2026-08-18T16:09:01Z</time></trkpt><trkpt lat="59.3483743630" lon="34.5831601694"><ele>174.56</ele><time>2026-08-18T16:09:45Z</time></trkpt><trkpt lat="59.3483780511" lon="34.5831699762"><ele>174.36</ele><time>2026-08-18T16:10:25Z</time></trkpt><trkpt lat="59.3484829925" lon="34.5831671264"><ele>173.74</ele><time>2026-08-18T16:10:37Z</time></trkpt><trkpt lat="59.3485026900" lon="34.5831602532"><ele>173.12</ele><time>2026-08-18T16:10:42Z</time></trkpt><trkpt lat="59.3485879339" lon="34.5831601694"><ele>173.72</ele><time>2026-08-18T16:10:57Z</time></trkpt><trkpt lat="59.3486650474" lon="34.5832198486"><ele>173.88</ele><time>2026-08-18T16:11:10Z</time></trkpt><trkpt lat="59.3487454299" lon="34.5831161644"><ele>174.16</ele><time>2026-08-18T16:11:23Z</time></trkpt><trkpt lat="59.3487482797" lon="34.5831138175"><ele>172.73</ele><time>2026-08-18T16:11:26Z</time></trkpt><trkpt lat="59.3487486988" lon="34.5831248816"><ele>174.45</ele><time>2026-08-18T16:11:31Z</time></trkpt><trkpt lat="59.3488291651" lon="34.5831788611"><ele>175.10</ele><time>2026-08-18T16:11:48Z</time></trkpt><trkpt lat="59.3488390557" lon="34.5831923559"><ele>174.54</ele><time>2026-08-18T16:12:19Z</time></trkpt><trkpt lat="59.3488417380" lon="34.5831701439"><ele>174.54</ele><time>2026-08-18T16:13:01Z</time></trkpt><trkpt lat="59.3488501199" lon="34.5831703953"><ele>174.26</ele><time>2026-08-18T16:13:49Z</time></trkpt><trkpt lat="59.3489944562" lon="34.5831382927"><ele>174.14</ele><time>2026-08-18T16:14:04Z</time></trkpt><trkpt lat="59.3490028381" lon="34.5831407234"><ele>173.87</ele><time>2026-08-18T16:14:08Z</time></trkpt><trkpt lat="59.3491031695" lon="34.5831001550"><ele>174.03</ele><time>2026-08-18T16:14:23Z</time></trkpt><trkpt lat="59.3491784390" lon="34.5831014961"><ele>173.55</ele><time>2026-08-18T16:14:37Z</time></trkpt><trkpt lat="59.3491945323" lon="34.5830881689"><ele>174.58</ele><time>2026-08-18T16:14:41Z</time></trkpt><trkpt lat="59.3491941970" lon="34.5830897614"><ele>173.97</ele><time>2026-08-18T16:15:05Z</time></trkpt><trkpt lat="59.3492124695" lon="34.5830691420"><ele>173.86</ele><time>2026-08-18T16:15:49Z</time></trkpt><trkpt lat="59.3492096197" lon="34.5830805413"><ele>173.68</ele><time>2026-08-18T16:16:10Z</time></trkpt><trkpt lat="59.3491750862" lon="34.5829699840"><ele>174.18</ele><time>2026-08-18T16:16:55Z</time></trkpt><trkpt lat="59.3491359428" lon="34.5828544814"><ele>173.72</ele><time>2026-08-18T16:17:01Z</time></trkpt><trkpt lat="59.3491066899" lon="34.5827323571"><ele>173.54</ele><time>2026-08-18T16:17:21Z</time></trkpt><trkpt lat="59.3490441609" lon="34.5825227257"><ele>173.80</ele><time>2026-08-18T16:17:34Z</time></trkpt><trkpt lat="59.3490448315" lon="34.5825138409"><ele>173.58</ele><time>2026-08-18T16:17:36Z</time></trkpt><trkpt lat="59.3490504473" lon="34.5824616216"><ele>173.52</ele><time>2026-08-18T16:17:39Z</time></trkpt><trkpt lat="59.3489976414" lon="34.5822893735"><ele>173.94</ele><time>2026-08-18T16:17:53Z</time></trkpt><trkpt lat="59.3489840627" lon="34.5822523255"><ele>173.43</ele><time>2026-08-18T16:18:09Z</time></trkpt><trkpt lat="59.3489807937" lon="34.5822493918"><ele>173.60</ele><time>2026-08-18T16:18:44Z</time></trkpt><trkpt lat="59.3489723280" lon="34.5822349750"><ele>172.85</ele><time>2026-08-18T16:19:20Z</time></trkpt><trkpt lat="59.3489806261" lon="34.5822416805"><ele>173.37</ele><time>2026-08-18T16:19:41Z</time></trkpt><trkpt lat="59.3489838950" lon="34.5822577737"><ele>173.29</ele><time>2026-08-18T16:20:20Z</time></trkpt><trkpt lat="59.3489662930" lon="34.5822567679"><ele>172.17</ele><time>2026-08-18T16:20:33Z</time></trkpt><trkpt lat="59.3488809653" lon="34.5822989289"><ele>173.64</ele><time>2026-08-18T16:20:46Z</time></trkpt><trkpt lat="59.3488576636" lon="34.5823290199"><ele>173.60</ele><time>2026-08-18T16:20:50Z</time></trkpt><trkpt lat="59.3487758562" lon="34.5823503938"><ele>173.72</ele><time>2026-08-18T16:20:59Z</time></trkpt><trkpt lat="59.3487481959" lon="34.5823434368"><ele>173.41</ele><time>2026-08-18T16:21:02Z</time></trkpt><trkpt lat="59.3486576714" lon="34.5823830832"><ele>173.70</ele><time>2026-08-18T16:21:15Z</time></trkpt><trkpt lat="59.3486385606" lon="34.5823954884"><ele>172.96</ele><time>2026-08-18T16:21:23Z</time></trkpt><trkpt lat="59.3485834915" lon="34.5823792275"><ele>173.26</ele><time>2026-08-18T16:21:35Z</time></trkpt><trkpt lat="59.3484800588" lon="34.5823902916"><ele>173.56</ele><time>2026-08-18T16:21:51Z</time></trkpt><trkpt lat="59.3484759517" lon="34.5823866874"><ele>171.40</ele><time>2026-08-18T16:22:11Z</time></trkpt><trkpt lat="59.3484786339" lon="34.5823841728"><ele>173.88</ele><time>2026-08-18T16:22:26Z</time></trkpt><trkpt lat="59.3484801427" lon="34.5823873580"><ele>173.56</ele><time>2026-08-18T16:23:19Z</time></trkpt><trkpt lat="59.3484150991" lon="34.5823948178"><ele>172.37</ele><time>2026-08-18T16:23:51Z</time></trkpt><trkpt lat="59.3483538274" lon="34.5823871903"><ele>173.68</ele><time>2026-08-18T16:24:04Z</time></trkpt><trkpt lat="59.3482908793" lon="34.5824089833"><ele>173.28</ele><time>2026-08-18T16:24:18Z</time></trkpt><trkpt lat="59.3482690863" lon="34.5824242383"><ele>173.50</ele><time>2026-08-18T16:24:21Z</time></trkpt><trkpt lat="59.3482436053" lon="34.5824302733"><ele>172.07</ele><time>2026-08-18T16:24:24Z</time></trkpt><trkpt lat="59.3482267577" lon="34.5824164432"><ele>174.19</ele><time>2026-08-18T16:24:29Z</time></trkpt><trkpt lat="59.3482125923" lon="34.5824254956"><ele>173.65</ele><time>2026-08-18T16:24:37Z</time></trkpt><trkpt lat="59.3481311202" lon="34.5823806524"><ele>173.61</ele><time>2026-08-18T16:24:50Z</time></trkpt><trkpt lat="59.3481290247" lon="34.5823838376"><ele>174.88</ele><time>2026-08-18T16:24:52Z</time></trkpt><trkpt lat="59.3480521627" lon="34.5823608711"><ele>173.58</ele><time>2026-08-18T16:25:10Z</time></trkpt><trkpt lat="59.3480336387" lon="34.5823648944"><ele>173.85</ele><time>2026-08-18T16:25:16Z</time></trkpt><trkpt lat="59.3479986023" lon="34.5822962467"><ele>171.75</ele><time>2026-08-18T16:25:24Z</time></trkpt><trkpt lat="59.3479833473" lon="34.5822997671"><ele>173.72</ele><time>2026-08-18T16:25:29Z</time></trkpt><trkpt lat="59.3479546811" lon="34.5823375694"><ele>173.92</ele><time>2026-08-18T16:25:41Z</time></trkpt><trkpt lat="59.3479498196" lon="34.5823394973"><ele>172.50</ele><time>2026-08-18T16:25:53Z</time></trkpt><trkpt lat="59.3479480594" lon="34.5823324565"><ele>174.06</ele><time>2026-08-18T16:26:12Z</time></trkpt><trkpt lat="59.3479486462" lon="34.5823390782"><ele>173.91</ele><time>2026-08-18T16:27:04Z</time></trkpt><trkpt lat="59.3479381688" lon="34.5823310316"><ele>173.56</ele><time>2026-08-18T16:27:38Z</time></trkpt><trkpt lat="59.3478781544" lon="34.5823457837"><ele>174.10</ele><time>2026-08-18T16:27:52Z</time></trkpt><trkpt lat="59.3477805890" lon="34.5823422633"><ele>174.28</ele><time>2026-08-18T16:28:06Z</time></trkpt><trkpt lat="59.3477654178" lon="34.5823477115"><ele>174.04</ele><time>2026-08-18T16:28:10Z</time></trkpt><trkpt lat="59.3477228377" lon="34.5824012719"><ele>175.07</ele><time>2026-08-18T16:28:20Z</time></trkpt><trkpt lat="59.3476826884" lon="34.5823321212"><ele>173.99</ele><time>2026-08-18T16:28:38Z</time></trkpt><trkpt lat="59.3476305529" lon="34.5823588595"><ele>174.36</ele><time>2026-08-18T16:28:53Z</time></trkpt><trkpt lat="59.3475755677" lon="34.5823575184"><ele>173.97</ele><time>2026-08-18T16:29:14Z</time></trkpt><trkpt lat="59.3475021422" lon="34.5822668262"><ele>174.05</ele><time>2026-08-18T16:29:27Z</time></trkpt><trkpt lat="59.3474644236" lon="34.5822612941"><ele>174.22</ele><time>2026-08-18T16:29:38Z</time></trkpt><trkpt lat="59.3474797625" lon="34.5822688378"><ele>173.60</ele><time>2026-08-18T16:30:06Z</time></trkpt><trkpt lat="59.3474938441" lon="34.5822704304"><ele>174.09</ele><time>2026-08-18T16:30:58Z</time></trkpt><trkpt lat="59.3474394456" lon="34.5822976716"><ele>174.16</ele><time>2026-08-18T16:31:43Z</time></trkpt><trkpt lat="59.3473887350" lon="34.5823073946"><ele>174.16</ele><time>2026-08-18T16:31:59Z</time></trkpt><trkpt lat="59.3473275471" lon="34.5823300257"><ele>174.61</ele><time>2026-08-18T16:32:17Z</time></trkpt><trkpt lat="59.3472559657" lon="34.5823475439"><ele>173.64</ele><time>2026-08-18T16:32:33Z</time></trkpt><trkpt lat="59.3472519424" lon="34.5823372342"><ele>173.54</ele><time>2026-08-18T16:32:41Z</time></trkpt><trkpt lat="59.3472184986" lon="34.5823526569"><ele>173.59</ele><time>2026-08-18T16:32:45Z</time></trkpt><trkpt lat="59.3471485935" lon="34.5823835861"><ele>173.88</ele><time>2026-08-18T16:33:00Z</time></trkpt><trkpt lat="59.3471007328" lon="34.5823557582"><ele>174.39</ele><time>2026-08-18T16:33:15Z</time></trkpt><trkpt lat="59.3470677920" lon="34.5823363960"><ele>172.13</ele><time>2026-08-18T16:33:29Z</time></trkpt><trkpt lat="59.3469802849" lon="34.5822941512"><ele>173.77</ele><time>2026-08-18T16:33:42Z</time></trkpt><trkpt lat="59.3469851464" lon="34.5822999347"><ele>172.03</ele><time>2026-08-18T16:34:04Z</time></trkpt><trkpt lat="59.3469867390" lon="34.5822940674"><ele>174.13</ele><time>2026-08-18T16:34:11Z</time></trkpt><trkpt lat="59.3469865713" lon="34.5822910499"><ele>172.63</ele><time>2026-08-18T16:34:14Z</time></trkpt><trkpt lat="59.3469828833" lon="34.5822819974"><ele>174.19</ele><time>2026-08-18T16:34:32Z</time></trkpt><trkpt lat="59.3469821289" lon="34.5822867751"><ele>173.72</ele><time>2026-08-18T16:35:14Z</time></trkpt><trkpt lat="59.3469135650" lon="34.5823306963"><ele>173.70</ele><time>2026-08-18T16:35:52Z</time></trkpt><trkpt lat="59.3468604237" lon="34.5823047962"><ele>173.72</ele><time>2026-08-18T16:36:14Z</time></trkpt><trkpt lat="59.3468005769" lon="34.5823038742"><ele>174.12</ele><time>2026-08-18T16:36:26Z</time></trkpt><trkpt lat="59.3467528839" lon="34.5823000185"><ele>175.23</ele><time>2026-08-18T16:36:45Z</time></trkpt><trkpt lat="59.3466591742" lon="34.5823010243"><ele>174.98</ele><time>2026-08-18T16:36:59Z</time></trkpt><trkpt lat="59.3465942144" lon="34.5822580252"><ele>174.42</ele><time>2026-08-18T16:37:19Z</time></trkpt><trkpt lat="59.3465533946" lon="34.5822504815"><ele>175.07</ele><time>2026-08-18T16:37:52Z</time></trkpt><trkpt lat="59.3465244770" lon="34.5822606236"><ele>175.58</ele><time>2026-08-18T16:38:10Z</time></trkpt><trkpt lat="59.3464964814" lon="34.5822668262"><ele>175.74</ele><time>2026-08-18T16:38:33Z</time></trkpt><trkpt lat="59.3464829866" lon="34.5822767168"><ele>175.61</ele><time>2026-08-18T16:39:09Z</time></trkpt><trkpt lat="59.3464756943" lon="34.5822576899"><ele>175.66</ele><time>2026-08-18T16:40:19Z</time></trkpt><trkpt lat="59.3464685697" lon="34.5822600368"><ele>175.78</ele><time>2026-08-18T16:41:13Z</time></trkpt><trkpt lat="59.3464685697" lon="34.5822537504"><ele>175.79</ele><time>2026-08-18T16:42:18Z</time></trkpt><trkpt lat="59.3464672286" lon="34.5822325442"><ele>175.85</ele><time>2026-08-18T16:43:06Z</time></trkpt><trkpt lat="59.3464813940" lon="34.5822494756"><ele>175.80</ele><time>2026-08-18T16:44:13Z</time></trkpt><trkpt lat="59.3464778736" lon="34.5822561812"><ele>175.89</ele><time>2026-08-18T16:45:01Z</time></trkpt><trkpt lat="59.3464809749" lon="34.5822594501"><ele>176.01</ele><time>2026-08-18T16:45:46Z</time></trkpt><trkpt lat="59.3464887701" lon="34.5822903793"><ele>176.22</ele><time>2026-08-18T16:46:38Z</time></trkpt><trkpt lat="59.3464850821" lon="34.5822830871"><ele>174.83</ele><time>2026-08-18T16:47:59Z</time></trkpt><trkpt lat="59.3464503810" lon="34.5822689217"><ele>176.76</ele><time>2026-08-18T16:48:26Z</time></trkpt><trkpt lat="59.3463917915" lon="34.5822685864"><ele>177.59</ele><time>2026-08-18T16:48:45Z</time></trkpt><trkpt lat="59.3463581800" lon="34.5823159441"><ele>177.55</ele><time>2026-08-18T16:48:59Z</time></trkpt><trkpt lat="59.3462871853" lon="34.5822870266"><ele>178.02</ele><time>2026-08-18T16:49:22Z</time></trkpt><trkpt lat="59.3461901229" lon="34.5822688378"><ele>177.67</ele><time>2026-08-18T16:49:44Z</time></trkpt><trkpt lat="59.3461363949" lon="34.5822259225"><ele>177.93</ele><time>2026-08-18T16:49:52Z</time></trkpt><trkpt lat="59.3460417632" lon="34.5822234917"><ele>178.08</ele><time>2026-08-18T16:50:05Z</time></trkpt><trkpt lat="59.3460258376" lon="34.5822294429"><ele>177.89</ele><time>2026-08-18T16:50:27Z</time></trkpt><trkpt lat="59.3460319564" lon="34.5822142716"><ele>177.80</ele><time>2026-08-18T16:51:15Z</time></trkpt><trkpt lat="59.3460283522" lon="34.5822076499"><ele>177.77</ele><time>2026-08-18T16:51:47Z</time></trkpt><trkpt lat="59.3460226525" lon="34.5821948256"><ele>177.79</ele><time>2026-08-18T16:52:22Z</time></trkpt><trkpt lat="59.3460377399" lon="34.5822262578"><ele>177.79</ele><time>2026-08-18T16:53:08Z</time></trkpt><trkpt lat="59.3460186291" lon="34.5822556783"><ele>177.92</ele><time>2026-08-18T16:53:51Z</time></trkpt><trkpt lat="59.3459554296" lon="34.5822866913"><ele>177.94</ele><time>2026-08-18T16:54:16Z</time></trkpt><trkpt lat="59.3459034618" lon="34.5822857693"><ele>177.47</ele><time>2026-08-18T16:54:44Z</time></trkpt><trkpt lat="59.3458220735" lon="34.5823537465"><ele>176.89</ele><time>2026-08-18T16:55:20Z</time></trkpt><trkpt lat="59.3457481451" lon="34.5823470410"><ele>176.39</ele><time>2026-08-18T16:55:33Z</time></trkpt><trkpt lat="59.3457328901" lon="34.5823488850"><ele>174.37</ele><time>2026-08-18T16:55:36Z</time></trkpt><trkpt lat="59.3457271904" lon="34.5823506452"><ele>176.61</ele><time>2026-08-18T16:55:41Z</time></trkpt><trkpt lat="59.3456740491" lon="34.5823401678"><ele>176.56</ele><time>2026-08-18T16:56:07Z</time></trkpt><trkpt lat="59.3456351571" lon="34.5823388267"><ele>177.05</ele><time>2026-08-18T16:56:21Z</time></trkpt><trkpt lat="59.3456334807" lon="34.5823368989"><ele>172.56</ele><time>2026-08-18T16:56:23Z</time></trkpt><trkpt lat="59.3456301279" lon="34.5823326241"><ele>179.20</ele><time>2026-08-18T16:56:24Z</time></trkpt><trkpt lat="59.3456252664" lon="34.5823255833"><ele>179.20</ele><time>2026-08-18T16:56:25Z</time></trkpt><trkpt lat="59.3456138670" lon="34.5822976716"><ele>177.22</ele><time>2026-08-18T16:56:30Z</time></trkpt><trkpt lat="59.3456045631" lon="34.5822314546"><ele>177.15</ele><time>2026-08-18T16:56:49Z</time></trkpt><trkpt lat="59.3456050660" lon="34.5822203904"><ele>175.16</ele><time>2026-08-18T16:56:55Z</time></trkpt><trkpt lat="59.3455898948" lon="34.5821972564"><ele>177.03</ele><time>2026-08-18T16:57:05Z</time></trkpt><trkpt lat="59.3455803394" lon="34.5821604598"><ele>175.84</ele><time>2026-08-18T16:57:25Z</time></trkpt><trkpt lat="59.3455637433" lon="34.5821648184"><ele>176.85</ele><time>2026-08-18T16:58:22Z</time></trkpt><trkpt lat="59.3455610611" lon="34.5821562689"><ele>176.76</ele><time>2026-08-18T16:58:52Z</time></trkpt><trkpt lat="59.3455503322" lon="34.5821738709"><ele>176.60</ele><time>2026-08-18T16:59:22Z</time></trkpt><trkpt lat="59.3455287907" lon="34.5821660757"><ele>176.96</ele><time>2026-08-18T16:59:47Z</time></trkpt><trkpt lat="59.3454638310" lon="34.5822022855"><ele>176.94</ele><time>2026-08-18T17:00:14Z</time></trkpt><trkpt lat="59.3453899864" lon="34.5821848512"><ele>174.42</ele><time>2026-08-18T17:00:24Z</time></trkpt><trkpt lat="59.3453847896" lon="34.5821945742"><ele>176.90</ele><time>2026-08-18T17:00:30Z</time></trkpt><trkpt lat="59.3452851288" lon="34.5822472963"><ele>175.19</ele><time>2026-08-18T17:01:00Z</time></trkpt><trkpt lat="59.3452364299" lon="34.5822609589"><ele>174.99</ele><time>2026-08-18T17:01:19Z</time></trkpt><trkpt lat="59.3452307303" lon="34.5822484698"><ele>174.97</ele><time>2026-08-18T17:01:52Z</time></trkpt><trkpt lat="59.3452387769" lon="34.5822522417"><ele>175.13</ele><time>2026-08-18T17:02:31Z</time></trkpt><trkpt lat="59.3452370167" lon="34.5822400879"><ele>175.19</ele><time>2026-08-18T17:03:07Z</time></trkpt><trkpt lat="59.3452546187" lon="34.5821131859"><ele>175.92</ele><time>2026-08-18T17:03:28Z</time></trkpt><trkpt lat="59.3452634197" lon="34.5819660835"><ele>176.94</ele><time>2026-08-18T17:03:47Z</time></trkpt><trkpt lat="59.3452311493" lon="34.5818483178"><ele>176.93</ele><time>2026-08-18T17:04:02Z</time></trkpt><trkpt lat="59.3452440575" lon="34.5816293824"><ele>176.81</ele><time>2026-08-18T17:04:29Z</time></trkpt><trkpt lat="59.3452469911" lon="34.5815728884"><ele>174.50</ele><time>2026-08-18T17:04:35Z</time></trkpt><trkpt lat="59.3452438898" lon="34.5815341640"><ele>176.46</ele><time>2026-08-18T17:04:41Z</time></trkpt><trkpt lat="59.3452475779" lon="34.5813635923"><ele>176.86</ele><time>2026-08-18T17:05:00Z</time></trkpt><trkpt lat="59.3452621624" lon="34.5813659392"><ele>176.91</ele><time>2026-08-18T17:05:03Z</time></trkpt><trkpt lat="59.3452406209" lon="34.5812703855"><ele>177.18</ele><time>2026-08-18T17:05:17Z</time></trkpt><trkpt lat="59.3452379387" lon="34.5812141430"><ele>175.36</ele><time>2026-08-18T17:05:26Z</time></trkpt><trkpt lat="59.3452368490" lon="34.5811912604"><ele>179.08</ele><time>2026-08-18T17:05:32Z</time></trkpt><trkpt lat="59.3452368490" lon="34.5811904222"><ele>178.81</ele><time>2026-08-18T17:05:33Z</time></trkpt><trkpt lat="59.3452296406" lon="34.5811430644"><ele>178.20</ele><time>2026-08-18T17:05:47Z</time></trkpt><trkpt lat="59.3452599831" lon="34.5810301602"><ele>178.01</ele><time>2026-08-18T17:06:04Z</time></trkpt><trkpt lat="59.3452657666" lon="34.5809820481"><ele>177.70</ele><time>2026-08-18T17:07:00Z</time></trkpt><trkpt lat="59.3452601507" lon="34.5809769351"><ele>178.43</ele><time>2026-08-18T17:07:51Z</time></trkpt><trkpt lat="59.3452800997" lon="34.5811072737"><ele>178.21</ele><time>2026-08-18T17:08:25Z</time></trkpt><trkpt lat="59.3452835362" lon="34.5812926814"><ele>177.87</ele><time>2026-08-18T17:08:38Z</time></trkpt><trkpt lat="59.3452912476" lon="34.5812425576"><ele>177.19</ele><time>2026-08-18T17:09:08Z</time></trkpt><trkpt lat="59.3452908285" lon="34.5812334213"><ele>176.58</ele><time>2026-08-18T17:09:47Z</time></trkpt><trkpt lat="59.3452952709" lon="34.5812399592"><ele>177.48</ele><time>2026-08-18T17:09:56Z</time></trkpt><trkpt lat="59.3452950194" lon="34.5812478382"><ele>176.94</ele><time>2026-08-18T17:10:34Z</time></trkpt><trkpt lat="59.3452849612" lon="34.5811879914"><ele>177.72</ele><time>2026-08-18T17:10:55Z</time></trkpt><trkpt lat="59.3452451471" lon="34.5810577367"><ele>178.38</ele><time>2026-08-18T17:11:15Z</time></trkpt><trkpt lat="59.3452343345" lon="34.5810425654"><ele>175.80</ele><time>2026-08-18T17:11:23Z</time></trkpt><trkpt lat="59.3452308979" lon="34.5810199343"><ele>178.23</ele><time>2026-08-18T17:12:18Z</time></trkpt><trkpt lat="59.3452744000" lon="34.5810621791"><ele>177.60</ele><time>2026-08-18T17:12:46Z</time></trkpt><trkpt lat="59.3453396112" lon="34.5810385421"><ele>178.49</ele><time>2026-08-18T17:13:05Z</time></trkpt><trkpt lat="59.3454498332" lon="34.5809579920"><ele>179.01</ele><time>2026-08-18T17:13:27Z</time></trkpt><trkpt lat="59.3455157988" lon="34.5809777733"><ele>178.62</ele><time>2026-08-18T17:13:51Z</time></trkpt><trkpt lat="59.3455247674" lon="34.5809810422"><ele>179.11</ele><time>2026-08-18T17:13:53Z</time></trkpt><trkpt lat="59.3455771543" lon="34.5809754264"><ele>178.32</ele><time>2026-08-18T17:14:08Z</time></trkpt><trkpt lat="59.3456390966" lon="34.5809848979"><ele>178.18</ele><time>2026-08-18T17:14:27Z</time></trkpt><trkpt lat="59.3457378354" lon="34.5810229518"><ele>178.09</ele><time>2026-08-18T17:14:45Z</time></trkpt><trkpt lat="59.3457492348" lon="34.5810109656"><ele>177.72</ele><time>2026-08-18T17:15:07Z</time></trkpt><trkpt lat="59.3457519170" lon="34.5810276456"><ele>177.63</ele><time>2026-08-18T17:15:47Z</time></trkpt><trkpt lat="59.3457537610" lon="34.5810160786"><ele>177.68</ele><time>2026-08-18T17:16:12Z</time></trkpt><trkpt lat="59.3457262684" lon="34.5809971355"><ele>177.75</ele><time>2026-08-18T17:16:45Z</time></trkpt><trkpt lat="59.3457392603" lon="34.5809968840"><ele>177.62</ele><time>2026-08-18T17:17:13Z</time></trkpt><trkpt lat="59.3458497338" lon="34.5810474269"><ele>177.75</ele><time>2026-08-18T17:17:38Z</time></trkpt><trkpt lat="59.3459421862" lon="34.5810115524"><ele>177.83</ele><time>2026-08-18T17:17:53Z</time></trkpt><trkpt lat="59.3460006919" lon="34.5809924416"><ele>177.84</ele><time>2026-08-18T17:18:09Z</time></trkpt><trkpt lat="59.3460403383" lon="34.5809432399"><ele>177.38</ele><time>2026-08-18T17:18:32Z</time></trkpt><trkpt lat="59.3460805714" lon="34.5809873287"><ele>177.14</ele><time>2026-08-18T17:18:51Z</time></trkpt><trkpt lat="59.3461388256" lon="34.5809533820"><ele>176.79</ele><time>2026-08-18T17:19:10Z</time></trkpt><trkpt lat="59.3461974990" lon="34.5809744205"><ele>176.56</ele><time>2026-08-18T17:19:30Z</time></trkpt><trkpt lat="59.3462700862" lon="34.5809480175"><ele>176.76</ele><time>2026-08-18T17:19:41Z</time></trkpt><trkpt lat="59.3462847546" lon="34.5809514541"><ele>176.58</ele><time>2026-08-18T17:20:03Z</time></trkpt><trkpt lat="59.3462829944" lon="34.5809566509"><ele>176.84</ele><time>2026-08-18T17:20:33Z</time></trkpt><trkpt lat="59.3462817371" lon="34.5809811261"><ele>176.54</ele><time>2026-08-18T17:21:15Z</time></trkpt><trkpt lat="59.3462884426" lon="34.5810007397"><ele>177.17</ele><time>2026-08-18T17:21:59Z</time></trkpt><trkpt lat="59.3462711759" lon="34.5809621830"><ele>175.54</ele><time>2026-08-18T17:22:44Z</time></trkpt><trkpt lat="59.3462813180" lon="34.5809711516"><ele>176.18</ele><time>2026-08-18T17:23:27Z</time></trkpt><trkpt lat="59.3462801445" lon="34.5809481852"><ele>175.39</ele><time>2026-08-18T17:24:16Z</time></trkpt><trkpt lat="59.3462825753" lon="34.5809404738"><ele>176.82</ele><time>2026-08-18T17:24:42Z</time></trkpt><trkpt lat="59.3462741934" lon="34.5809578244"><ele>175.94</ele><time>2026-08-18T17:25:29Z</time></trkpt><trkpt lat="59.3462745287" lon="34.5809678826"><ele>176.01</ele><time>2026-08-18T17:26:42Z</time></trkpt><trkpt lat="59.3462750316" lon="34.5809707325"><ele>175.59</ele><time>2026-08-18T17:27:13Z</time></trkpt><trkpt lat="59.3462781329" lon="34.5809656195"><ele>176.80</ele><time>2026-08-18T17:27:42Z</time></trkpt><trkpt lat="59.3462839164" lon="34.5809757616"><ele>176.66</ele><time>2026-08-18T17:28:28Z</time></trkpt><trkpt lat="59.3462831620" lon="34.5809612609"><ele>176.72</ele><time>2026-08-18T17:29:16Z</time></trkpt><trkpt lat="59.3462783843" lon="34.5809741691"><ele>166.84</ele><time>2026-08-18T17:29:44Z</time></trkpt><trkpt lat="59.3462777976" lon="34.5809753425"><ele>173.89</ele><time>2026-08-18T17:29:46Z</time></trkpt><trkpt lat="59.3462775461" lon="34.5809765998"><ele>184.39</ele><time>2026-08-18T17:29:48Z</time></trkpt><trkpt lat="59.3462776300" lon="34.5809787791"><ele>181.60</ele><time>2026-08-18T17:29:49Z</time></trkpt><trkpt lat="59.3462776300" lon="34.5809856523"><ele>178.26</ele><time>2026-08-18T17:29:51Z</time></trkpt><trkpt lat="59.3462753668" lon="34.5809797850"><ele>174.05</ele><time>2026-08-18T17:29:55Z</time></trkpt><trkpt lat="59.3462698348" lon="34.5809694752"><ele>177.15</ele><time>2026-08-18T17:30:25Z</time></trkpt><trkpt lat="59.3462711759" lon="34.5809690561"><ele>177.17</ele><time>2026-08-18T17:30:26Z</time></trkpt><trkpt lat="59.3462741934" lon="34.5809788629"><ele>175.93</ele><time>2026-08-18T17:31:04Z</time></trkpt><trkpt lat="59.3462695833" lon="34.5809775218"><ele>176.15</ele><time>2026-08-18T17:31:46Z</time></trkpt><trkpt lat="59.3462722655" lon="34.5809495263"><ele>176.46</ele><time>2026-08-18T17:32:23Z</time></trkpt><trkpt lat="59.3462747801" lon="34.5809617639"><ele>175.96</ele><time>2026-08-18T17:32:51Z</time></trkpt><trkpt lat="59.3462728523" lon="34.5809750911"><ele>176.17</ele><time>2026-08-18T17:33:13Z</time></trkpt><trkpt lat="59.3462830782" lon="34.5809815452"><ele>176.39</ele><time>2026-08-18T17:33:46Z</time></trkpt><trkpt lat="59.3462796416" lon="34.5809882507"><ele>177.89</ele><time>2026-08-18T17:34:11Z</time></trkpt><trkpt lat="59.3462856766" lon="34.5809992310"><ele>176.38</ele><time>2026-08-18T17:34:17Z</time></trkpt><trkpt lat="59.3463270832" lon="34.5809943695"><ele>176.19</ele><time>2026-08-18T17:34:31Z</time></trkpt><trkpt lat="59.3463701662" lon="34.5809564833"><ele>176.11</ele><time>2026-08-18T17:34:51Z</time></trkpt><trkpt lat="59.3464480340" lon="34.5809621830"><ele>175.62</ele><time>2026-08-18T17:35:04Z</time></trkpt><trkpt lat="59.3464870937" lon="34.5809392165"><ele>174.64</ele><time>2026-08-18T17:35:13Z</time></trkpt><trkpt lat="59.3465741817" lon="34.5809450839"><ele>175.45</ele><time>2026-08-18T17:35:27Z</time></trkpt><trkpt lat="59.3465854973" lon="34.5809379593"><ele>175.67</ele><time>2026-08-18T17:35:32Z</time></trkpt><trkpt lat="59.3466113973" lon="34.5809327625"><ele>175.44</ele><time>2026-08-18T17:35:34Z</time></trkpt><trkpt lat="59.3467185181" lon="34.5809746720"><ele>175.93</ele><time>2026-08-18T17:35:48Z</time></trkpt><trkpt lat="59.3467283249" lon="34.5809726603"><ele>174.78</ele><time>2026-08-18T17:36:14Z</time></trkpt><trkpt lat="59.3467254750" lon="34.5809680503"><ele>175.39</ele><time>2026-08-18T17:37:00Z</time></trkpt><trkpt lat="59.3467441667" lon="34.5809602551"><ele>175.28</ele><time>2026-08-18T17:37:38Z</time></trkpt><trkpt lat="59.3467988167" lon="34.5809566509"><ele>175.75</ele><time>2026-08-18T17:37:43Z</time></trkpt><trkpt lat="59.3468174245" lon="34.5809618477"><ele>175.64</ele><time>2026-08-18T17:37:45Z</time></trkpt><trkpt lat="59.3469097931" lon="34.5810080320"><ele>175.56</ele><time>2026-08-18T17:38:00Z</time></trkpt><trkpt lat="59.3469717354" lon="34.5809749234"><ele>175.32</ele><time>2026-08-18T17:38:20Z</time></trkpt><trkpt lat="59.3470175844" lon="34.5809781924"><ele>175.56</ele><time>2026-08-18T17:38:40Z</time></trkpt><trkpt lat="59.3470980506" lon="34.5809837244"><ele>174.96</ele><time>2026-08-18T17:39:09Z</time></trkpt><trkpt lat="59.3471854739" lon="34.5810134802"><ele>175.38</ele><time>2026-08-18T17:39:21Z</time></trkpt><trkpt lat="59.3472100329" lon="34.5809867419"><ele>174.92</ele><time>2026-08-18T17:39:48Z</time></trkpt><trkpt lat="59.3471927661" lon="34.5810000692"><ele>175.10</ele><time>2026-08-18T17:40:38Z</time></trkpt><trkpt lat="59.3472381961" lon="34.5809740853"><ele>174.96</ele><time>2026-08-18T17:41:26Z</time></trkpt><trkpt lat="59.3473216798" lon="34.5809728280"><ele>174.80</ele><time>2026-08-18T17:41:44Z</time></trkpt><trkpt lat="59.3473343365" lon="34.5809664577"><ele>171.90</ele><time>2026-08-18T17:41:47Z</time></trkpt><trkpt lat="59.3473358452" lon="34.5809571538"><ele>175.15</ele><time>2026-08-18T17:41:52Z</time></trkpt><trkpt lat="59.3473354261" lon="34.5809573215"><ele>174.92</ele><time>2026-08-18T17:41:53Z</time></trkpt><trkpt lat="59.3474296387" lon="34.5809741691"><ele>174.70</ele><time>2026-08-18T17:42:12Z</time></trkpt><trkpt lat="59.3474936765" lon="34.5809377916"><ele>176.81</ele><time>2026-08-18T17:42:25Z</time></trkpt><trkpt lat="59.3474950176" lon="34.5809377916"><ele>176.81</ele><time>2026-08-18T17:42:26Z</time></trkpt><trkpt lat="59.3474941794" lon="34.5809454191"><ele>175.23</ele><time>2026-08-18T17:42:31Z</time></trkpt><trkpt lat="59.3475467339" lon="34.5809656195"><ele>175.62</ele><time>2026-08-18T17:42:48Z</time></trkpt><trkpt lat="59.3475853745" lon="34.5809672959"><ele>174.74</ele><time>2026-08-18T17:43:05Z</time></trkpt><trkpt lat="59.3476294633" lon="34.5809386298"><ele>175.53</ele><time>2026-08-18T17:43:21Z</time></trkpt><trkpt lat="59.3476598896" lon="34.5809188485"><ele>174.91</ele><time>2026-08-18T17:43:54Z</time></trkpt><trkpt lat="59.3476611469" lon="34.5809082873"><ele>174.17</ele><time>2026-08-18T17:44:37Z</time></trkpt><trkpt lat="59.3476640806" lon="34.5809234586"><ele>175.12</ele><time>2026-08-18T17:45:31Z</time></trkpt><trkpt lat="59.3476682715" lon="34.5809220336"><ele>175.12</ele><time>2026-08-18T17:46:12Z</time></trkpt><trkpt lat="59.3476878852" lon="34.5809079520"><ele>174.93</ele><time>2026-08-18T17:47:11Z</time></trkpt><trkpt lat="59.3477793317" lon="34.5809363667"><ele>175.34</ele><time>2026-08-18T17:47:26Z</time></trkpt><trkpt lat="59.3478079978" lon="34.5808933675"><ele>175.51</ele><time>2026-08-18T17:47:41Z</time></trkpt><trkpt lat="59.3478346523" lon="34.5809105504"><ele>175.39</ele><time>2026-08-18T17:48:02Z</time></trkpt><trkpt lat="59.3478431180" lon="34.5809395518"><ele>175.35</ele><time>2026-08-18T17:48:15Z</time></trkpt><trkpt lat="59.3478760589" lon="34.5809370372"><ele>174.91</ele><time>2026-08-18T17:48:29Z</time></trkpt><trkpt lat="59.3478732929" lon="34.5809342712"><ele>176.28</ele><time>2026-08-18T17:48:35Z</time></trkpt><trkpt lat="59.3479356542" lon="34.5809206925"><ele>175.69</ele><time>2026-08-18T17:48:53Z</time></trkpt><trkpt lat="59.3479585368" lon="34.5809641946"><ele>174.41</ele><time>2026-08-18T17:49:02Z</time></trkpt><trkpt lat="59.3480164558" lon="34.5810045954"><ele>175.50</ele><time>2026-08-18T17:49:12Z</time></trkpt><trkpt lat="59.3480429426" lon="34.5809762646"><ele>176.57</ele><time>2026-08-18T17:49:34Z</time></trkpt><trkpt lat="59.3480895460" lon="34.5809391327"><ele>175.76</ele><time>2026-08-18T17:49:55Z</time></trkpt><trkpt lat="59.3481052201" lon="34.5809060242"><ele>175.65</ele><time>2026-08-18T17:50:12Z</time></trkpt><trkpt lat="59.3480917253" lon="34.5809266437"><ele>175.51</ele><time>2026-08-18T17:50:37Z</time></trkpt><trkpt lat="59.3481060583" lon="34.5809155796"><ele>177.34</ele><time>2026-08-18T17:51:19Z</time></trkpt><trkpt lat="59.3481054716" lon="34.5809151605"><ele>176.13</ele><time>2026-08-18T17:51:21Z</time></trkpt><trkpt lat="59.3480923958" lon="34.5809260570"><ele>175.86</ele><time>2026-08-18T17:51:43Z</time></trkpt><trkpt lat="59.3480913900" lon="34.5809230395"><ele>175.75</ele><time>2026-08-18T17:52:25Z</time></trkpt><trkpt lat="59.3480909709" lon="34.5809163339"><ele>175.77</ele><time>2026-08-18T17:53:13Z</time></trkpt><trkpt lat="59.3481423520" lon="34.5808774419"><ele>175.90</ele><time>2026-08-18T17:53:26Z</time></trkpt><trkpt lat="59.3481895421" lon="34.5808731671"><ele>175.91</ele><time>2026-08-18T17:53:39Z</time></trkpt><trkpt lat="59.3482382409" lon="34.5808744244"><ele>175.77</ele><time>2026-08-18T17:53:57Z</time></trkpt><trkpt lat="59.3482825812" lon="34.5808907691"><ele>176.25</ele><time>2026-08-18T17:54:11Z</time></trkpt><trkpt lat="59.3483182881" lon="34.5808771905"><ele>176.53</ele><time>2026-08-18T17:54:24Z</time></trkpt><trkpt lat="59.3483488820" lon="34.5808713231"><ele>172.54</ele><time>2026-08-18T17:54:45Z</time></trkpt><trkpt lat="59.3483498879" lon="34.5808705688"><ele>178.60</ele><time>2026-08-18T17:54:46Z</time></trkpt><trkpt lat="59.3483951502" lon="34.5808900986"><ele>176.05</ele><time>2026-08-18T17:55:07Z</time></trkpt><trkpt lat="59.3484408315" lon="34.5809107181"><ele>174.84</ele><time>2026-08-18T17:55:23Z</time></trkpt><trkpt lat="59.3485320266" lon="34.5809440780"><ele>174.72</ele><time>2026-08-18T17:55:45Z</time></trkpt><trkpt lat="59.3485591840" lon="34.5809387974"><ele>174.20</ele><time>2026-08-18T17:56:01Z</time></trkpt><trkpt lat="59.3486217968" lon="34.5809262246"><ele>174.77</ele><time>2026-08-18T17:56:16Z</time></trkpt><trkpt lat="59.3486101460" lon="34.5809505321"><ele>174.33</ele><time>2026-08-18T17:57:01Z</time></trkpt><trkpt lat="59.3486136664" lon="34.5809459221"><ele>174.24</ele><time>2026-08-18T17:58:00Z</time></trkpt><trkpt lat="59.3486350402" lon="34.5809326787"><ele>172.91</ele><time>2026-08-18T17:58:25Z</time></trkpt><trkpt lat="59.3486428354" lon="34.5808828901"><ele>173.65</ele><time>2026-08-18T17:58:42Z</time></trkpt><trkpt lat="59.3486963958" lon="34.5808970556"><ele>175.01</ele><time>2026-08-18T17:58:58Z</time></trkpt><trkpt lat="59.3487521354" lon="34.5808892604"><ele>173.97</ele><time>2026-08-18T17:59:10Z</time></trkpt><trkpt lat="59.3487914465" lon="34.5808855724"><ele>174.58</ele><time>2026-08-18T17:59:23Z</time></trkpt><trkpt lat="59.3488419894" lon="34.5808592532"><ele>173.52</ele><time>2026-08-18T17:59:38Z</time></trkpt><trkpt lat="59.3488821387" lon="34.5808274858"><ele>173.32</ele><time>2026-08-18T17:59:52Z</time></trkpt><trkpt lat="59.3489278201" lon="34.5809272304"><ele>173.20</ele><time>2026-08-18T18:00:17Z</time></trkpt><trkpt lat="59.3489981443" lon="34.5809431560"><ele>173.36</ele><time>2026-08-18T18:00:43Z</time></trkpt><trkpt lat="59.3489929475" lon="34.5809521247"><ele>173.82</ele><time>2026-08-18T18:01:19Z</time></trkpt><trkpt lat="59.3489927799" lon="34.5809507836"><ele>173.23</ele><time>2026-08-18T18:02:05Z</time></trkpt><trkpt lat="59.3489907682" lon="34.5809651166"><ele>173.35</ele><time>2026-08-18T18:02:35Z</time></trkpt><trkpt lat="59.3489871640" lon="34.5809431560"><ele>173.32</ele><time>2026-08-18T18:03:13Z</time></trkpt><trkpt lat="59.3489917740" lon="34.5809136517"><ele>173.29</ele><time>2026-08-18T18:03:52Z</time></trkpt><trkpt lat="59.3489845656" lon="34.5809029229"><ele>173.29</ele><time>2026-08-18T18:04:56Z</time></trkpt><trkpt lat="59.3489805423" lon="34.5808948763"><ele>173.33</ele><time>2026-08-18T18:05:40Z</time></trkpt><trkpt lat="59.3489894271" lon="34.5809053537"><ele>173.50</ele><time>2026-08-18T18:06:34Z</time></trkpt><trkpt lat="59.3489990663" lon="34.5809061918"><ele>173.53</ele><time>2026-08-18T18:07:31Z</time></trkpt><trkpt lat="59.3489892595" lon="34.5809074491"><ele>174.95</ele><time>2026-08-18T18:08:08Z</time></trkpt><trkpt lat="59.3489939533" lon="34.5809122268"><ele>173.40</ele><time>2026-08-18T18:08:41Z</time></trkpt><trkpt lat="59.3490074482" lon="34.5807962213"><ele>173.59</ele><time>2026-08-18T18:09:11Z</time></trkpt><trkpt lat="59.3490012456" lon="34.5805899426"><ele>173.43</ele><time>2026-08-18T18:09:25Z</time></trkpt><trkpt lat="59.3489949591" lon="34.5804129168"><ele>173.31</ele><time>2026-08-18T18:09:39Z</time></trkpt><trkpt lat="59.3490201887" lon="34.5802273415"><ele>173.30</ele><time>2026-08-18T18:09:52Z</time></trkpt><trkpt lat="59.3490334321" lon="34.5801234897"><ele>173.69</ele><time>2026-08-18T18:10:05Z</time></trkpt><trkpt lat="59.3490430713" lon="34.5800979249"><ele>173.44</ele><time>2026-08-18T18:10:37Z</time></trkpt><trkpt lat="59.3490666244" lon="34.5800717734"><ele>173.71</ele><time>2026-08-18T18:10:41Z</time></trkpt><trkpt lat="59.3491164967" lon="34.5799849369"><ele>173.68</ele><time>2026-08-18T18:10:53Z</time></trkpt><trkpt lat="59.3491072766" lon="34.5800055563"><ele>173.05</ele><time>2026-08-18T18:11:23Z</time></trkpt><trkpt lat="59.3491130602" lon="34.5799999405"><ele>173.22</ele><time>2026-08-18T18:12:15Z</time></trkpt><trkpt lat="59.3490966316" lon="34.5799982641"><ele>173.36</ele><time>2026-08-18T18:13:07Z</time></trkpt><trkpt lat="59.3490317557" lon="34.5800224878"><ele>173.27</ele><time>2026-08-18T18:13:31Z</time></trkpt><trkpt lat="59.3489643652" lon="34.5800255891"><ele>173.19</ele><time>2026-08-18T18:13:50Z</time></trkpt><trkpt lat="59.3489342742" lon="34.5800375752"><ele>172.57</ele><time>2026-08-18T18:13:55Z</time></trkpt><trkpt lat="59.3489056919" lon="34.5800563507"><ele>174.10</ele><time>2026-08-18T18:14:03Z</time></trkpt><trkpt lat="59.3488242198" lon="34.5799965877"><ele>174.24</ele><time>2026-08-18T18:14:30Z</time></trkpt><trkpt lat="59.3487473577" lon="34.5799561869"><ele>173.97</ele><time>2026-08-18T18:14:50Z</time></trkpt><trkpt lat="59.3487301748" lon="34.5799345616"><ele>175.34</ele><time>2026-08-18T18:14:55Z</time></trkpt><trkpt lat="59.3486760277" lon="34.5799468830"><ele>173.90</ele><time>2026-08-18T18:15:13Z</time></trkpt><trkpt lat="59.3486301787" lon="34.5799515769"><ele>175.14</ele><time>2026-08-18T18:15:30Z</time></trkpt><trkpt lat="59.3486356270" lon="34.5799599588"><ele>173.34</ele><time>2026-08-18T18:15:38Z</time></trkpt><trkpt lat="59.3486160971" lon="34.5799535885"><ele>175.31</ele><time>2026-08-18T18:16:01Z</time></trkpt><trkpt lat="59.3486368842" lon="34.5800066460"><ele>175.30</ele><time>2026-08-18T18:16:43Z</time></trkpt><trkpt lat="59.3486378901" lon="34.5800230745"><ele>175.15</ele><time>2026-08-18T18:17:19Z</time></trkpt><trkpt lat="59.3485965673" lon="34.5799689274"><ele>174.80</ele><time>2026-08-18T18:17:32Z</time></trkpt><trkpt lat="59.3485874310" lon="34.5799774770"><ele>175.82</ele><time>2026-08-18T18:17:38Z</time></trkpt><trkpt lat="59.3485568371" lon="34.5799882896"><ele>175.26</ele><time>2026-08-18T18:18:02Z</time></trkpt><trkpt lat="59.3484391551" lon="34.5799876191"><ele>175.50</ele><time>2026-08-18T18:18:32Z</time></trkpt><trkpt lat="59.3483868521" lon="34.5800040476"><ele>174.21</ele><time>2026-08-18T18:18:41Z</time></trkpt><trkpt lat="59.3483830802" lon="34.5800099988"><ele>176.35</ele><time>2026-08-18T18:18:46Z</time></trkpt><trkpt lat="59.3483140972" lon="34.5799809135"><ele>175.75</ele><time>2026-08-18T18:19:12Z</time></trkpt><trkpt lat="59.3482948188" lon="34.5799785666"><ele>175.03</ele><time>2026-08-18T18:19:23Z</time></trkpt><trkpt lat="59.3482548371" lon="34.5799617190"><ele>175.10</ele><time>2026-08-18T18:19:43Z</time></trkpt><trkpt lat="59.3482113350" lon="34.5799288619"><ele>174.88</ele><time>2026-08-18T18:19:52Z</time></trkpt><trkpt lat="59.3481446989" lon="34.5799611323"><ele>175.33</ele><time>2026-08-18T18:20:11Z</time></trkpt><trkpt lat="59.3481236603" lon="34.5799470507"><ele>173.53</ele><time>2026-08-18T18:20:38Z</time></trkpt><trkpt lat="59.3481447827" lon="34.5799598750"><ele>175.39</ele><time>2026-08-18T18:21:18Z</time></trkpt><trkpt lat="59.3481450342" lon="34.5799460448"><ele>175.42</ele><time>2026-08-18T18:21:53Z</time></trkpt><trkpt lat="59.3481215648" lon="34.5799469668"><ele>173.14</ele><time>2026-08-18T18:22:31Z</time></trkpt><trkpt lat="59.3481206428" lon="34.5799542591"><ele>175.34</ele><time>2026-08-18T18:22:37Z</time></trkpt><trkpt lat="59.3480783980" lon="34.5799279399"><ele>175.62</ele><time>2026-08-18T18:22:54Z</time></trkpt><trkpt lat="59.3480391707" lon="34.5798908919"><ele>175.97</ele><time>2026-08-18T18:23:13Z</time></trkpt><trkpt lat="59.3479747977" lon="34.5798773970"><ele>175.80</ele><time>2026-08-18T18:23:29Z</time></trkpt><trkpt lat="59.3479276914" lon="34.5798858628"><ele>173.06</ele><time>2026-08-18T18:23:33Z</time></trkpt><trkpt lat="59.3479097541" lon="34.5798884612"><ele>176.21</ele><time>2026-08-18T18:23:39Z</time></trkpt><trkpt lat="59.3478685990" lon="34.5798996929"><ele>175.72</ele><time>2026-08-18T18:23:51Z</time></trkpt><trkpt lat="59.3478053994" lon="34.5798975974"><ele>176.22</ele><time>2026-08-18T18:24:04Z</time></trkpt><trkpt lat="59.3477911502" lon="34.5799315441"><ele>176.06</ele><time>2026-08-18T18:24:16Z</time></trkpt><trkpt lat="59.3477250170" lon="34.5799117628"><ele>175.93</ele><time>2026-08-18T18:24:31Z</time></trkpt><trkpt lat="59.3476739712" lon="34.5799022913"><ele>176.16</ele><time>2026-08-18T18:24:52Z</time></trkpt><trkpt lat="59.3476475682" lon="34.5798749663"><ele>174.03</ele><time>2026-08-18T18:25:18Z</time></trkpt><trkpt lat="59.3476473168" lon="34.5798745472"><ele>174.03</ele><time>2026-08-18T18:25:19Z</time></trkpt><trkpt lat="59.3476387672" lon="34.5799300354"><ele>175.15</ele><time>2026-08-18T18:26:13Z</time></trkpt><trkpt lat="59.3476188183" lon="34.5799083263"><ele>175.09</ele><time>2026-08-18T18:26:57Z</time></trkpt><trkpt lat="59.3475905713" lon="34.5799373277"><ele>173.70</ele><time>2026-08-18T18:27:14Z</time></trkpt><trkpt lat="59.3475259468" lon="34.5799503196"><ele>172.88</ele><time>2026-08-18T18:27:32Z</time></trkpt><trkpt lat="59.3474878930" lon="34.5799329691"><ele>172.90</ele><time>2026-08-18T18:27:49Z</time></trkpt><trkpt lat="59.3474214245" lon="34.5799211506"><ele>172.87</ele><time>2026-08-18T18:28:09Z</time></trkpt><trkpt lat="59.3473564647" lon="34.5798971783"><ele>172.91</ele><time>2026-08-18T18:28:24Z</time></trkpt><trkpt lat="59.3472302333" lon="34.5799091645"><ele>172.88</ele><time>2026-08-18T18:28:41Z</time></trkpt><trkpt lat="59.3471997231" lon="34.5799046382"><ele>173.05</ele><time>2026-08-18T18:29:03Z</time></trkpt><trkpt lat="59.3471627589" lon="34.5798217412"><ele>173.60</ele><time>2026-08-18T18:29:25Z</time></trkpt><trkpt lat="59.3471500184" lon="34.5798413549"><ele>173.28</ele><time>2026-08-18T18:29:58Z</time></trkpt><trkpt lat="59.3471539579" lon="34.5798430312"><ele>173.23</ele><time>2026-08-18T18:30:56Z</time></trkpt><trkpt lat="59.3471156526" lon="34.5797990263"><ele>173.11</ele><time>2026-08-18T18:31:46Z</time></trkpt><trkpt lat="59.3470361922" lon="34.5798135269"><ele>172.97</ele><time>2026-08-18T18:32:03Z</time></trkpt><trkpt lat="59.3469839729" lon="34.5798588730"><ele>173.10</ele><time>2026-08-18T18:32:17Z</time></trkpt><trkpt lat="59.3469015788" lon="34.5798302907"><ele>172.85</ele><time>2026-08-18T18:32:35Z</time></trkpt><trkpt lat="59.3468599208" lon="34.5798152871"><ele>172.72</ele><time>2026-08-18T18:32:56Z</time></trkpt><trkpt lat="59.3467926979" lon="34.5798148680"><ele>173.38</ele><time>2026-08-18T18:33:08Z</time></trkpt><trkpt lat="59.3467483576" lon="34.5798115991"><ele>171.90</ele><time>2026-08-18T18:33:16Z</time></trkpt><trkpt lat="59.3467439990" lon="34.5798208192"><ele>173.25</ele><time>2026-08-18T18:33:21Z</time></trkpt><trkpt lat="59.3467073701" lon="34.5798195619"><ele>172.32</ele><time>2026-08-18T18:33:45Z</time></trkpt><trkpt lat="59.3466602638" lon="34.5797913987"><ele>173.40</ele><time>2026-08-18T18:34:14Z</time></trkpt><trkpt lat="59.3466537260" lon="34.5798200648"><ele>172.60</ele><time>2026-08-18T18:34:38Z</time></trkpt><trkpt lat="59.3466201983" lon="34.5798141975"><ele>174.07</ele><time>2026-08-18T18:34:59Z</time></trkpt><trkpt lat="59.3466203660" lon="34.5798141975"><ele>173.20</ele><time>2026-08-18T18:35:01Z</time></trkpt><trkpt lat="59.3466182705" lon="34.5798087493"><ele>173.10</ele><time>2026-08-18T18:35:22Z</time></trkpt><trkpt lat="59.3466238864" lon="34.5798590407"><ele>172.93</ele><time>2026-08-18T18:35:51Z</time></trkpt><trkpt lat="59.3465828989" lon="34.5798169635"><ele>173.53</ele><time>2026-08-18T18:36:24Z</time></trkpt><trkpt lat="59.3465057854" lon="34.5798237529"><ele>173.47</ele><time>2026-08-18T18:36:38Z</time></trkpt><trkpt lat="59.3464911170" lon="34.5798129402"><ele>172.48</ele><time>2026-08-18T18:36:43Z</time></trkpt><trkpt lat="59.3464492913" lon="34.5798283629"><ele>173.39</ele><time>2026-08-18T18:36:56Z</time></trkpt><trkpt lat="59.3464091420" lon="34.5798173826"><ele>173.37</ele><time>2026-08-18T18:37:11Z</time></trkpt><trkpt lat="59.3463643827" lon="34.5798819233"><ele>174.23</ele><time>2026-08-18T18:37:26Z</time></trkpt><trkpt lat="59.3463032786" lon="34.5798847731"><ele>173.11</ele><time>2026-08-18T18:37:42Z</time></trkpt><trkpt lat="59.3463001773" lon="34.5798784867"><ele>174.37</ele><time>2026-08-18T18:37:47Z</time></trkpt><trkpt lat="59.3462308589" lon="34.5798574481"><ele>174.34</ele><time>2026-08-18T18:38:30Z</time></trkpt><trkpt lat="59.3461982533" lon="34.5798516646"><ele>174.62</ele><time>2026-08-18T18:38:57Z</time></trkpt><trkpt lat="59.3461474590" lon="34.5797760598"><ele>174.44</ele><time>2026-08-18T18:39:13Z</time></trkpt><trkpt lat="59.3461218942" lon="34.5797622297"><ele>174.97</ele><time>2026-08-18T18:39:29Z</time></trkpt><trkpt lat="59.3461164460" lon="34.5797712822"><ele>174.68</ele><time>2026-08-18T18:39:57Z</time></trkpt><trkpt lat="59.3461002689" lon="34.5797869563"><ele>174.71</ele><time>2026-08-18T18:40:30Z</time></trkpt><trkpt lat="59.3461097404" lon="34.5798046421"><ele>175.02</ele><time>2026-08-18T18:41:09Z</time></trkpt><trkpt lat="59.3460621312" lon="34.5797894709"><ele>175.02</ele><time>2026-08-18T18:41:54Z</time></trkpt><trkpt lat="59.3460460380" lon="34.5797623973"><ele>175.42</ele><time>2026-08-18T18:42:22Z</time></trkpt><trkpt lat="59.3460106663" lon="34.5797209907"><ele>172.71</ele><time>2026-08-18T18:42:43Z</time></trkpt><trkpt lat="59.3460087385" lon="34.5797225833"><ele>176.98</ele><time>2026-08-18T18:42:45Z</time></trkpt><trkpt lat="59.3460063916" lon="34.5797255170"><ele>176.29</ele><time>2026-08-18T18:42:46Z</time></trkpt><trkpt lat="59.3459984288" lon="34.5797989424"><ele>176.43</ele><time>2026-08-18T18:43:05Z</time></trkpt><trkpt lat="59.3459906336" lon="34.5798552688"><ele>176.68</ele><time>2026-08-18T18:43:37Z</time></trkpt><trkpt lat="59.3459350616" lon="34.5798558556"><ele>177.57</ele><time>2026-08-18T18:43:56Z</time></trkpt><trkpt lat="59.3458457943" lon="34.5798479766"><ele>178.46</ele><time>2026-08-18T18:44:25Z</time></trkpt><trkpt lat="59.3457374163" lon="34.5798605494"><ele>178.66</ele><time>2026-08-18T18:44:53Z</time></trkpt><trkpt lat="59.3456820957" lon="34.5798457973"><ele>179.85</ele><time>2026-08-18T18:45:09Z</time></trkpt><trkpt lat="59.3456331454" lon="34.5797951706"><ele>179.10</ele><time>2026-08-18T18:45:35Z</time></trkpt><trkpt lat="59.3455564510" lon="34.5796554442"><ele>179.52</ele><time>2026-08-18T18:45:57Z</time></trkpt><trkpt lat="59.3455242645" lon="34.5796645805"><ele>178.80</ele><time>2026-08-18T18:46:27Z</time></trkpt><trkpt lat="59.3455054890" lon="34.5796509180"><ele>178.62</ele><time>2026-08-18T18:47:17Z</time></trkpt><trkpt lat="59.3454981968" lon="34.5796884689"><ele>179.07</ele><time>2026-08-18T18:47:50Z</time></trkpt><trkpt lat="59.3454876356" lon="34.5796894748"><ele>179.37</ele><time>2026-08-18T18:48:33Z</time></trkpt><trkpt lat="59.3455006275" lon="34.5796394348"><ele>179.40</ele><time>2026-08-18T18:49:09Z</time></trkpt><trkpt lat="59.3455361668" lon="34.5796329807"><ele>179.54</ele><time>2026-08-18T18:49:51Z</time></trkpt><trkpt lat="59.3455283716" lon="34.5796441287"><ele>179.54</ele><time>2026-08-18T18:50:09Z</time></trkpt><trkpt lat="59.3454924971" lon="34.5796636585"><ele>179.94</ele><time>2026-08-18T18:50:29Z</time></trkpt><trkpt lat="59.3453883938" lon="34.5796918217"><ele>179.77</ele><time>2026-08-18T18:50:44Z</time></trkpt><trkpt lat="59.3452876434" lon="34.5796975214"><ele>179.90</ele><time>2026-08-18T18:51:00Z</time></trkpt><trkpt lat="59.3452526908" lon="34.5797149558"><ele>179.65</ele><time>2026-08-18T18:51:08Z</time></trkpt><trkpt lat="59.3451839592" lon="34.5796522591"><ele>180.60</ele><time>2026-08-18T18:51:19Z</time></trkpt><trkpt lat="59.3451841269" lon="34.5796535164"><ele>180.60</ele><time>2026-08-18T18:51:20Z</time></trkpt><trkpt lat="59.3451852165" lon="34.5796744712"><ele>176.22</ele><time>2026-08-18T18:51:34Z</time></trkpt><trkpt lat="59.3451846298" lon="34.5796759799"><ele>180.19</ele><time>2026-08-18T18:51:35Z</time></trkpt><trkpt lat="59.3451873120" lon="34.5796649996"><ele>179.46</ele><time>2026-08-18T18:52:04Z</time></trkpt><trkpt lat="59.3452075962" lon="34.5797121897"><ele>179.55</ele><time>2026-08-18T18:52:27Z</time></trkpt><trkpt lat="59.3452359270" lon="34.5797193982"><ele>178.17</ele><time>2026-08-18T18:52:40Z</time></trkpt><trkpt lat="59.3452535290" lon="34.5797210746"><ele>179.65</ele><time>2026-08-18T18:52:45Z</time></trkpt><trkpt lat="59.3453220930" lon="34.5797187276"><ele>179.86</ele><time>2026-08-18T18:53:03Z</time></trkpt><trkpt lat="59.3453508429" lon="34.5796320587"><ele>179.24</ele><time>2026-08-18T18:53:58Z</time></trkpt><trkpt lat="59.3453256972" lon="34.5794830285"><ele>178.35</ele><time>2026-08-18T18:54:07Z</time></trkpt><trkpt lat="59.3453203328" lon="34.5794211701"><ele>179.07</ele><time>2026-08-18T18:54:34Z</time></trkpt><trkpt lat="59.3452554569" lon="34.5792233571"><ele>178.77</ele><time>2026-08-18T18:55:00Z</time></trkpt><trkpt lat="59.3452250306" lon="34.5791779272"><ele>180.10</ele><time>2026-08-18T18:55:40Z</time></trkpt><trkpt lat="59.3452245276" lon="34.5791763347"><ele>179.33</ele><time>2026-08-18T18:55:41Z</time></trkpt><trkpt lat="59.3452151399" lon="34.5792215969"><ele>178.87</ele><time>2026-08-18T18:56:13Z</time></trkpt><trkpt lat="59.3452155590" lon="34.5792297274"><ele>177.43</ele><time>2026-08-18T18:56:36Z</time></trkpt><trkpt lat="59.3452125415" lon="34.5792308170"><ele>179.08</ele><time>2026-08-18T18:56:41Z</time></trkpt><trkpt lat="59.3452204205" lon="34.5790870674"><ele>178.66</ele><time>2026-08-18T18:57:19Z</time></trkpt><trkpt lat="59.3452255335" lon="34.5788120572"><ele>176.70</ele><time>2026-08-18T18:57:34Z</time></trkpt><trkpt lat="59.3452252820" lon="34.5786612667"><ele>177.81</ele><time>2026-08-18T18:58:00Z</time></trkpt><trkpt lat="59.3452495895" lon="34.5785597619"><ele>176.93</ele><time>2026-08-18T18:58:22Z</time></trkpt><trkpt lat="59.3452388607" lon="34.5785625279"><ele>176.80</ele><time>2026-08-18T18:58:45Z</time></trkpt><trkpt lat="59.3452493381" lon="34.5785951335"><ele>177.01</ele><time>2026-08-18T18:59:05Z</time></trkpt><trkpt lat="59.3452379387" lon="34.5786211174"><ele>177.19</ele><time>2026-08-18T18:59:28Z</time></trkpt><trkpt lat="59.3452391960" lon="34.5786204468"><ele>177.19</ele><time>2026-08-18T19:00:12Z</time></trkpt><trkpt lat="59.3452625815" lon="34.5785953850"><ele>176.57</ele><time>2026-08-18T19:00:42Z</time></trkpt><trkpt lat="59.3453183211" lon="34.5786154177"><ele>177.58</ele><time>2026-08-18T19:00:53Z</time></trkpt><trkpt lat="59.3453507591" lon="34.5785838179"><ele>177.18</ele><time>2026-08-18T19:01:04Z</time></trkpt><trkpt lat="59.3453970272" lon="34.5785673894"><ele>177.09</ele><time>2026-08-18T19:01:18Z</time></trkpt><trkpt lat="59.3454314768" lon="34.5785420761"><ele>177.39</ele><time>2026-08-18T19:01:54Z</time></trkpt><trkpt lat="59.3454559520" lon="34.5785503741"><ele>177.21</ele><time>2026-08-18T19:02:27Z</time></trkpt><trkpt lat="59.3454781640" lon="34.5785657968"><ele>178.22</ele><time>2026-08-18T19:03:04Z</time></trkpt><trkpt lat="59.3454590533" lon="34.5785283297"><ele>177.58</ele><time>2026-08-18T19:03:49Z</time></trkpt><trkpt lat="59.3454744760" lon="34.5785184391"><ele>177.10</ele><time>2026-08-18T19:04:25Z</time></trkpt><trkpt lat="59.3455316406" lon="34.5785332751"><ele>177.95</ele><time>2026-08-18T19:04:40Z</time></trkpt><trkpt lat="59.3456109334" lon="34.5785579178"><ele>179.14</ele><time>2026-08-18T19:05:03Z</time></trkpt><trkpt lat="59.3456558604" lon="34.5785493683"><ele>179.04</ele><time>2026-08-18T19:05:25Z</time></trkpt><trkpt lat="59.3457733747" lon="34.5785006694"><ele>180.36</ele><time>2026-08-18T19:05:44Z</time></trkpt><trkpt lat="59.3458340596" lon="34.5785299223"><ele>180.81</ele><time>2026-08-18T19:05:51Z</time></trkpt><trkpt lat="59.3458951637" lon="34.5784821454"><ele>180.60</ele><time>2026-08-18T19:06:11Z</time></trkpt><trkpt lat="59.3459770549" lon="34.5785012562"><ele>180.89</ele><time>2026-08-18T19:06:27Z</time></trkpt><trkpt lat="59.3460504804" lon="34.5785731729"><ele>181.11</ele><time>2026-08-18T19:06:51Z</time></trkpt><trkpt lat="59.3460422661" lon="34.5785741787"><ele>181.09</ele><time>2026-08-18T19:07:40Z</time></trkpt><trkpt lat="59.3460322917" lon="34.5785487816"><ele>181.21</ele><time>2026-08-18T19:08:02Z</time></trkpt><trkpt lat="59.3460652325" lon="34.5785317663"><ele>181.05</ele><time>2026-08-18T19:08:50Z</time></trkpt><trkpt lat="59.3461311981" lon="34.5785326883"><ele>181.21</ele><time>2026-08-18T19:09:06Z</time></trkpt><trkpt lat="59.3462006841" lon="34.5784864202"><ele>179.88</ele><time>2026-08-18T19:09:16Z</time></trkpt><trkpt lat="59.3462769594" lon="34.5784037746"><ele>179.24</ele><time>2026-08-18T19:09:32Z</time></trkpt><trkpt lat="59.3463331182" lon="34.5782792196"><ele>179.90</ele><time>2026-08-18T19:09:50Z</time></trkpt><trkpt lat="59.3464103993" lon="34.5782402437"><ele>180.12</ele><time>2026-08-18T19:10:07Z</time></trkpt><trkpt lat="59.3464700785" lon="34.5783366356"><ele>180.12</ele><time>2026-08-18T19:10:29Z</time></trkpt><trkpt lat="59.3464878481" lon="34.5784107316"><ele>179.97</ele><time>2026-08-18T19:10:51Z</time></trkpt><trkpt lat="59.3465352897" lon="34.5785416570"><ele>179.60</ele><time>2026-08-18T19:11:11Z</time></trkpt><trkpt lat="59.3465475272" lon="34.5785046928"><ele>180.95</ele><time>2026-08-18T19:11:29Z</time></trkpt><trkpt lat="59.3465667218" lon="34.5784817263"><ele>180.88</ele><time>2026-08-18T19:12:13Z</time></trkpt><trkpt lat="59.3465662189" lon="34.5784812234"><ele>179.64</ele><time>2026-08-18T19:12:19Z</time></trkpt><trkpt lat="59.3465604354" lon="34.5784847438"><ele>179.43</ele><time>2026-08-18T19:13:06Z</time></trkpt><trkpt lat="59.3465658836" lon="34.5784879290"><ele>179.38</ele><time>2026-08-18T19:13:12Z</time></trkpt><trkpt lat="59.3465652969" lon="34.5785223786"><ele>180.89</ele><time>2026-08-18T19:13:31Z</time></trkpt><trkpt lat="59.3466157559" lon="34.5785167627"><ele>179.89</ele><time>2026-08-18T19:13:50Z</time></trkpt><trkpt lat="59.3466620240" lon="34.5785207022"><ele>179.66</ele><time>2026-08-18T19:13:58Z</time></trkpt><trkpt lat="59.3467581645" lon="34.5784927905"><ele>177.78</ele><time>2026-08-18T19:14:11Z</time></trkpt><trkpt lat="59.3468289077" lon="34.5784920361"><ele>177.15</ele><time>2026-08-18T19:14:31Z</time></trkpt><trkpt lat="59.3468425702" lon="34.5784559939"><ele>176.96</ele><time>2026-08-18T19:14:37Z</time></trkpt><trkpt lat="59.3469465896" lon="34.5784094743"><ele>176.32</ele><time>2026-08-18T19:14:50Z</time></trkpt><trkpt lat="59.3469659518" lon="34.5784021821"><ele>176.33</ele><time>2026-08-18T19:15:10Z</time></trkpt><trkpt lat="59.3470094539" lon="34.5784110669"><ele>176.80</ele><time>2026-08-18T19:15:21Z</time></trkpt><trkpt lat="59.3470319174" lon="34.5783901960"><ele>177.39</ele><time>2026-08-18T19:15:32Z</time></trkpt><trkpt lat="59.3470420595" lon="34.5783495437"><ele>175.49</ele><time>2026-08-18T19:16:11Z</time></trkpt><trkpt lat="59.3470507767" lon="34.5783437602"><ele>177.41</ele><time>2026-08-18T19:16:27Z</time></trkpt><trkpt lat="59.3470414728" lon="34.5783684868"><ele>176.16</ele><time>2026-08-18T19:17:20Z</time></trkpt><trkpt lat="59.3470451608" lon="34.5783187822"><ele>177.04</ele><time>2026-08-18T19:17:48Z</time></trkpt><trkpt lat="59.3470564764" lon="34.5783362165"><ele>177.31</ele><time>2026-08-18T19:18:17Z</time></trkpt><trkpt lat="59.3470721506" lon="34.5783417486"><ele>177.56</ele><time>2026-08-18T19:18:39Z</time></trkpt><trkpt lat="59.3470548838" lon="34.5783638768"><ele>177.51</ele><time>2026-08-18T19:19:33Z</time></trkpt><trkpt lat="59.3470798619" lon="34.5783295948"><ele>177.51</ele><time>2026-08-18T19:20:06Z</time></trkpt><trkpt lat="59.3470613379" lon="34.5783331990"><ele>177.62</ele><time>2026-08-18T19:20:54Z</time></trkpt><trkpt lat="59.3470367789" lon="34.5783287566"><ele>177.60</ele><time>2026-08-18T19:21:37Z</time></trkpt><trkpt lat="59.3470127229" lon="34.5782956481"><ele>177.59</ele><time>2026-08-18T19:22:09Z</time></trkpt><trkpt lat="59.3470100407" lon="34.5783024374"><ele>177.49</ele><time>2026-08-18T19:22:22Z</time></trkpt><trkpt lat="59.3470662832" lon="34.5783200394"><ele>177.85</ele><time>2026-08-18T19:22:51Z</time></trkpt><trkpt lat="59.3470798619" lon="34.5783160999"><ele>177.66</ele><time>2026-08-18T19:23:20Z</time></trkpt><trkpt lat="59.3471788522" lon="34.5783097297"><ele>176.93</ele><time>2026-08-18T19:23:42Z</time></trkpt><trkpt lat="59.3472302333" lon="34.5783498790"><ele>176.57</ele><time>2026-08-18T19:23:58Z</time></trkpt><trkpt lat="59.3472685385" lon="34.5783498790"><ele>176.19</ele><time>2026-08-18T19:24:12Z</time></trkpt><trkpt lat="59.3473674450" lon="34.5783315226"><ele>176.02</ele><time>2026-08-18T19:24:29Z</time></trkpt><trkpt lat="59.3474129587" lon="34.5783387311"><ele>175.79</ele><time>2026-08-18T19:24:49Z</time></trkpt><trkpt lat="59.3474455643" lon="34.5783431735"><ele>176.00</ele><time>2026-08-18T19:25:12Z</time></trkpt><trkpt lat="59.3474792596" lon="34.5783591829"><ele>176.48</ele><time>2026-08-18T19:25:29Z</time></trkpt><trkpt lat="59.3474866357" lon="34.5783630386"><ele>176.96</ele><time>2026-08-18T19:25:36Z</time></trkpt><trkpt lat="59.3475383520" lon="34.5783997513"><ele>173.71</ele><time>2026-08-18T19:25:55Z</time></trkpt><trkpt lat="59.3475517631" lon="34.5784163475"><ele>176.09</ele><time>2026-08-18T19:26:19Z</time></trkpt><trkpt lat="59.3475433812" lon="34.5784343686"><ele>172.67</ele><time>2026-08-18T19:26:27Z</time></trkpt><trkpt lat="59.3475424591" lon="34.5784341171"><ele>178.21</ele><time>2026-08-18T19:26:28Z</time></trkpt><trkpt lat="59.3475418724" lon="34.5784357935"><ele>178.21</ele><time>2026-08-18T19:26:29Z</time></trkpt><trkpt lat="59.3475340772" lon="34.5784453489"><ele>175.96</ele><time>2026-08-18T19:26:51Z</time></trkpt><trkpt lat="59.3475378491" lon="34.5784175210"><ele>175.67</ele><time>2026-08-18T19:27:29Z</time></trkpt><trkpt lat="59.3475385197" lon="34.5784014277"><ele>175.57</ele><time>2026-08-18T19:28:09Z</time></trkpt><trkpt lat="59.3475688621" lon="34.5783880167"><ele>175.08</ele><time>2026-08-18T19:28:33Z</time></trkpt><trkpt lat="59.3475780822" lon="34.5783849992"><ele>175.03</ele><time>2026-08-18T19:28:34Z</time></trkpt><trkpt lat="59.3476229254" lon="34.5783209614"><ele>175.52</ele><time>2026-08-18T19:28:49Z</time></trkpt><trkpt lat="59.3476297986" lon="34.5783233922"><ele>175.42</ele><time>2026-08-18T19:28:53Z</time></trkpt><trkpt lat="59.3476673495" lon="34.5783062931"><ele>175.41</ele><time>2026-08-18T19:29:08Z</time></trkpt><trkpt lat="59.3477270287" lon="34.5782826561"><ele>175.28</ele><time>2026-08-18T19:29:24Z</time></trkpt><trkpt lat="59.3477637414" lon="34.5782606956"><ele>174.97</ele><time>2026-08-18T19:29:40Z</time></trkpt><trkpt lat="59.3477751408" lon="34.5782598574"><ele>175.38</ele><time>2026-08-18T19:29:51Z</time></trkpt><trkpt lat="59.3478277791" lon="34.5782388188"><ele>174.55</ele><time>2026-08-18T19:30:06Z</time></trkpt><trkpt lat="59.3478988577" lon="34.5782338735"><ele>174.28</ele><time>2026-08-18T19:30:15Z</time></trkpt><trkpt lat="59.3479213212" lon="34.5782462787"><ele>175.94</ele><time>2026-08-18T19:30:31Z</time></trkpt><trkpt lat="59.3479206506" lon="34.5782608632"><ele>173.90</ele><time>2026-08-18T19:30:47Z</time></trkpt><trkpt lat="59.3479682598" lon="34.5783585962"><ele>174.19</ele><time>2026-08-18T19:31:05Z</time></trkpt><trkpt lat="59.3479833473" lon="34.5784042776"><ele>173.83</ele><time>2026-08-18T19:31:23Z</time></trkpt><trkpt lat="59.3480088282" lon="34.5784282498"><ele>173.88</ele><time>2026-08-18T19:31:51Z</time></trkpt><trkpt lat="59.3480184674" lon="34.5784396492"><ele>173.63</ele><time>2026-08-18T19:32:15Z</time></trkpt><trkpt lat="59.3480425235" lon="34.5784508809"><ele>173.53</ele><time>2026-08-18T19:32:51Z</time></trkpt><trkpt lat="59.3480496481" lon="34.5784342848"><ele>173.91</ele><time>2026-08-18T19:33:21Z</time></trkpt><trkpt lat="59.3480672501" lon="34.5784252323"><ele>173.77</ele><time>2026-08-18T19:34:01Z</time></trkpt><trkpt lat="59.3481267616" lon="34.5783943869"><ele>173.66</ele><time>2026-08-18T19:34:17Z</time></trkpt><trkpt lat="59.3481725268" lon="34.5783394855"><ele>173.64</ele><time>2026-08-18T19:34:31Z</time></trkpt><trkpt lat="59.3482287694" lon="34.5782979950"><ele>173.33</ele><time>2026-08-18T19:34:44Z</time></trkpt><trkpt lat="59.3483210541" lon="34.5782239828"><ele>174.33</ele><time>2026-08-18T19:35:03Z</time></trkpt><trkpt lat="59.3483511452" lon="34.5782991685"><ele>173.52</ele><time>2026-08-18T19:35:25Z</time></trkpt><trkpt lat="59.3483699206" lon="34.5783314388"><ele>173.82</ele><time>2026-08-18T19:35:43Z</time></trkpt><trkpt lat="59.3483932223" lon="34.5783803891"><ele>173.95</ele><time>2026-08-18T19:36:01Z</time></trkpt><trkpt lat="59.3484269176" lon="34.5783321932"><ele>173.58</ele><time>2026-08-18T19:36:22Z</time></trkpt><trkpt lat="59.3484609481" lon="34.5783341210"><ele>174.78</ele><time>2026-08-18T19:36:35Z</time></trkpt><trkpt lat="59.3485356309" lon="34.5783036947"><ele>174.67</ele><time>2026-08-18T19:36:50Z</time></trkpt><trkpt lat="59.3485373911" lon="34.5783015992"><ele>174.63</ele><time>2026-08-18T19:36:51Z</time></trkpt><trkpt lat="59.3485684879" lon="34.5782833267"><ele>175.12</ele><time>2026-08-18T19:37:04Z</time></trkpt><trkpt lat="59.3485716730" lon="34.5782662276"><ele>174.43</ele><time>2026-08-18T19:37:41Z</time></trkpt><trkpt lat="59.3485817313" lon="34.5782890264"><ele>174.27</ele><time>2026-08-18T19:38:15Z</time></trkpt><trkpt lat="59.3486241437" lon="34.5782495476"><ele>174.13</ele><time>2026-08-18T19:38:52Z</time></trkpt><trkpt lat="59.3487366289" lon="34.5781922992"><ele>173.63</ele><time>2026-08-18T19:39:11Z</time></trkpt><trkpt lat="59.3488536403" lon="34.5781566761"><ele>173.41</ele><time>2026-08-18T19:39:24Z</time></trkpt><trkpt lat="59.3489052728" lon="34.5781843364"><ele>173.30</ele><time>2026-08-18T19:39:46Z</time></trkpt><trkpt lat="59.3489870802" lon="34.5781416725"><ele>174.40</ele><time>2026-08-18T19:40:02Z</time></trkpt><trkpt lat="59.3489938695" lon="34.5781376492"><ele>174.41</ele><time>2026-08-18T19:40:08Z</time></trkpt><trkpt lat="59.3489994854" lon="34.5781706739"><ele>173.21</ele><time>2026-08-18T19:40:24Z</time></trkpt><trkpt lat="59.3490465917" lon="34.5781510603"><ele>173.50</ele><time>2026-08-18T19:40:40Z</time></trkpt><trkpt lat="59.3490577396" lon="34.5781560894"><ele>173.38</ele><time>2026-08-18T19:40:59Z</time></trkpt><trkpt lat="59.3490954582" lon="34.5781577658"><ele>173.08</ele><time>2026-08-18T19:41:41Z</time></trkpt><trkpt lat="59.3491075281" lon="34.5781933889"><ele>173.12</ele><time>2026-08-18T19:42:15Z</time></trkpt><trkpt lat="59.3491136469" lon="34.5782129187"><ele>173.13</ele><time>2026-08-18T19:42:58Z</time></trkpt><trkpt lat="59.3491777685" lon="34.5781865995"><ele>173.91</ele><time>2026-08-18T19:43:17Z</time></trkpt><trkpt lat="59.3493149802" lon="34.5781297702"><ele>174.38</ele><time>2026-08-18T19:43:34Z</time></trkpt><trkpt lat="59.3494108692" lon="34.5781381521"><ele>172.41</ele><time>2026-08-18T19:43:52Z</time></trkpt><trkpt lat="59.3494252861" lon="34.5781239867"><ele>174.35</ele><time>2026-08-18T19:43:55Z</time></trkpt><trkpt lat="59.3494978733" lon="34.5780959912"><ele>170.33</ele><time>2026-08-18T19:44:22Z</time></trkpt><trkpt lat="59.3495054170" lon="34.5780988410"><ele>170.19</ele><time>2026-08-18T19:44:23Z</time></trkpt><trkpt lat="59.3495098595" lon="34.5781022776"><ele>175.80</ele><time>2026-08-18T19:44:24Z</time></trkpt><trkpt lat="59.3495194986" lon="34.5781109948"><ele>175.47</ele><time>2026-08-18T19:44:25Z</time></trkpt><trkpt lat="59.3495524395" lon="34.5781152695"><ele>173.34</ele><time>2026-08-18T19:44:31Z</time></trkpt><trkpt lat="59.3495427165" lon="34.5781245735"><ele>173.28</ele><time>2026-08-18T19:45:00Z</time></trkpt><trkpt lat="59.3495597318" lon="34.5781062171"><ele>173.04</ele><time>2026-08-18T19:45:36Z</time></trkpt><trkpt lat="59.3495547865" lon="34.5781134255"><ele>172.96</ele><time>2026-08-18T19:46:01Z</time></trkpt><trkpt lat="59.3495527748" lon="34.5781002659"><ele>173.86</ele><time>2026-08-18T19:46:44Z</time></trkpt><trkpt lat="59.3495668564" lon="34.5781769603"><ele>173.10</ele><time>2026-08-18T19:47:03Z</time></trkpt><trkpt lat="59.3496212550" lon="34.5782199595"><ele>173.09</ele><time>2026-08-18T19:47:25Z</time></trkpt><trkpt lat="59.3496565428" lon="34.5781653933"><ele>171.14</ele><time>2026-08-18T19:47:32Z</time></trkpt><trkpt lat="59.3496737257" lon="34.5781545807"><ele>173.29</ele><time>2026-08-18T19:47:37Z</time></trkpt><trkpt lat="59.3496725522" lon="34.5781253278"><ele>173.34</ele><time>2026-08-18T19:47:58Z</time></trkpt><trkpt lat="59.3496683612" lon="34.5780450292"><ele>173.00</ele><time>2026-08-18T19:48:24Z</time></trkpt><trkpt lat="59.3496491667" lon="34.5779088233"><ele>172.88</ele><time>2026-08-18T19:48:49Z</time></trkpt><trkpt lat="59.3496236857" lon="34.5778380800"><ele>169.34</ele><time>2026-08-18T19:48:57Z</time></trkpt><trkpt lat="59.3496302236" lon="34.5778311230"><ele>169.34</ele><time>2026-08-18T19:48:58Z</time></trkpt><trkpt lat="59.3496110290" lon="34.5777866989"><ele>173.62</ele><time>2026-08-18T19:49:02Z</time></trkpt><trkpt lat="59.3496100232" lon="34.5777851902"><ele>173.13</ele><time>2026-08-18T19:49:03Z</time></trkpt><trkpt lat="59.3496193271" lon="34.5776884630"><ele>173.20</ele><time>2026-08-18T19:49:33Z</time></trkpt><trkpt lat="59.3496307265" lon="34.5776231680"><ele>170.44</ele><time>2026-08-18T19:49:47Z</time></trkpt><trkpt lat="59.3496322352" lon="34.5776019618"><ele>173.49</ele><time>2026-08-18T19:49:51Z</time></trkpt><trkpt lat="59.3496327382" lon="34.5775994472"><ele>173.21</ele><time>2026-08-18T19:49:52Z</time></trkpt><trkpt lat="59.3496410362" lon="34.5774397720"><ele>172.64</ele><time>2026-08-18T19:50:11Z</time></trkpt><trkpt lat="59.3496446405" lon="34.5774149615"><ele>174.21</ele><time>2026-08-18T19:50:14Z</time></trkpt><trkpt lat="59.3496423773" lon="34.5774082560"><ele>173.59</ele><time>2026-08-18T19:50:16Z</time></trkpt><trkpt lat="59.3496377673" lon="34.5774139557"><ele>172.81</ele><time>2026-08-18T19:50:37Z</time></trkpt><trkpt lat="59.3496376835" lon="34.5774003770"><ele>172.83</ele><time>2026-08-18T19:51:11Z</time></trkpt><trkpt lat="59.3496462330" lon="34.5773981977"><ele>173.61</ele><time>2026-08-18T19:51:37Z</time></trkpt><trkpt lat="59.3496502563" lon="34.5774034783"><ele>173.30</ele><time>2026-08-18T19:52:10Z</time></trkpt><trkpt lat="59.3496477418" lon="34.5773843676"><ele>172.99</ele><time>2026-08-18T19:52:55Z</time></trkpt><trkpt lat="59.3496398628" lon="34.5773901511"><ele>173.24</ele><time>2026-08-18T19:53:49Z</time></trkpt><trkpt lat="59.3496375997" lon="34.5773624908"><ele>173.30</ele><time>2026-08-18T19:54:31Z</time></trkpt><trkpt lat="59.3496320676" lon="34.5771474112"><ele>173.15</ele><time>2026-08-18T19:54:55Z</time></trkpt><trkpt lat="59.3496198300" lon="34.5769875683"><ele>173.09</ele><time>2026-08-18T19:55:12Z</time></trkpt><trkpt lat="59.3495929241" lon="34.5767960418"><ele>172.50</ele><time>2026-08-18T19:55:34Z</time></trkpt><trkpt lat="59.3495458178" lon="34.5768447407"><ele>173.14</ele><time>2026-08-18T19:56:08Z</time></trkpt><trkpt lat="59.3494467437" lon="34.5768566430"><ele>173.14</ele><time>2026-08-18T19:56:26Z</time></trkpt><trkpt lat="59.3494016491" lon="34.5769345947"><ele>172.94</ele><time>2026-08-18T19:56:46Z</time></trkpt><trkpt lat="59.3493442331" lon="34.5769022405"><ele>173.02</ele><time>2026-08-18T19:56:57Z</time></trkpt><trkpt lat="59.3492764235" lon="34.5769242849"><ele>173.32</ele><time>2026-08-18T19:57:12Z</time></trkpt><trkpt lat="59.3492320832" lon="34.5769763365"><ele>172.66</ele><time>2026-08-18T19:57:27Z</time></trkpt><trkpt lat="59.3492106255" lon="34.5769665297"><ele>170.98</ele><time>2026-08-18T19:57:50Z</time></trkpt><trkpt lat="59.3492109608" lon="34.5769634284"><ele>170.98</ele><time>2026-08-18T19:57:51Z</time></trkpt><trkpt lat="59.3492073566" lon="34.5769527834"><ele>174.02</ele><time>2026-08-18T19:58:07Z</time></trkpt><trkpt lat="59.3492066860" lon="34.5769501850"><ele>173.00</ele><time>2026-08-18T19:58:08Z</time></trkpt><trkpt lat="59.3492031656" lon="34.5769142266"><ele>173.93</ele><time>2026-08-18T19:58:56Z</time></trkpt><trkpt lat="59.3492092844" lon="34.5769232791"><ele>173.17</ele><time>2026-08-18T19:59:37Z</time></trkpt><trkpt lat="59.3492131401" lon="34.5769255422"><ele>173.18</ele><time>2026-08-18T20:00:21Z</time></trkpt><trkpt lat="59.3492151517" lon="34.5769261289"><ele>168.64</ele><time>2026-08-18T20:00:38Z</time></trkpt><trkpt lat="59.3492148165" lon="34.5769260451"><ele>175.27</ele><time>2026-08-18T20:00:39Z</time></trkpt><trkpt lat="59.3492147326" lon="34.5769262966"><ele>173.67</ele><time>2026-08-18T20:00:40Z</time></trkpt><trkpt lat="59.3492140621" lon="34.5769272186"><ele>173.80</ele><time>2026-08-18T20:00:45Z</time></trkpt><trkpt lat="59.3492286466" lon="34.5769229438"><ele>170.86</ele><time>2026-08-18T20:01:28Z</time></trkpt><trkpt lat="59.3492264673" lon="34.5769229438"><ele>170.86</ele><time>2026-08-18T20:01:29Z</time></trkpt><trkpt lat="59.3492222764" lon="34.5769258775"><ele>173.51</ele><time>2026-08-18T20:01:35Z</time></trkpt><trkpt lat="59.3492013216" lon="34.5768914279"><ele>173.33</ele><time>2026-08-18T20:02:00Z</time></trkpt><trkpt lat="59.3491169997" lon="34.5769216865"><ele>172.95</ele><time>2026-08-18T20:02:15Z</time></trkpt><trkpt lat="59.3489732500" lon="34.5768841356"><ele>172.81</ele><time>2026-08-18T20:02:38Z</time></trkpt><trkpt lat="59.3488820549" lon="34.5768598281"><ele>171.92</ele><time>2026-08-18T20:02:54Z</time></trkpt><trkpt lat="59.3488693982" lon="34.5768621750"><ele>173.35</ele><time>2026-08-18T20:02:59Z</time></trkpt><trkpt lat="59.3487699050" lon="34.5768637676"><ele>173.17</ele><time>2026-08-18T20:03:16Z</time></trkpt><trkpt lat="59.3487348687" lon="34.5768770948"><ele>173.39</ele><time>2026-08-18T20:03:33Z</time></trkpt><trkpt lat="59.3487216253" lon="34.5768754184"><ele>172.13</ele><time>2026-08-18T20:03:50Z</time></trkpt><trkpt lat="59.3487194460" lon="34.5768682938"><ele>173.62</ele><time>2026-08-18T20:04:34Z</time></trkpt><trkpt lat="59.3487291690" lon="34.5768581517"><ele>173.61</ele><time>2026-08-18T20:04:56Z</time></trkpt><trkpt lat="59.3486812245" lon="34.5768420584"><ele>174.29</ele><time>2026-08-18T20:05:34Z</time></trkpt><trkpt lat="59.3486228865" lon="34.5768336765"><ele>173.91</ele><time>2026-08-18T20:05:48Z</time></trkpt><trkpt lat="59.3485537358" lon="34.5767880790"><ele>173.56</ele><time>2026-08-18T20:06:04Z</time></trkpt><trkpt lat="59.3485215493" lon="34.5767948683"><ele>173.49</ele><time>2026-08-18T20:06:21Z</time></trkpt><trkpt lat="59.3484973256" lon="34.5768114645"><ele>173.20</ele><time>2026-08-18T20:06:44Z</time></trkpt><trkpt lat="59.3484221399" lon="34.5768556371"><ele>173.35</ele><time>2026-08-18T20:07:04Z</time></trkpt><trkpt lat="59.3483978324" lon="34.5768457465"><ele>171.18</ele><time>2026-08-18T20:07:14Z</time></trkpt><trkpt lat="59.3483928870" lon="34.5768496860"><ele>173.55</ele><time>2026-08-18T20:07:18Z</time></trkpt><trkpt lat="59.3483294360" lon="34.5768664498"><ele>173.02</ele><time>2026-08-18T20:07:43Z</time></trkpt><trkpt lat="59.3482554238" lon="34.5768559724"><ele>172.23</ele><time>2026-08-18T20:07:57Z</time></trkpt><trkpt lat="59.3482244946" lon="34.5768607501"><ele>172.80</ele><time>2026-08-18T20:08:29Z</time></trkpt><trkpt lat="59.3482177891" lon="34.5768651925"><ele>173.62</ele><time>2026-08-18T20:08:57Z</time></trkpt><trkpt lat="59.3482064735" lon="34.5768703893"><ele>173.24</ele><time>2026-08-18T20:09:41Z</time></trkpt><trkpt lat="59.3481977563" lon="34.5768755861"><ele>173.02</ele><time>2026-08-18T20:10:11Z</time></trkpt><trkpt lat="59.3481702637" lon="34.5768800285"><ele>173.19</ele><time>2026-08-18T20:10:36Z</time></trkpt><trkpt lat="59.3481027894" lon="34.5768388733"><ele>173.29</ele><time>2026-08-18T20:11:01Z</time></trkpt><trkpt lat="59.3480379973" lon="34.5768123865"><ele>173.22</ele><time>2026-08-18T20:11:24Z</time></trkpt><trkpt lat="59.3480511568" lon="34.5768743288"><ele>170.99</ele><time>2026-08-18T20:11:36Z</time></trkpt><trkpt lat="59.3480458762" lon="34.5768850576"><ele>174.20</ele><time>2026-08-18T20:11:40Z</time></trkpt><trkpt lat="59.3480457924" lon="34.5768864825"><ele>172.73</ele><time>2026-08-18T20:11:41Z</time></trkpt><trkpt lat="59.3480060622" lon="34.5768444892"><ele>173.70</ele><time>2026-08-18T20:12:09Z</time></trkpt><trkpt lat="59.3479470536" lon="34.5768426452"><ele>173.77</ele><time>2026-08-18T20:12:30Z</time></trkpt><trkpt lat="59.3479117658" lon="34.5768484287"><ele>173.55</ele><time>2026-08-18T20:12:50Z</time></trkpt><trkpt lat="59.3478090875" lon="34.5768504404"><ele>174.12</ele><time>2026-08-18T20:13:03Z</time></trkpt><trkpt lat="59.3477569520" lon="34.5768692996"><ele>173.30</ele><time>2026-08-18T20:13:26Z</time></trkpt><trkpt lat="59.3477343209" lon="34.5768727362"><ele>173.42</ele><time>2026-08-18T20:13:58Z</time></trkpt><trkpt lat="59.3477156293" lon="34.5769068506"><ele>173.86</ele><time>2026-08-18T20:14:50Z</time></trkpt><trkpt lat="59.3477233406" lon="34.5769571420"><ele>173.18</ele><time>2026-08-18T20:15:41Z</time></trkpt><trkpt lat="59.3477125280" lon="34.5769134723"><ele>171.41</ele><time>2026-08-18T20:16:21Z</time></trkpt><trkpt lat="59.3477091752" lon="34.5769093651"><ele>173.62</ele><time>2026-08-18T20:16:26Z</time></trkpt><trkpt lat="59.3477256037" lon="34.5769246202"><ele>173.64</ele><time>2026-08-18T20:16:55Z</time></trkpt><trkpt lat="59.3477126956" lon="34.5768700540"><ele>173.85</ele><time>2026-08-18T20:17:42Z</time></trkpt><trkpt lat="59.3477169704" lon="34.5768462494"><ele>174.10</ele><time>2026-08-18T20:18:39Z</time></trkpt><trkpt lat="59.3477222510" lon="34.5768562239"><ele>174.43</ele><time>2026-08-18T20:19:39Z</time></trkpt><trkpt lat="59.3477223348" lon="34.5768649410"><ele>174.29</ele><time>2026-08-18T20:20:29Z</time></trkpt><trkpt lat="59.3477204908" lon="34.5768701378"><ele>174.83</ele><time>2026-08-18T20:20:59Z</time></trkpt><trkpt lat="59.3476896454" lon="34.5769001450"><ele>174.50</ele><time>2026-08-18T20:21:21Z</time></trkpt><trkpt lat="59.3476377614" lon="34.5768664498"><ele>174.40</ele><time>2026-08-18T20:21:47Z</time></trkpt><trkpt lat="59.3475296348" lon="34.5768178347"><ele>175.61</ele><time>2026-08-18T20:22:20Z</time></trkpt><trkpt lat="59.3474676926" lon="34.5768434834"><ele>175.33</ele><time>2026-08-18T20:22:32Z</time></trkpt><trkpt lat="59.3473545369" lon="34.5768346824"><ele>175.25</ele><time>2026-08-18T20:22:43Z</time></trkpt><trkpt lat="59.3472747412" lon="34.5768391248"><ele>174.33</ele><time>2026-08-18T20:22:57Z</time></trkpt><trkpt lat="59.3472386990" lon="34.5768248755"><ele>174.58</ele><time>2026-08-18T20:23:12Z</time></trkpt><trkpt lat="59.3471912574" lon="34.5768636838"><ele>174.51</ele><time>2026-08-18T20:23:24Z</time></trkpt><trkpt lat="59.3471685424" lon="34.5768826269"><ele>173.08</ele><time>2026-08-18T20:23:29Z</time></trkpt><trkpt lat="59.3471620884" lon="34.5768904220"><ele>174.98</ele><time>2026-08-18T20:23:31Z</time></trkpt><trkpt lat="59.3471271358" lon="34.5769337565"><ele>174.42</ele><time>2026-08-18T20:23:59Z</time></trkpt><trkpt lat="59.3471395411" lon="34.5768846385"><ele>174.41</ele><time>2026-08-18T20:24:52Z</time></trkpt><trkpt lat="59.3471316621" lon="34.5768718980"><ele>174.51</ele><time>2026-08-18T20:25:43Z</time></trkpt><trkpt lat="59.3470560573" lon="34.5768480934"><ele>174.46</ele><time>2026-08-18T20:25:57Z</time></trkpt><trkpt lat="59.3469612580" lon="34.5768530387"><ele>174.97</ele><time>2026-08-18T20:26:09Z</time></trkpt><trkpt lat="59.3469050992" lon="34.5768432319"><ele>174.62</ele><time>2026-08-18T20:26:25Z</time></trkpt><trkpt lat="59.3468448333" lon="34.5768486802"><ele>174.56</ele><time>2026-08-18T20:26:41Z</time></trkpt><trkpt lat="59.3467610981" lon="34.5768759213"><ele>174.53</ele><time>2026-08-18T20:27:04Z</time></trkpt><trkpt lat="59.3467264809" lon="34.5768731553"><ele>174.22</ele><time>2026-08-18T20:27:21Z</time></trkpt><trkpt lat="59.3467021734" lon="34.5768523682"><ele>175.69</ele><time>2026-08-18T20:27:26Z</time></trkpt><trkpt lat="59.3466571625" lon="34.5768677909"><ele>175.25</ele><time>2026-08-18T20:27:47Z</time></trkpt><trkpt lat="59.3466463499" lon="34.5768630970"><ele>176.18</ele><time>2026-08-18T20:28:35Z</time></trkpt><trkpt lat="59.3466451764" lon="34.5768623427"><ele>175.87</ele><time>2026-08-18T20:29:05Z</time></trkpt><trkpt lat="59.3466146663" lon="34.5768947806"><ele>175.87</ele><time>2026-08-18T20:29:48Z</time></trkpt><trkpt lat="59.3466145825" lon="34.5768727362"><ele>176.44</ele><time>2026-08-18T20:30:15Z</time></trkpt><trkpt lat="59.3465771992" lon="34.5769277215"><ele>176.29</ele><time>2026-08-18T20:31:11Z</time></trkpt><trkpt lat="59.3465540651" lon="34.5769107901"><ele>176.86</ele><time>2026-08-18T20:31:47Z</time></trkpt><trkpt lat="59.3463637959" lon="34.5769531187"><ele>178.81</ele><time>2026-08-18T20:32:23Z</time></trkpt><trkpt lat="59.3462549988" lon="34.5769046713"><ele>178.31</ele><time>2026-08-18T20:32:43Z</time></trkpt><trkpt lat="59.3461297732" lon="34.5768606663"><ele>177.87</ele><time>2026-08-18T20:33:01Z</time></trkpt><trkpt lat="59.3460598681" lon="34.5768689644"><ele>176.82</ele><time>2026-08-18T20:33:24Z</time></trkpt><trkpt lat="59.3460504804" lon="34.5768916793"><ele>178.13</ele><time>2026-08-18T20:33:42Z</time></trkpt><trkpt lat="59.3460384943" lon="34.5768881589"><ele>177.56</ele><time>2026-08-18T20:34:04Z</time></trkpt><trkpt lat="59.3460631371" lon="34.5768615883"><ele>177.63</ele><time>2026-08-18T20:34:46Z</time></trkpt><trkpt lat="59.3460694235" lon="34.5768564753"><ele>177.44</ele><time>2026-08-18T20:35:15Z</time></trkpt><trkpt lat="59.3460718542" lon="34.5768333413"><ele>176.82</ele><time>2026-08-18T20:35:48Z</time></trkpt><trkpt lat="59.3460795656" lon="34.5768296532"><ele>175.08</ele><time>2026-08-18T20:36:00Z</time></trkpt><trkpt lat="59.3460787274" lon="34.5768308267"><ele>177.31</ele><time>2026-08-18T20:36:09Z</time></trkpt><trkpt lat="59.3460767996" lon="34.5768212713"><ele>177.55</ele><time>2026-08-18T20:36:41Z</time></trkpt><trkpt lat="59.3460745364" lon="34.5767922699"><ele>176.58</ele><time>2026-08-18T20:37:35Z</time></trkpt></trkseg></trk></gpx>